[[{"header":{"parameterUnit":"m.s-1","parameterCategory":1,"la1":30.6,"la2":28.766,"lo1":-90.7593,"lo2":-88.6598,"dy":0.0162,"dx":0.0183,"nx":116,"ny":114,"refTime":"2024-03-26T06:00:00:Z","depth":0,"parameterNumber":2,"parameterNumberName":"U-component_of_WINDS"},"data":[0.0,0.0,0.0,0.0,0.0,0.0,0.0,0.0,0.0,0.0,0.0,0.0,0.0,0.0,0.0,0.0,0.0,0.0,0.0,0.0,0.0,0.0,0.0,0.0,0.0,0.0,0.0,0.0,0.0,0.0,0.0,0.0,0.0,0.0,0.0,0.0,0.0,0.0,0.0,0.0,0.0,0.0,0.0,0.0,0.0,0.0,0.0,0.0,0.0,0.0,0.0,0.0,0.0,0.0,0.0,0.0,0.0,0.0,0.0,0.0,0.0,0.0,0.0,0.0,0.0,0.0,0.0,0.0,0.0,0.0,0.0,0.0,0.0,0.0,0.0,0.0,0.0,0.0,0.0,0.0,0.0,0.0,0.0,0.0,0.0,0.0,0.0,0.0,0.0,0.0,0.0,0.0,0.0,0.0,0.0,0.0,0.0,0.0,0.0,0.0,0.0,0.0,0.0,0.0,0.0,0.0,0.0,0.0,0.0,0.0,0.0,0.0,0.0,0.0,0.0,0.0,0.0,0.0,0.0,0.0,0.0,0.0,0.0,0.0,0.0,0.0,0.0,0.0,0.0,0.0,0.0,0.0,0.0,0.0,0.0,0.0,0.0,0.0,0.0,0.0,0.0,0.0,0.0,0.0,0.0,0.0,0.0,0.0,0.0,0.0,0.0,0.0,0.0,0.0,0.0,0.0,0.0,0.0,0.0,0.0,0.0,0.0,0.0,0.0,0.0,0.0,0.0,0.0,0.0,0.0,0.0,0.0,0.0,0.0,0.0,0.0,0.0,0.0,0.0,0.0,0.0,0.0,0.0,0.0,0.0,0.0,0.0,0.0,0.0,0.0,0.0,0.0,0.0,0.0,0.0,0.0,0.0,0.0,0.0,0.0,0.0,0.0,0.0,0.0,0.0,0.0,0.0,0.0,0.0,0.0,0.0,0.0,0.0,0.0,0.0,0.0,0.0,0.0,0.0,0.0,0.0,0.0,0.0,0.0,0.0,0.0,0.0,0.0,0.0,0.0,0.0,0.0,0.0,0.0,0.0,0.0,0.0,0.0,0.0,0.0,0.0,0.0,0.0,0.0,0.0,0.0,0.0,0.0,0.0,0.0,0.0,0.0,0.0,0.0,0.0,0.0,0.0,0.0,0.0,0.0,0.0,0.0,0.0,0.0,0.0,0.0,0.0,0.0,0.0,0.0,0.0,0.0,0.0,0.0,0.0,0.0,0.0,0.0,0.0,0.0,0.0,0.0,0.0,0.0,0.0,0.0,0.0,0.0,0.0,0.0,0.0,0.0,0.0,0.0,0.0,0.0,0.0,0.0,0.0,0.0,0.0,0.0,0.0,0.0,0.0,0.0,0.0,0.0,0.0,0.0,0.0,0.0,0.0,0.0,0.0,0.0,0.0,0.0,0.0,0.0,0.0,0.0,0.0,0.0,0.0,0.0,0.0,0.0,0.0,0.0,0.0,0.0,0.0,0.0,0.0,0.0,0.0,0.0,0.0,0.0,0.0,0.0,0.0,0.0,0.0,0.0,0.0,0.0,0.0,0.0,0.0,0.0,0.0,0.0,0.0,0.0,0.0,0.0,0.0,0.0,0.0,0.0,0.0,0.0,0.0,0.0,0.0,0.0,0.0,0.0,0.0,0.0,0.0,0.0,0.0,0.0,0.0,0.0,0.0,0.0,0.0,0.0,0.0,0.0,0.0,0.0,0.0,0.0,0.0,0.0,0.0,0.0,0.0,0.0,0.0,0.0,0.0,0.0,0.0,0.0,0.0,0.0,0.0,0.0,0.0,0.0,0.0,0.0,0.0,0.0,0.0,0.0,0.0,0.0,0.0,0.0,0.0,0.0,0.0,0.0,0.0,0.0,0.0,0.0,0.0,0.0,0.0,0.0,0.0,0.0,0.0,0.0,0.0,0.0,0.0,0.0,0.0,0.0,0.0,0.0,0.0,0.0,0.0,0.0,0.0,0.0,0.0,0.0,0.0,0.0,0.0,0.0,0.0,0.0,0.0,0.0,0.0,0.0,0.0,0.0,0.0,0.0,0.0,0.0,0.0,0.0,0.0,0.0,0.0,0.0,0.0,0.0,0.0,0.0,0.0,0.0,0.0,0.0,0.0,0.0,0.0,0.0,0.0,0.0,0.0,0.0,0.0,0.0,0.0,0.0,0.0,0.0,0.0,0.0,0.0,0.0,0.0,0.0,0.0,0.0,0.0,0.0,0.0,0.0,0.0,0.0,0.0,0.0,0.0,0.0,0.0,0.0,0.0,0.0,0.0,0.0,0.0,0.0,0.0,0.0,0.0,0.0,0.0,0.0,0.0,0.0,0.0,0.0,0.0,0.0,0.0,0.0,0.0,0.0,0.0,0.0,0.0,0.0,0.0,0.0,0.0,0.0,0.0,0.0,0.0,0.0,0.0,0.0,0.0,0.0,0.0,0.0,0.0,0.0,0.0,0.0,0.0,0.0,0.0,0.0,0.0,0.0,0.0,0.0,0.0,0.0,0.0,0.0,0.0,0.0,0.0,0.0,0.0,0.0,0.0,0.0,0.0,0.0,0.0,0.0,0.0,0.0,0.0,0.0,0.0,0.0,0.0,0.0,0.0,0.0,0.0,0.0,0.0,0.0,0.0,0.0,0.0,0.0,0.0,0.0,0.0,0.0,0.0,0.0,0.0,0.0,0.0,0.0,0.0,0.0,0.0,0.0,0.0,0.0,0.0,0.0,0.0,0.0,0.0,0.0,0.0,0.0,0.0,0.0,0.0,0.0,0.0,0.0,0.0,0.0,0.0,0.0,0.0,0.0,0.0,0.0,0.0,0.0,0.0,0.0,0.0,0.0,0.0,0.0,0.0,0.0,0.0,0.0,0.0,0.0,0.0,0.0,0.0,0.0,0.0,0.0,0.0,0.0,0.0,0.0,0.0,0.0,0.0,0.0,0.0,0.0,0.0,0.0,0.0,0.0,0.0,0.0,0.0,0.0,0.0,0.0,0.0,0.0,0.0,0.0,0.0,0.0,0.0,0.0,0.0,0.0,0.0,0.0,0.0,0.0,0.0,0.0,0.0,0.0,0.0,0.0,0.0,0.0,0.0,0.0,0.0,0.0,0.0,0.0,0.0,0.0,0.0,0.0,0.0,0.0,0.0,0.0,0.0,0.0,0.0,0.0,0.0,0.0,0.0,0.0,0.0,0.0,0.0,0.0,0.0,0.0,0.0,0.0,0.0,0.0,0.0,0.0,0.0,0.0,0.0,0.0,0.0,0.0,0.0,0.0,0.0,0.0,0.0,0.0,0.0,0.0,0.0,0.0,0.0,0.0,0.0,0.0,0.0,0.0,0.0,0.0,0.0,0.0,0.0,0.0,0.0,0.0,0.0,0.0,0.0,0.0,0.0,0.0,0.0,0.0,0.0,0.0,0.0,0.0,0.0,0.0,0.0,0.0,0.0,0.0,0.0,0.0,0.0,0.0,0.0,0.0,0.0,0.0,0.0,0.0,0.0,0.0,0.0,0.0,0.0,0.0,0.0,0.0,0.0,0.0,0.0,0.0,0.0,0.0,0.0,0.0,0.0,0.0,0.0,0.0,0.0,0.0,0.0,0.0,0.0,0.0,0.0,0.0,0.0,0.0,0.0,0.0,0.0,0.0,0.0,0.0,0.0,0.0,0.0,0.0,0.0,0.0,0.0,0.0,0.0,0.0,0.0,0.0,0.0,0.0,0.0,0.0,0.0,0.0,0.0,0.0,0.0,0.0,0.0,0.0,0.0,0.0,0.0,0.0,0.0,0.0,0.0,0.0,0.0,0.0,0.0,0.0,0.0,0.0,0.0,0.0,0.0,0.0,0.0,0.0,0.0,0.0,0.0,0.0,0.0,0.0,0.0,0.0,0.0,0.0,0.0,0.0,0.0,0.0,0.0,0.0,0.0,0.0,0.0,0.0,0.0,0.0,0.0,0.0,0.0,0.0,0.0,0.0,0.0,0.0,0.0,0.0,0.0,0.0,0.0,0.0,0.0,0.0,0.0,0.0,0.0,0.0,0.0,0.0,0.0,0.0,0.0,0.0,0.0,0.0,0.0,0.0,0.0,0.0,0.0,0.0,0.0,0.0,0.0,0.0,0.0,0.0,0.0,0.0,0.0,0.0,0.0,0.0,0.0,0.0,0.0,0.0,0.0,0.0,0.0,0.0,0.0,0.0,0.0,0.0,0.0,0.0,0.0,0.0,0.0,0.0,0.0,0.0,0.0,0.0,0.0,0.0,0.0,0.0,0.0,0.0,0.0,0.0,0.0,0.0,0.0,0.0,0.0,0.0,0.0,0.0,0.0,0.0,0.0,0.0,0.0,0.0,0.0,0.0,0.0,0.0,0.0,0.0,0.0,0.0,0.0,0.0,0.0,0.0,0.0,0.0,0.0,0.0,0.0,0.0,0.0,0.0,0.0,0.0,0.0,0.0,0.0,0.0,0.0,0.0,0.0,0.0,0.0,0.0,0.0,0.0,0.0,0.0,0.0,0.0,0.0,0.0,0.0,0.0,0.0,0.0,0.0,0.0,0.0,0.0,0.0,0.0,0.0,0.0,0.0,0.0,0.0,0.0,0.0,0.0,0.0,0.0,0.0,0.0,0.0,0.0,0.0,0.0,0.0,0.0,0.0,0.0,0.0,0.0,0.0,0.0,0.0,0.0,0.0,0.0,0.0,0.0,0.0,0.0,0.0,0.0,0.0,0.0,0.0,0.0,0.0,0.0,0.0,0.0,0.0,0.0,0.0,0.0,0.0,0.0,0.0,0.0,0.0,0.0,0.0,0.0,0.0,0.0,0.0,0.0,0.0,0.0,0.0,0.0,0.0,0.0,0.0,0.0,0.0,0.0,0.0,0.0,0.0,0.0,0.0,0.0,0.0,0.0,0.0,0.0,0.0,0.0,0.0,0.0,0.0,0.0,0.0,0.0,0.0,0.0,0.0,0.0,0.0,0.0,0.0,0.0,0.0,0.0,0.0,0.0,0.0,0.0,0.0,0.0,0.0,0.0,0.0,0.0,0.0,0.0,0.0,0.0,0.0,0.0,0.0,0.0,0.0,0.0,0.0,0.0,0.0,0.0,0.0,0.0,0.0,0.0,0.0,0.0,0.0,0.0,0.0,0.0,0.0,0.0,0.0,0.0,0.0,0.0,0.0,0.0,0.0,0.0,0.0,0.0,0.0,0.0,0.0,0.0,0.0,0.0,0.0,0.0,0.0,0.0,0.0,0.0,0.0,0.0,0.0,0.0,0.0,0.0,0.0,0.0,0.0,0.0,0.0,0.0,0.0,0.0,0.0,0.0,0.0,0.0,0.0,0.0,0.0,0.0,0.0,0.0,0.0,0.0,0.0,0.0,0.0,0.0,0.0,0.0,0.0,0.0,0.0,0.0,0.0,0.0,0.0,0.0,0.0,0.0,0.0,0.0,0.0,0.0,0.0,0.0,0.0,0.0,0.0,0.0,0.0,0.0,0.0,0.0,0.0,0.0,0.0,0.0,0.0,0.0,0.0,0.0,0.0,0.0,0.0,0.0,0.0,0.0,0.0,0.0,0.0,0.0,0.0,0.0,0.0,0.0,0.0,0.0,0.0,0.0,0.0,0.0,0.0,0.0,0.0,0.0,0.0,0.0,0.0,0.0,0.0,0.0,0.0,0.0,0.0,0.0,0.0,0.0,0.0,0.0,0.0,0.0,0.0,0.0,0.0,0.0,0.0,0.0,0.0,0.0,0.0,0.0,0.0,0.0,0.0,0.0,0.0,0.0,0.0,0.0,0.0,0.0,0.0,0.0,0.0,0.0,0.0,0.0,0.0,0.0,0.0,0.0,0.0,0.0,0.0,0.0,0.0,0.0,0.0,0.0,0.0,0.0,0.0,0.0,0.0,0.0,0.0,0.0,0.0,0.0,0.0,0.0,0.0,0.0,0.0,0.0,0.0,0.0,0.0,0.0,0.0,0.0,0.0,0.0,0.0,0.0,0.0,0.0,0.0,0.0,0.0,0.0,0.0,0.0,0.0,0.0,0.0,0.0,0.0,0.0,0.0,0.0,0.0,0.0,0.0,0.0,0.0,0.0,0.0,0.0,0.0,0.0,-4.2957,0.0,0.0,0.0,0.0,0.0,0.0,0.0,0.0,0.0,0.0,0.0,0.0,0.0,0.0,0.0,0.0,0.0,0.0,0.0,0.0,0.0,0.0,0.0,0.0,-4.0091,-3.9933,-3.9979,-3.9954,-3.99,-3.99,0.0,0.0,0.0,0.0,0.0,-3.99,-4.0317,-4.0525,-4.0525,-4.0652,-4.0903,-4.1274,-4.1293,-4.1662,-4.2382,0.0,0.0,0.0,0.0,0.0,0.0,0.0,0.0,0.0,0.0,0.0,0.0,0.0,0.0,0.0,0.0,0.0,0.0,0.0,0.0,0.0,0.0,0.0,0.0,0.0,0.0,0.0,0.0,0.0,0.0,0.0,0.0,0.0,0.0,0.0,0.0,0.0,0.0,0.0,0.0,0.0,0.0,0.0,0.0,0.0,0.0,0.0,0.0,0.0,0.0,0.0,0.0,0.0,0.0,0.0,0.0,0.0,0.0,0.0,0.0,0.0,0.0,0.0,0.0,0.0,0.0,0.0,0.0,0.0,0.0,0.0,-4.286,0.0,0.0,0.0,0.0,0.0,0.0,0.0,0.0,0.0,0.0,0.0,0.0,0.0,0.0,0.0,0.0,0.0,0.0,0.0,0.0,0.0,-4.0383,-4.0496,-4.0167,-3.9988,-4.0091,-3.9988,-3.99,-3.99,-3.99,0.0,0.0,0.0,-4.0184,-4.0336,-4.1037,-4.1397,-4.1397,-4.1977,-4.224,-4.2277,-4.3808,-4.4585,-4.4721,-4.5265,0.0,0.0,0.0,0.0,0.0,0.0,0.0,0.0,0.0,0.0,0.0,0.0,0.0,0.0,0.0,0.0,0.0,0.0,0.0,0.0,0.0,0.0,0.0,0.0,0.0,0.0,0.0,0.0,0.0,0.0,0.0,0.0,0.0,0.0,0.0,0.0,0.0,0.0,0.0,0.0,0.0,0.0,0.0,0.0,0.0,0.0,0.0,0.0,0.0,0.0,0.0,0.0,0.0,0.0,0.0,0.0,0.0,0.0,0.0,0.0,0.0,0.0,0.0,-4.3808,-4.375,-4.375,-4.375,-4.375,-4.373,-4.3595,-4.3924,-4.4478,-4.3053,0.0,0.0,0.0,0.0,0.0,0.0,0.0,0.0,0.0,0.0,0.0,0.0,0.0,0.0,0.0,0.0,0.0,0.0,0.0,-4.0469,-4.0503,-4.0239,-4.0071,-4.0101,-3.9988,-3.99,-3.99,-3.99,-4.0241,-4.0999,-4.1018,-4.1359,-4.206,-4.2174,-4.223,-4.223,-4.2957,-4.3536,-4.4011,-4.5783,-4.6914,-4.7444,-4.6687,-4.5955,-4.5287,0.0,0.0,0.0,0.0,0.0,0.0,0.0,0.0,0.0,0.0,0.0,0.0,0.0,0.0,0.0,0.0,0.0,0.0,0.0,0.0,0.0,0.0,0.0,0.0,0.0,0.0,0.0,0.0,0.0,0.0,0.0,0.0,0.0,0.0,0.0,0.0,0.0,0.0,0.0,0.0,0.0,-4.4082,-4.4281,0.0,0.0,0.0,0.0,0.0,0.0,0.0,0.0,0.0,0.0,0.0,0.0,0.0,-4.7955,-4.7908,-4.7154,-4.6709,-4.6593,-4.5819,-4.5478,-4.5478,-4.5478,-4.5478,-4.5439,-4.4736,0.0,-4.4574,-4.4342,0.0,0.0,0.0,0.0,0.0,0.0,0.0,0.0,0.0,0.0,0.0,0.0,0.0,0.0,0.0,0.0,0.0,0.0,0.0,0.0,0.0,-4.0836,-4.0976,-4.1046,-4.1303,-4.1466,-4.1466,-4.1369,-4.1473,-4.1863,-4.187,-4.2041,-4.2382,-4.2886,-4.3324,-4.3693,-4.402,-4.4552,-4.5284,-4.6444,-4.7399,-4.8109,-4.8044,-4.7504,-4.6624,-4.616,0.0,0.0,0.0,0.0,0.0,0.0,0.0,0.0,0.0,0.0,0.0,0.0,0.0,0.0,0.0,0.0,0.0,0.0,0.0,0.0,0.0,0.0,0.0,0.0,0.0,0.0,0.0,0.0,0.0,0.0,0.0,0.0,0.0,0.0,0.0,0.0,0.0,0.0,0.0,-4.4101,-4.4192,-4.4285,-4.4281,-4.4378,0.0,0.0,0.0,0.0,0.0,0.0,0.0,0.0,0.0,-4.7548,-4.7964,-4.8208,-4.8224,-4.7948,-4.7831,-4.7831,-4.7444,-4.725,-4.725,-4.725,-4.725,-4.7231,-4.6883,-4.6748,-4.6631,-4.5193,-4.4594,-4.4516,0.0,0.0,0.0,0.0,-4.2415,-4.1932,0.0,0.0,0.0,0.0,0.0,0.0,0.0,0.0,0.0,0.0,0.0,0.0,-4.1094,-4.1628,-4.2022,-4.2129,-4.2515,-4.2756,-4.2756,-4.2591,-4.2576,-4.2765,-4.2758,-4.2829,-4.3038,-4.3682,-4.4228,-4.4712,-4.4991,-4.5539,-4.6315,-4.7071,-4.7814,-4.8521,-4.8998,-4.8648,-4.7664,-4.7051,-4.6345,-4.5584,0.0,0.0,0.0,0.0,0.0,0.0,0.0,0.0,0.0,0.0,0.0,0.0,0.0,0.0,0.0,0.0,0.0,0.0,0.0,0.0,0.0,0.0,0.0,0.0,0.0,0.0,0.0,0.0,0.0,0.0,0.0,0.0,0.0,0.0,0.0,0.0,0.0,-4.4226,-4.4404,-4.4682,-4.473,-4.4866,0.0,0.0,0.0,0.0,0.0,0.0,-4.7644,-4.7762,-4.7892,-4.8094,-4.8461,-4.8635,-4.8635,-4.8651,-4.8655,-4.8655,-4.8473,-4.8392,-4.8392,-4.8392,-4.8392,-4.8392,-4.8392,-4.8392,-4.8237,-4.6109,-4.5239,-4.52,-4.4768,-4.4188,-4.3634,-4.3634,-4.3227,-4.2589,0.0,0.0,0.0,0.0,0.0,0.0,0.0,0.0,0.0,0.0,0.0,-4.1925,-4.1932,-4.2589,-4.3023,-4.3031,-4.2947,-4.2887,-4.2887,-4.2756,-4.3037,-4.3789,-4.37,-4.3985,-4.4762,-4.4819,-4.4795,-4.4712,-4.5786,-4.6592,-4.7159,-4.8141,-4.888,-4.9343,-4.9241,-4.8648,-4.7701,-4.7664,-4.7181,-4.6364,-4.5602,0.0,0.0,0.0,0.0,0.0,0.0,0.0,0.0,0.0,0.0,0.0,0.0,0.0,0.0,0.0,0.0,0.0,0.0,0.0,0.0,0.0,0.0,0.0,0.0,0.0,0.0,0.0,0.0,0.0,0.0,0.0,0.0,0.0,0.0,0.0,0.0,0.0,0.0,-4.5695,-4.5598,0.0,0.0,0.0,0.0,-4.6843,-4.6895,-4.7015,-4.7208,-4.7948,-4.8452,-4.8642,-4.9587,-5.0084,-5.0084,-4.9596,-4.9362,-4.9342,-4.8697,-4.8392,-4.8392,-4.8392,-4.8392,-4.8392,-4.8392,-4.8392,-4.8333,-4.7366,-4.696,-4.6825,-4.522,-4.4574,-4.4536,-4.4536,-4.4516,-4.4458,0.0,0.0,0.0,0.0,0.0,-4.177,-4.177,-4.2126,-4.2202,-4.1641,-4.2318,-4.2628,-4.2067,-4.3232,-4.4061,-4.4061,-4.4418,-4.4633,-4.4633,-4.4441,-4.444,-4.4715,-4.4566,-4.4611,-4.4895,-4.5445,-4.5759,-4.5786,-4.6759,-4.7674,-4.8487,-4.8816,-4.9281,-4.9844,-4.9588,-4.9212,-4.8795,-4.8565,-4.8017,-4.7256,-4.6958,-4.6215,0.0,0.0,0.0,0.0,0.0,0.0,0.0,0.0,0.0,0.0,0.0,0.0,0.0,0.0,0.0,0.0,0.0,0.0,0.0,0.0,0.0,0.0,0.0,0.0,0.0,0.0,0.0,0.0,0.0,0.0,0.0,0.0,0.0,0.0,0.0,0.0,0.0,-4.555,-4.5716,0.0,-4.6934,-4.7414,-4.7687,-4.7729,-4.8144,-4.8456,-4.8604,-4.881,-4.8987,-4.9164,-4.9625,-4.9884,-4.9878,-4.9901,-4.9912,-4.9904,-4.9884,-4.9886,-4.9867,-4.9977,-5.0008,-5.0008,-5.0008,-5.0008,-4.9931,-4.9107,-4.843,-4.7869,-4.7289,-4.6709,-4.6206,-4.6206,-4.5529,-4.4594,0.0,0.0,0.0,0.0,-4.2174,-4.265,-4.265,-4.3019,-4.3092,-4.2512,-4.3208,-4.3518,-4.2937,-4.4156,-4.5007,-4.5007,-4.5406,-4.5669,-4.5669,-4.5456,-4.5331,-4.5331,-4.5164,-4.5209,-4.5495,-4.6066,-4.6542,-4.6904,-4.7818,-4.8579,-4.9207,-4.9433,-4.9747,-5.008,-4.9803,-4.9612,-4.9529,-4.9299,-4.8775,-4.8054,-4.7516,-4.6661,-4.5639,0.0,0.0,0.0,0.0,0.0,0.0,0.0,0.0,0.0,0.0,0.0,0.0,0.0,0.0,0.0,0.0,0.0,0.0,0.0,0.0,0.0,0.0,0.0,0.0,0.0,0.0,0.0,0.0,0.0,0.0,0.0,0.0,0.0,0.0,0.0,-4.524,-4.63,-4.6513,-4.6857,-4.7612,-4.8134,-4.844,-4.844,-4.8847,-4.9258,-4.9618,-4.9538,-4.9687,-5.0048,-5.0253,-5.0338,-5.0354,-5.0805,-5.0901,-5.0615,-5.101,-5.1043,-5.0773,-5.0858,-5.0898,-5.0898,-5.0898,-5.0898,-5.0859,-5.0318,-4.9765,-4.9184,-4.8624,-4.8043,-4.754,-4.754,-4.6651,-4.5355,0.0,0.0,0.0,-4.2402,-4.3035,-4.3533,-4.3549,-4.3451,-4.3389,-4.3382,-4.4136,-4.4671,-4.4671,-4.5374,-4.5845,-4.5845,-4.5826,-4.5807,-4.5807,-4.5677,-4.5616,-4.5635,-4.5504,-4.5851,-4.6714,-4.6752,-4.7165,-4.7961,-4.8951,-4.9384,-4.9266,-5.005,-5.0309,-5.0104,-4.9904,-4.9798,-4.9798,-4.9798,-4.9461,-4.8795,-4.7216,-4.6566,-4.6364,0.0,0.0,0.0,0.0,0.0,0.0,0.0,0.0,0.0,0.0,0.0,0.0,0.0,0.0,0.0,0.0,0.0,0.0,0.0,0.0,0.0,0.0,0.0,0.0,0.0,0.0,0.0,0.0,0.0,0.0,0.0,0.0,0.0,-4.5506,-4.5536,-4.6195,-4.798,-4.8025,-4.8229,-4.9104,-4.903,-4.8946,-4.8946,-4.8964,-4.9317,-5.0098,-5.0153,-5.0525,-5.1361,-5.154,-5.1589,-5.1589,-5.2309,-5.2233,-5.1381,-5.1915,-5.1722,-5.089,-5.089,-5.0898,-5.0898,-5.0898,-5.0898,-5.0898,-5.0898,-5.0898,-5.0743,-4.9107,-4.8469,-4.843,-4.843,-4.7889,-4.6902,0.0,0.0,-4.2402,-4.2402,-4.356,-4.4495,-4.4449,-4.4914,-4.5219,-4.5124,-4.5877,-4.6419,-4.6419,-4.6612,-4.6728,-4.6728,-4.6155,-4.5807,-4.5807,-4.5677,-4.5843,-4.6359,-4.6359,-4.6733,-4.7548,-4.819,-4.8673,-4.8999,-4.9893,-5.0371,-5.0452,-5.0613,-5.0654,-5.0587,-5.0252,-5.0099,-5.0087,-4.9878,-4.9688,-4.9498,-4.8858,-4.8119,-4.7311,0.0,0.0,0.0,0.0,0.0,0.0,0.0,0.0,0.0,0.0,0.0,0.0,0.0,0.0,0.0,0.0,0.0,0.0,0.0,0.0,0.0,0.0,0.0,0.0,0.0,0.0,0.0,0.0,0.0,0.0,0.0,-4.5788,-4.6176,-4.6225,-4.6318,-4.6738,-4.7721,-4.7863,-4.818,-4.8902,-4.9464,-4.9782,-4.9782,-5.0358,-5.0803,-5.1026,-5.1045,-5.1156,-5.1398,-5.1452,-5.1452,-5.1452,-5.1738,-5.1547,-5.0824,-5.123,-5.1094,-5.0538,-5.0691,-5.0808,-5.0898,-5.0898,-5.0898,-5.0898,-5.0898,-5.0898,-5.084,-5.0395,-4.9861,-4.9339,-4.9339,-4.8798,-4.7889,0.0,-4.2363,-4.3066,-4.3437,-4.4562,-4.5425,-4.5349,-4.5715,-4.6075,-4.6304,-4.6786,-4.7231,-4.7599,-4.7637,-4.7637,-4.7637,-4.6844,-4.6348,-4.6348,-4.6263,-4.6425,-4.6851,-4.7227,-4.7804,-4.8641,-4.9152,-4.9612,-5.0027,-5.054,-5.0825,-5.0898,-5.0836,-5.0801,-5.0793,-5.0526,-5.041,-5.041,-5.0237,-5.0106,-4.9943,-4.979,-4.8991,-4.7807,-4.7378,-4.6698,-4.603,-4.6382,-4.6271,-4.5974,-4.5844,0.0,0.0,0.0,0.0,0.0,0.0,0.0,0.0,0.0,0.0,0.0,0.0,0.0,0.0,0.0,0.0,0.0,0.0,0.0,0.0,0.0,0.0,0.0,0.0,-4.6475,-4.7125,-4.746,-4.7283,-4.739,-4.8127,-4.8567,-4.8993,-4.9409,-5.0172,-5.0636,-5.0636,-5.1119,-5.1546,-5.1881,-5.1899,-5.2067,-5.2401,-5.2419,-5.2438,-5.2529,-5.2735,-5.2347,-5.1371,-5.1716,-5.1419,-5.0527,-5.0664,-5.0773,0.0,-5.0898,-5.0898,-5.0898,-5.0898,-5.0898,0.0,0.0,0.0,0.0,0.0,-4.9378,-4.8817,0.0,-4.3105,-4.3965,-4.4844,-4.5677,-4.6195,-4.6112,-4.6054,-4.6299,-4.7136,-4.725,-4.7618,-4.8585,-4.8604,-4.8546,-4.8546,-4.7753,-4.725,-4.725,-4.725,-4.7289,-4.7386,-4.8121,-4.8952,-4.9823,-4.9842,-5.019,-5.0898,-5.0898,-5.0898,-5.0898,-5.0836,-5.0801,-5.0793,-5.074,-5.0712,-5.0712,-5.0712,-5.0534,-5.0241,-5.0206,-4.9409,-4.8145,-4.7194,-4.6359,-4.5788,-4.6401,-4.6234,-4.5788,-4.6308,0.0,0.0,0.0,0.0,0.0,0.0,0.0,0.0,0.0,0.0,0.0,0.0,0.0,0.0,0.0,0.0,0.0,0.0,0.0,0.0,0.0,0.0,0.0,0.0,-4.7311,-4.8091,-4.8797,-4.837,-4.824,-4.8946,-4.967,-5.0172,-5.032,-5.1063,-5.1546,-5.1546,-5.1621,-5.1974,-5.2698,0.0,0.0,0.0,0.0,-5.3926,-5.4127,-5.4425,-5.3827,-5.238,-5.2729,-5.2113,-5.0673,-5.0673,-5.0745,-5.0898,-5.0898,-5.0898,-5.0898,-5.0898,-5.0898,-5.0898,-5.0898,-5.0898,-5.0801,-5.0113,-4.9842,-4.9707,0.0,-4.3105,-4.3965,-4.4844,-4.5703,-4.624,-4.6118,-4.6087,-4.6581,-4.7963,-4.814,-4.874,-5.0241,-4.9842,-4.9455,-4.9455,-4.8643,-4.814,-4.814,-4.814,-4.8469,-4.9165,-4.9359,-4.9842,-5.0647,-5.0666,-5.0743,-5.0898,-5.0898,-5.0898,-5.0898,-5.0836,-5.0801,-5.0793,-5.074,-5.0712,-5.0712,-5.0712,-5.0663,-5.0575,-5.0306,-4.9789,-4.9136,-4.8924,-4.8565,-4.8147,-4.7646,-4.7776,-4.8036,-4.6884,-4.6921,-4.7348,-4.663,-4.5665,0.0,0.0,0.0,0.0,0.0,0.0,0.0,0.0,0.0,0.0,0.0,0.0,0.0,0.0,0.0,0.0,0.0,0.0,0.0,-4.7441,-4.8147,-4.8723,-4.889,-4.9317,-4.9689,-4.9856,-5.0023,-5.0376,-5.1101,-5.1899,-5.2364,-5.2364,-5.2977,-5.3404,-5.3571,-5.3571,-5.3721,-5.4036,-5.4036,-5.4127,-5.4339,-5.4405,-5.3672,-5.2167,0.0,0.0,-5.0457,-5.0457,-5.0625,-5.0898,-5.0898,-5.0898,-5.0898,-5.0898,-5.0898,-5.0898,-5.0898,-5.0898,-5.0879,-5.0724,-5.0666,-5.055,0.0,-4.375,-4.4629,-4.5508,-4.6016,-4.6245,-4.6122,-4.6098,-4.6506,-4.7603,-4.7753,-4.8237,-4.9513,-4.9301,-4.9049,-4.9049,-4.8643,-4.8392,-4.8392,-4.8817,-4.9243,-4.9687,-5.0094,-5.0492,-5.0898,-5.0898,-5.0898,-5.0898,-5.0898,-5.0898,-5.0898,-5.0836,-5.0801,-5.0793,-5.074,-5.0712,-5.0712,-5.0712,-5.0712,-5.0683,-5.0514,-5.019,-4.9762,-4.9499,-4.8931,-4.8259,-4.785,-4.7701,-4.7571,-4.6773,-4.6773,-4.7033,-4.6624,-4.5836,-4.5068,0.0,0.0,0.0,0.0,0.0,0.0,0.0,0.0,0.0,0.0,0.0,0.0,0.0,0.0,-4.6494,-4.6494,0.0,-4.7701,-4.7701,-4.8389,-4.9039,-4.9447,-4.9856,-5.0098,-5.0098,-5.0841,-5.1528,-5.1955,-5.2735,-5.32,-5.32,-5.3571,-5.3813,-5.3813,-5.3889,-5.4,-5.4091,-5.4198,-5.432,-5.4505,-5.4505,-5.3739,-5.225,-5.225,-5.1568,-5.0291,-5.0361,-5.0557,-5.0808,-5.0874,-5.0898,-5.0898,-5.0898,-5.0898,-5.0898,-5.0898,-5.0898,-5.0898,-5.0898,-5.0898,-5.084,0.0,-4.4531,-4.5469,-4.6172,-4.6308,-4.6245,-4.6122,-4.6098,-4.6351,-4.7002,-4.7096,-4.7424,-4.8295,-4.8392,-4.8392,-4.8392,-4.8546,-4.8643,-4.8643,-4.9455,-4.9939,-4.9939,-5.055,-5.0898,-5.0898,-5.0898,-5.0898,-5.0898,-5.0898,-5.0898,-5.0898,-5.0836,-5.0801,-5.0793,-5.074,-5.0712,-5.0712,-5.0712,-5.0712,-5.0712,-5.0712,-5.0493,-5.0159,-4.9726,-4.8921,-4.7988,-4.7605,-4.7144,-4.668,-4.6364,-4.6364,-4.6494,-4.6494,-4.5955,-4.5287,-4.5287,-4.4804,0.0,0.0,0.0,0.0,0.0,0.0,0.0,0.0,-4.6225,-4.6407,-4.6684,-4.6865,-4.6977,-4.6977,-4.7497,-4.7924,-4.7924,-4.8481,-4.9187,-4.9986,-5.0246,-5.0413,-5.058,-5.1788,-5.2661,-5.2828,-5.346,-5.387,-5.387,-5.387,-5.3888,-5.3907,-5.4,-5.4091,-5.4197,-5.4339,-5.4472,-5.4645,-5.4645,-5.3895,-5.2385,-5.2385,-5.1638,-5.02,-5.0313,-5.0486,-5.071,-5.0841,-5.0882,-5.0866,-5.089,-5.0898,-5.0898,-5.0898,-5.0898,-5.0898,-5.0898,-5.0898,-5.0898,0.0,-4.5039,-4.6191,-4.6289,-4.6308,-4.6245,-4.6122,-4.6098,-4.6351,-4.7002,-4.7096,-4.7424,-4.8295,-4.8392,-4.8392,-4.8392,-4.9107,-4.9552,-4.9552,-5.0299,-5.0763,-5.0763,-5.084,-5.0898,-5.0898,-5.0898,-5.0898,-5.0898,-5.0898,-5.0898,-5.0898,-5.0836,-5.0801,-5.0793,-5.074,-5.0712,-5.0712,-5.0712,-5.0712,-5.0712,-5.0712,-5.0493,-5.0195,-5.0135,-4.9733,-4.8984,-4.7241,-4.7033,-4.7348,-4.5918,-4.59,-4.6494,-4.6494,-4.5955,-4.5287,-4.5287,-4.5231,-4.4989,-4.4178,-4.3958,-4.4162,-4.4983,-4.5206,-4.5426,0.0,-4.6999,-4.7519,-4.7571,-4.8129,-4.863,-4.863,-4.8723,-4.8779,-4.8779,-4.8834,-4.9187,-4.9986,-5.0766,-5.1528,-5.2234,-5.2494,-5.2884,-5.3608,-5.3907,-5.4073,-5.4073,-5.4073,-5.4145,-5.4321,-5.4019,-5.4054,-5.4533,-5.4455,-5.4557,-5.4852,-5.4871,-5.4053,-5.2385,-5.2385,-5.1638,-5.02,-5.0212,-5.0388,-5.071,-5.0841,-5.0833,-5.0729,-5.085,-5.0898,-5.0898,-5.0898,-5.0898,-5.0898,-5.0898,-5.0898,-5.0898,0.0,0.0,-4.6308,-4.6308,-4.6308,-4.6245,-4.6122,-4.6098,-4.6156,-4.6325,-4.6348,-4.6484,-4.6844,-4.6883,-4.7096,-4.7599,-4.8388,-4.9088,-4.961,-5.0405,-5.0833,-5.0833,-5.0877,-5.0905,-5.0905,-5.0909,-5.0898,-5.0898,-5.0893,-5.0905,-5.0905,-5.0793,-5.0738,-5.0729,-5.0702,-5.0712,-5.0712,-5.0712,-5.0712,-5.0712,-5.0712,-5.0614,-5.0472,-5.0272,-4.9777,-4.8951,-4.7316,-4.6858,0.0,-4.5101,-4.4766,-4.5045,-4.5045,-4.4804,-4.4544,-4.4544,-4.4544,-4.4451,-4.4098,-4.4376,-4.4952,-4.5788,-4.6345,-4.6903,-4.7701,-4.8166,-4.8407,-4.8407,-4.8667,-4.8909,-4.8909,-4.8909,-4.8909,-4.8909,-4.8909,-4.9187,-4.9986,-5.0859,-5.1695,-5.2512,-5.3014,-5.3479,-5.3926,-5.3944,-5.3963,-5.4091,-5.4,-5.4018,-5.4198,-5.4055,-5.4162,-5.4597,-5.4552,-5.4651,-5.4901,-5.4901,-5.4067,-5.2385,-5.2385,-5.157,-5.0025,-5.0139,-5.0321,-5.0537,-5.0709,-5.0756,-5.071,-5.085,-5.0898,-5.0898,-5.0898,-5.0898,-5.0898,-5.0898,-5.0898,-5.0898,0.0,0.0,0.0,-4.6308,-4.6308,-4.6265,-4.6145,-4.6112,-4.6048,-4.5873,-4.5808,-4.5807,-4.5807,-4.5793,-4.6037,-4.6694,-4.7469,-4.8314,-4.9183,-4.9989,-5.055,-5.0782,-5.0846,-5.0863,-5.0863,-5.0885,-5.0901,-5.0866,-5.0888,-5.0891,-5.0863,-5.0757,-5.0701,-5.0701,-5.0693,-5.0712,-5.0712,-5.0712,-5.0712,-5.0712,-5.0712,-5.0712,-5.0654,-5.0163,-4.9564,-4.8807,-4.7409,-4.6634,0.0,-4.4519,-4.4005,-4.4005,-4.4005,-4.4005,-4.4005,-4.4005,-4.4005,-4.4061,-4.4283,-4.4822,-4.5491,-4.629,-4.7107,-4.7906,-4.8723,-4.8909,-4.8909,-4.8909,-4.8909,-4.8909,-4.8909,-4.8909,-4.8909,-4.8909,-4.8909,-4.9187,-4.9986,-5.0859,-5.1695,-5.2512,-5.3311,-5.387,-5.4073,-5.3963,-5.3963,-5.4163,-5.4,-5.3963,-5.4163,-5.4073,-5.4179,-5.4536,-5.4552,-5.4632,-5.4822,-5.4871,-5.4067,-5.2385,-5.2385,-5.1528,-4.9912,-5.0101,-5.0217,-5.0272,-5.0507,-5.0596,-5.0586,-5.0773,-5.085,-5.085,-5.0882,-5.0898,-5.0898,-5.0898,-5.0898,-5.0898,0.0,0.0,0.0,-4.6308,-4.6308,-4.6288,-4.6207,-4.6142,-4.6072,-4.5993,-4.5873,-4.5807,-4.5807,-4.5791,-4.5807,-4.5846,-4.658,-4.7406,-4.8274,-4.9084,-4.9914,-5.0763,-5.0801,-5.0801,-5.0801,-5.0863,-5.0863,-5.0801,-5.0863,-5.0863,-5.0801,-5.0729,-5.0701,-5.0701,-5.0693,-5.0712,-5.0712,-5.0712,-5.0712,-5.0712,-5.0712,-5.0712,-5.0616,-4.976,-4.9255,-4.8807,-4.7409,0.0,-4.5457,-4.4373,-4.4005,-4.4005,-4.4005,-4.4005,-4.4005,-4.4005,-4.4005,-4.4191,-4.5026,-4.5268,-4.5491,-4.629,-4.7107,-4.7906,-4.8723,-4.8909,-4.8909,-4.8909,-4.8909,-4.8909,-4.8909,-4.8909,-4.8909,-4.8909,-4.8909,-4.9187,-4.9986,-5.0859,-5.1695,-5.2512,-5.3311,-5.387,0.0,-5.4091,-5.4163,-5.4392,-5.4198,-5.418,-5.4373,-5.4018,-5.3981,-5.439,-5.4409,-5.4472,-5.4613,-5.4807,-5.4067,-5.2385,-5.2385,-5.1528,-4.9912,-5.0101,-5.0089,-4.9933,-5.026,-5.0336,-5.0236,-5.0567,-5.0701,-5.072,-5.085,-5.0898,-5.0898,-5.0898,-5.0898,-5.0898,0.0,0.0,0.0,-4.6305,-4.6305,-4.6261,-4.615,-4.6083,-4.6033,-4.6005,-4.588,0.0,0.0,0.0,0.0,0.0,-4.6475,-4.7058,-4.7347,-4.867,-4.9566,-4.9854,-5.0421,-5.0729,-5.0729,-5.0793,-5.081,-5.0801,-5.0775,-5.0757,-5.0729,-5.0712,-5.0693,-5.0693,-5.0693,-5.0712,-5.0712,-5.0712,-5.0712,-5.0654,-5.0067,-4.9837,-4.974,-4.8875,-4.8155,-4.7509,0.0,0.0,-4.5434,-4.4355,-4.4005,-4.4005,-4.4005,-4.4005,-4.4116,-4.4692,-4.4451,-4.4302,-4.5714,-4.6104,-4.629,-4.7107,-4.7906,-4.8574,-4.8834,-4.8909,-4.8909,-4.8909,-4.8481,-4.8091,-4.8091,-4.7664,-4.7478,-4.8017,-4.8091,-4.8389,-4.9187,-5.006,-5.0896,-5.1714,-5.2512,0.0,0.0,0.0,0.0,-5.4199,-5.4018,-5.3981,-5.418,-5.3963,-5.3981,-5.4392,-5.4269,-5.4318,-5.4597,-5.4151,-5.3395,-5.2385,-5.1263,-5.0448,-4.9893,-4.9959,-4.9959,-4.9906,-5.0156,-5.0228,-5.0224,-5.0557,-5.0701,-5.071,-5.085,-5.0898,-5.0898,-5.0898,-5.0898,-5.0898,0.0,0.0,0.0,0.0,0.0,0.0,0.0,0.0,0.0,0.0,0.0,0.0,0.0,0.0,0.0,0.0,0.0,-4.6572,-4.6872,-4.7912,-4.8625,-4.8913,-4.9461,-4.9768,-4.9768,-5.015,-5.0322,-5.0305,-5.0575,-5.0692,-5.0692,-5.0702,-5.0712,-5.0712,-5.0712,-5.0539,-5.025,-5.025,-5.0048,-4.9721,-4.9163,-4.8933,-4.8836,-4.799,-4.7355,0.0,0.0,0.0,-4.5323,-4.4433,-4.4079,-4.4005,-4.4005,-4.4005,-4.4116,-4.4674,-4.4655,-4.4692,-4.5769,-4.6494,-4.7051,-4.7571,-4.8296,-4.8909,-4.8909,-4.8909,-4.8816,-4.8537,-4.8054,-4.7608,-4.7311,-4.6847,-4.6754,-4.7571,-4.7701,-4.798,-4.8797,-4.9633,-5.0358,-5.0878,-5.1918,-5.2847,0.0,0.0,0.0,-5.4091,-5.3907,-5.387,-5.3981,-5.387,-5.3926,-5.4181,-5.4127,-5.4197,-5.4418,-5.3742,-5.2919,-5.195,-5.0561,-4.9912,-4.9912,-4.9912,-4.9912,-4.9912,-5.0038,-5.0089,-5.0114,-5.0399,-5.0546,-5.0616,-5.0782,-5.0858,-5.0898,-5.0898,-5.0898,-5.0898,0.0,0.0,0.0,0.0,0.0,0.0,0.0,0.0,0.0,0.0,0.0,0.0,0.0,0.0,0.0,0.0,0.0,0.0,-4.6778,-4.6885,0.0,-4.8009,-4.8086,-4.8105,-4.8105,-4.8979,-4.9402,-4.9336,-5.0153,-5.0577,-5.0577,-5.0577,-5.0577,-5.0577,-5.0577,-5.0106,-4.9336,-4.9336,-4.8856,-4.8105,-4.8067,-4.8048,-4.7952,-4.7144,0.0,0.0,0.0,-4.5211,-4.5118,-4.4585,-4.4221,-4.4005,-4.4005,-4.4005,-4.4005,-4.4061,-4.4655,-4.5324,-4.5398,-4.6531,-4.7701,-4.7757,-4.8333,-4.8909,-4.8909,-4.8872,-4.863,-4.7868,-4.7627,-4.7348,-4.6587,-4.6438,-4.6698,-4.7516,-4.7664,-4.798,-4.8797,-4.9559,-5.006,-5.0098,-5.1546,-5.2549,-5.2605,-5.333,0.0,-5.4073,0.0,-5.3813,-5.3813,-5.3813,-5.3813,-5.3813,-5.3981,-5.4091,-5.4109,-5.359,-5.2598,-5.1116,-5.0296,-4.9912,-4.9912,-4.9912,-4.9912,-4.9912,-4.9912,-4.9912,-4.9925,-5.0114,-5.0275,-5.0404,-5.0616,-5.0782,-5.089,-5.0898,-5.0898,-5.0898,0.0,0.0,0.0,0.0,0.0,0.0,0.0,0.0,0.0,0.0,0.0,0.0,0.0,0.0,0.0,0.0,0.0,0.0,-4.5913,0.0,0.0,0.0,0.0,0.0,0.0,0.0,0.0,-4.8432,-4.8653,-4.875,-4.8759,-4.8759,-4.8759,-4.8759,-4.8759,-4.8644,-4.8432,-4.8432,-4.8298,-4.8048,0.0,-4.7212,-4.7105,0.0,0.0,0.0,0.0,-4.5362,-4.5118,-4.4585,-4.4221,-4.4005,-4.4005,-4.4005,-4.4135,-4.4785,-4.5119,-4.5565,-4.6754,-4.7386,-4.785,-4.8444,-4.876,-4.8909,-4.8909,-4.8444,-4.7943,-4.7738,-4.6754,-4.5844,-4.5639,-4.5602,-4.5862,-4.668,-4.7311,-4.798,-4.8797,-4.9076,-4.9429,-5.0042,-5.1045,-5.1936,-5.2549,-5.333,0.0,0.0,-5.3832,-5.3813,-5.3813,-5.3813,-5.3813,-5.3813,-5.3851,-5.3944,-5.4109,-5.2989,-5.1632,-5.0071,-4.9971,-4.9912,-4.9912,-4.9912,-4.9912,-4.9912,-4.9912,-4.9912,-4.9925,-5.0114,-5.0224,-5.0275,-5.0576,-5.072,-5.0764,-5.0866,-5.0898,-5.0898,0.0,0.0,0.0,0.0,0.0,0.0,0.0,0.0,0.0,0.0,0.0,0.0,0.0,0.0,0.0,0.0,0.0,0.0,0.0,0.0,0.0,0.0,0.0,0.0,0.0,0.0,0.0,0.0,0.0,0.0,-4.8105,-4.8105,-4.8105,-4.8105,-4.8105,-4.7894,-4.7567,-4.7567,0.0,0.0,0.0,0.0,0.0,0.0,0.0,0.0,-4.5594,-4.5429,-4.5148,-4.4714,-4.4322,-4.4005,-4.4005,-4.4005,-4.4098,-4.4581,-4.5249,-4.6011,-4.6921,-4.7683,-4.8333,-4.8797,-4.8909,-4.8816,-4.8444,-4.8017,-4.7497,-4.6791,-4.5918,-4.5287,-4.5287,-4.5287,-4.5677,-4.6828,-4.7404,-4.798,-4.8797,-4.8909,-4.9076,-4.9522,-5.0655,-5.1584,-5.2029,-5.3125,-5.3813,0.0,-5.3813,-5.3813,-5.3813,-5.3813,-5.3813,-5.3813,-5.3813,-5.3535,-5.3008,-5.1921,-5.0801,-4.9692,-4.9792,-4.9843,-4.9912,-4.9912,-4.9912,-4.9912,0.0,-4.9912,-4.9912,-5.0012,-5.0114,-5.0212,-5.0399,-5.0557,-5.071,-5.0791,-5.085,-5.0898,0.0,0.0,0.0,0.0,0.0,0.0,0.0,0.0,0.0,0.0,-4.5594,-4.5594,0.0,0.0,0.0,0.0,0.0,0.0,0.0,0.0,0.0,0.0,0.0,0.0,0.0,0.0,0.0,0.0,0.0,0.0,0.0,0.0,0.0,0.0,0.0,0.0,0.0,0.0,0.0,0.0,0.0,0.0,0.0,0.0,0.0,0.0,-4.5594,-4.5429,-4.5169,-4.4884,-4.4471,-4.4048,-4.402,-4.4005,-4.4005,-4.4005,-4.5101,-4.6364,-4.6475,-4.7608,-4.8779,-4.8872,-4.8909,-4.8686,-4.7887,-4.7627,-4.7107,-4.5602,-4.5212,-4.5157,-4.5268,-4.5287,-4.5825,-4.7441,-4.7701,-4.798,-4.8797,-4.8909,-4.8909,-4.8909,-5.0376,-5.1398,-5.1398,-5.2865,-5.3813,-5.3813,-5.3813,-5.3813,-5.3813,-5.3813,-5.3813,-5.3813,-5.3701,-5.2977,-5.1573,-5.0787,-5.0129,-4.9634,-4.9648,-4.975,-4.9885,-4.9885,-4.9885,-4.9912,0.0,0.0,-4.9912,-4.9912,-4.9999,-5.0163,-5.0188,-5.0377,-5.0654,-5.0692,-5.0791,-5.0898,0.0,0.0,0.0,0.0,0.0,0.0,0.0,0.0,0.0,0.0,-4.5594,-4.5594,0.0,0.0,0.0,0.0,0.0,0.0,0.0,0.0,0.0,0.0,0.0,0.0,0.0,0.0,0.0,-4.5825,-4.5979,0.0,0.0,0.0,0.0,0.0,0.0,0.0,0.0,0.0,0.0,0.0,0.0,0.0,0.0,0.0,0.0,0.0,-4.5594,-4.5429,-4.5169,-4.4884,-4.4585,-4.4289,-4.4079,-4.4005,-4.4005,-4.4005,-4.4711,-4.5639,-4.6308,-4.7181,-4.8073,-4.8723,-4.8909,-4.8686,-4.7887,-4.7181,-4.6438,-4.5491,-4.4729,-4.4451,-4.5157,-4.5287,-4.5825,-4.7441,-4.7701,-4.798,-4.8797,-4.8909,-4.8909,-4.8909,-5.0376,-5.1398,-5.1398,-5.2865,0.0,0.0,-5.3813,-5.3813,-5.3813,-5.3813,-5.3813,-5.3813,-5.3144,-5.2382,-5.1452,-5.0754,-5.0034,-4.9276,-4.9402,-4.9555,-4.9736,-4.9736,-4.9807,-4.9912,-4.9912,0.0,-4.9912,-4.9912,-4.9906,-4.9959,-5.0126,-5.031,-5.0467,-5.0635,-5.0791,-5.0898,0.0,0.0,0.0,0.0,0.0,0.0,0.0,-4.5646,-4.5594,-4.5594,-4.5594,-4.5594,-4.5594,-4.5594,-4.5594,0.0,0.0,0.0,0.0,0.0,0.0,0.0,0.0,0.0,0.0,-4.5594,-4.5594,-4.5594,0.0,-4.5594,-4.5594,-4.5594,-4.5594,-4.5594,0.0,0.0,0.0,0.0,0.0,0.0,0.0,0.0,0.0,0.0,0.0,0.0,0.0,-4.4841,-4.4624,-4.3931,-4.3523,-4.3389,-4.386,-4.4005,-4.4005,-4.4005,-4.4618,-4.5379,-4.5769,-4.6773,-4.7794,-4.8184,-4.8593,-4.8574,-4.7348,-4.6773,-4.6141,-4.4878,-4.4283,-4.4265,-4.5138,-4.5287,-4.5677,-4.6884,-4.7423,-4.7831,-4.8221,-4.8649,-4.8909,-4.8909,-4.9986,-5.0896,-5.1361,-5.2475,-5.3348,-5.3775,-5.3813,-5.3813,-5.3813,-5.3813,-5.3813,-5.3813,-5.2605,-5.1788,-5.1398,-5.0223,-4.9487,-4.9214,-4.9276,-4.9434,-4.9692,-4.9692,-4.9759,-4.9912,-4.9912,0.0,-4.9912,-4.9912,-4.9912,-4.9912,-4.9999,-5.0186,-5.0415,-5.0517,-5.069,-5.0898,0.0,0.0,0.0,0.0,0.0,0.0,-4.5627,-4.5594,-4.5594,-4.5594,-4.5594,-4.5594,-4.5594,-4.5594,-4.5594,0.0,0.0,0.0,0.0,0.0,0.0,0.0,0.0,0.0,0.0,0.0,0.0,-4.5594,-4.5594,0.0,0.0,0.0,0.0,0.0,-4.5594,-4.5594,-4.5594,0.0,0.0,0.0,0.0,0.0,0.0,0.0,0.0,0.0,0.0,-4.4182,-4.3906,-4.2996,-4.2565,-4.2522,-4.3301,-4.3642,-4.3745,-4.3745,-4.4339,-4.5064,-4.5249,-4.6215,-4.7237,-4.7404,-4.7924,-4.8017,-4.6568,-4.6234,-4.5825,-4.4302,-4.4005,-4.4265,-4.5138,-4.5138,-4.5342,-4.6345,-4.6884,-4.7311,-4.7646,-4.824,-4.8723,-4.889,-4.9615,-5.045,-5.1323,-5.2122,0.0,-5.3738,-5.3813,0.0,-5.3813,-5.3813,-5.372,-5.3553,-5.2159,-5.1305,-5.1119,-4.9652,-4.8978,-4.9129,-4.9129,-4.9292,-4.9604,-4.9634,-4.9717,-4.9857,-4.9898,0.0,0.0,-4.9912,-4.9912,-4.9912,-4.9912,-5.01,-5.0404,-5.0404,-5.0606,-5.0898,0.0,0.0,0.0,0.0,0.0,0.0,-4.5627,-4.5594,-4.5594,-4.5594,-4.5594,-4.5594,-4.5594,-4.5594,-4.5594,0.0,0.0,0.0,0.0,0.0,0.0,0.0,0.0,0.0,0.0,0.0,0.0,-4.5594,-4.5594,0.0,0.0,0.0,0.0,0.0,0.0,-4.5594,-4.5594,-4.5594,0.0,0.0,0.0,0.0,0.0,0.0,0.0,0.0,0.0,-4.3835,-4.3156,-4.2824,-4.2677,-4.2603,-4.2209,-4.2478,-4.2909,-4.2909,-4.3485,-4.4283,-4.5082,-4.5398,-4.5695,-4.642,-4.6661,-4.6494,-4.5602,-4.5398,-4.5138,-4.4191,-4.4005,-4.4265,-4.5138,-4.4655,-4.4636,-4.6234,-4.5955,-4.603,-4.7497,-4.7757,-4.8091,-4.8816,-4.9615,-5.045,-5.1323,-5.2122,-5.294,-5.3738,-5.3813,0.0,-5.3813,-5.3813,-5.3478,-5.2735,-5.1862,-5.1026,-5.0228,-4.9355,-4.8909,-4.8926,-4.8926,-4.9046,-4.9244,-4.9368,-4.9521,-4.9721,-4.9843,0.0,0.0,-4.9912,-4.9912,-4.9912,-4.9912,-5.01,-5.0404,-5.0404,-5.0606,-5.0898,0.0,0.0,0.0,0.0,0.0,0.0,-4.561,-4.5594,-4.5594,-4.5594,-4.5594,-4.5594,-4.5594,-4.5594,-4.5594,-4.5594,0.0,0.0,0.0,0.0,0.0,0.0,0.0,0.0,0.0,0.0,-4.5594,-4.5594,-4.5594,0.0,0.0,0.0,0.0,0.0,0.0,-4.5594,-4.5594,0.0,0.0,0.0,0.0,0.0,0.0,0.0,0.0,0.0,0.0,0.0,-4.2223,-4.159,-4.118,-4.0918,-4.0692,-4.0976,-4.1441,-4.1943,-4.2649,-4.3355,-4.3689,-4.4525,-4.5379,-4.5695,-4.6141,-4.629,-4.5472,-4.5287,-4.5045,-4.4191,-4.4005,-4.4116,-4.4451,-4.4228,-4.4228,-4.4896,-4.5157,-4.5677,-4.6828,-4.7386,-4.7999,-4.8797,-4.9187,-4.9912,0.0,0.0,-5.2419,-5.3701,-5.3813,0.0,-5.3107,-5.3088,-5.294,-5.2605,-5.1342,-5.0488,-5.0098,-4.9299,-4.8909,-4.8909,-4.8909,-4.9012,-4.9195,-4.9337,-4.9525,-4.9707,-4.9843,0.0,0.0,-4.9912,-4.9912,-4.9912,-4.9912,-5.0063,-5.0298,-5.0361,-5.0567,-5.0791,0.0,0.0,0.0,0.0,0.0,-4.5749,-4.562,-4.5594,-4.5594,-4.5594,-4.5594,-4.5594,-4.5594,-4.5577,-4.5568,-4.5568,-4.5568,0.0,0.0,0.0,0.0,0.0,0.0,0.0,0.0,0.0,-4.5577,-4.5594,-4.5594,-4.5594,0.0,0.0,-4.5594,-4.5594,0.0,0.0,0.0,0.0,0.0,0.0,0.0,0.0,0.0,0.0,0.0,0.0,0.0,0.0,0.0,0.0,0.0,-3.9893,-3.9829,-3.9945,-4.0286,-4.1025,-4.1813,-4.25,-4.2742,-4.3652,-4.4618,-4.4859,-4.5157,-4.5249,-4.4692,-4.4562,-4.4395,-4.3763,-4.3838,-4.4005,-4.4005,-4.4005,-4.4005,-4.4005,-4.4525,-4.5287,-4.6345,-4.6995,-4.7738,-4.8779,-4.8909,-4.9466,-5.0878,-5.1454,-5.2122,-5.3032,0.0,0.0,-5.2289,-5.2029,-5.1881,-5.1862,-5.0766,-5.0023,-4.9763,-4.9187,-4.8909,-4.8909,-4.8909,-4.8978,-4.9113,-4.9257,-4.9449,-4.9615,0.0,0.0,0.0,-4.9912,-4.9912,-4.9912,-4.9912,-5.0012,-5.0212,-5.0339,-5.0527,-5.072,0.0,0.0,0.0,0.0,0.0,0.0,-4.562,-4.5594,-4.5594,-4.5594,-4.5594,-4.5594,-4.5594,-4.5531,-4.5504,-4.5504,-4.5504,0.0,0.0,0.0,0.0,0.0,0.0,0.0,0.0,0.0,-4.5522,-4.5594,-4.5594,-4.5594,-4.5594,-4.5594,-4.5594,-4.5594,0.0,0.0,0.0,0.0,0.0,0.0,0.0,0.0,0.0,0.0,0.0,0.0,0.0,0.0,0.0,0.0,0.0,0.0,0.0,-3.9679,-3.9621,-4.024,-4.0992,-4.1776,-4.2575,-4.2816,-4.302,-4.3819,-4.3429,-4.2835,-4.2835,-4.2835,-4.2816,-4.2816,-4.3448,-4.4005,-4.4005,-4.4005,-4.4005,-4.4005,-4.4005,-4.4599,-4.6271,-4.6513,-4.7107,-4.8723,-4.8909,-4.9224,-5.0042,-5.1621,-5.2271,-5.1472,0.0,0.0,-5.1454,-5.0655,-5.019,-5.0135,-5.0116,-4.9726,-4.8927,-4.8909,-4.8909,-4.8909,-4.8909,-4.8909,-4.8909,-4.9113,-4.9276,0.0,0.0,0.0,0.0,-4.9912,-4.9912,-4.9912,-4.9912,-5.0012,-5.0212,-5.0339,-5.0527,-5.072,0.0,0.0,0.0,0.0,0.0,0.0,-4.5466,-4.5457,-4.5457,-4.5457,-4.5457,-4.5457,-4.5457,-4.5438,-4.5429,-4.5429,-4.5429,0.0,0.0,0.0,0.0,0.0,0.0,0.0,0.0,-4.4037,-4.3768,-4.382,-4.382,-4.3848,-4.3893,-4.4444,-4.4715,-4.4734,-4.5217,-4.5438,0.0,0.0,0.0,0.0,0.0,0.0,0.0,0.0,0.0,0.0,0.0,0.0,0.0,0.0,0.0,0.0,0.0,0.0,0.0,-3.95,-4.0104,-4.0828,-4.1089,-4.1553,-4.2036,-4.2296,-4.2166,-4.198,-4.198,-4.2407,-4.2797,-4.2797,-4.3448,-4.4005,-4.4005,-4.4005,-4.4005,-4.4005,-4.4005,-4.4599,-4.6252,-4.6494,-4.7107,-4.8723,-4.9392,-4.9819,0.0,0.0,-5.1676,0.0,0.0,0.0,-5.0562,-5.0283,-5.0116,-5.0098,-4.9577,-4.9169,-4.8909,-4.8909,-4.8909,-4.8909,-4.8909,-4.8909,-4.8909,-4.9096,0.0,0.0,0.0,0.0,0.0,-4.9745,-4.9745,-4.9759,-4.9871,-4.9885,-4.9898,-5.0156,-5.0298,-5.0377,0.0,0.0,0.0,0.0,0.0,0.0,-4.54,-4.54,-4.54,-4.54,-4.54,-4.54,-4.54,-4.541,-4.54,-4.54,-4.538,0.0,0.0,0.0,0.0,0.0,0.0,0.0,-4.3713,-4.3139,-4.2889,-4.2961,-4.2961,-4.2979,-4.3035,-4.3546,-4.3759,-4.3797,-4.4231,-4.4624,0.0,0.0,0.0,0.0,0.0,0.0,-4.403,0.0,0.0,0.0,0.0,0.0,0.0,0.0,0.0,0.0,0.0,0.0,0.0,0.0,-3.942,-3.9964,-4.0308,-4.0769,-4.1219,-4.1516,-4.1367,-4.1144,-4.1144,-4.1534,-4.198,-4.2277,-4.2983,-4.3633,-4.3949,-4.4005,-4.4005,-4.4005,-4.4005,-4.4599,-4.6252,-4.6494,-4.7107,-4.8723,-4.9355,0.0,0.0,-5.0413,-5.0785,0.0,0.0,0.0,-4.9689,-4.9652,-4.9652,-4.9652,-4.9169,-4.8909,-4.8909,-4.8909,-4.8909,-4.8909,-4.8909,-4.8909,-4.8909,-4.9029,0.0,0.0,0.0,0.0,0.0,-4.9585,-4.9585,-4.96,-4.9759,-4.9759,-4.975,-5.0076,-5.02,-5.0224,0.0,0.0,0.0,0.0,0.0,0.0,0.0,-4.539,-4.539,-4.539,-4.539,-4.539,-4.539,-4.539,-4.5398,-4.5398,-4.5338,0.0,0.0,0.0,0.0,0.0,0.0,0.0,-4.2822,-4.268,-4.2642,-4.2716,-4.2716,-4.2716,-4.2725,-4.2774,-4.2812,-4.2812,-4.2795,-4.3273,-4.4154,-4.4901,-4.5176,-4.5048,-4.4236,-4.3903,0.0,0.0,0.0,0.0,0.0,0.0,0.0,0.0,0.0,0.0,0.0,0.0,0.0,0.0,0.0,0.0,0.0,-4.029,-4.049,-4.1237,-4.0847,-4.0323,-4.0323,-4.0346,0.0,-4.1423,-4.224,-4.3039,-4.3856,-4.4005,-4.4005,-4.4005,-4.4005,-4.4599,-4.6252,-4.6605,-4.7237,-4.8723,-4.8909,0.0,-4.8909,-4.9577,0.0,0.0,0.0,0.0,-4.8946,-4.8909,-4.8909,-4.8909,-4.8909,-4.8909,-4.8909,-4.8909,-4.8909,-4.8909,-4.8909,-4.8909,-4.8909,-4.8909,0.0,0.0,0.0,0.0,0.0,-4.9384,-4.9384,-4.9415,-4.9634,-4.9692,-4.9721,-5.005,-5.0175,-5.02,0.0,0.0,0.0,0.0,0.0,0.0,0.0,0.0,0.0,0.0,-4.5319,-4.5319,-4.5319,-4.5309,-4.5317,0.0,0.0,0.0,0.0,0.0,0.0,0.0,0.0,0.0,-4.182,-4.1208,-4.0902,-4.0899,-4.0899,-4.0936,-4.1001,-4.1617,-4.1914,-4.1924,-4.2527,-4.2919,-4.3139,-4.334,-4.3396,-4.3367,-4.3157,-4.2689,0.0,0.0,0.0,0.0,-4.0401,-4.0362,0.0,0.0,0.0,0.0,0.0,0.0,0.0,0.0,-3.8954,-3.9048,-3.9281,0.0,-3.9454,-3.964,-3.9547,-3.9398,0.0,-3.9918,-4.0624,-4.1423,-4.224,-4.3039,-4.3856,-4.4005,-4.4005,-4.4005,-4.4005,-4.4599,-4.6252,-4.7553,-4.8481,-4.8872,-4.8909,-4.8909,-4.8909,-4.9076,0.0,0.0,0.0,-4.9113,-4.8909,-4.8909,-4.8909,-4.8909,-4.8909,-4.8909,-4.8909,-4.8909,-4.8909,-4.8909,-4.8909,-4.8909,-4.8909,-4.8909,0.0,0.0,0.0,0.0,-4.9244,-4.9244,-4.9244,-4.9276,-4.9589,-4.96,-4.9506,-4.9852,-4.9959,-4.9992,0.0,0.0,0.0,0.0,0.0,0.0,0.0,0.0,0.0,0.0,-4.5307,-4.5307,-4.5307,-4.5307,-4.5307,0.0,0.0,0.0,0.0,0.0,0.0,0.0,0.0,-4.1323,-4.096,-4.0511,-4.0301,-4.0309,-4.0309,-4.0318,-4.0364,-4.0796,-4.0997,-4.1036,-4.1829,-4.2202,-4.2221,-4.2622,-4.2794,-4.2775,-4.2354,0.0,0.0,0.0,0.0,0.0,-4.0309,-4.0327,0.0,-4.0345,-4.0177,-3.9918,0.0,0.0,0.0,0.0,-3.8851,-3.891,-3.891,-3.8989,-3.9101,-3.9101,-3.9101,-3.9101,-3.9101,-3.9454,-4.003,-4.0866,-4.1683,-4.25,-4.3299,-4.3745,-4.4005,-4.4005,-4.4339,-4.5175,-4.6828,-4.8129,-4.8909,-4.8909,-4.8909,-4.8909,0.0,0.0,0.0,0.0,0.0,-4.8909,-4.8909,-4.8909,-4.8909,-4.8909,-4.8909,-4.8909,-4.8909,-4.8909,-4.8909,-4.8909,-4.8909,-4.8909,-4.8909,-4.8909,-4.8909,0.0,0.0,0.0,-4.9062,-4.9062,-4.9062,-4.9096,-4.9355,-4.9449,-4.943,-4.9717,-4.9843,-4.9912,0.0,0.0,0.0,0.0,0.0,0.0,0.0,0.0,0.0,0.0,0.0,0.0,0.0,0.0,0.0,0.0,0.0,0.0,0.0,0.0,0.0,0.0,-4.1781,-4.0998,-4.0301,-4.0301,-4.0301,-4.0301,-4.0301,-4.0301,-4.0301,-4.0301,-4.0301,-4.032,-4.1017,-4.1323,-4.1361,-4.2106,-4.2431,-4.2354,-4.1609,0.0,0.0,0.0,0.0,0.0,0.0,0.0,0.0,-4.0301,-4.0098,-3.9796,-3.9556,0.0,0.0,0.0,0.0,0.0,-3.8807,-3.8935,-3.9073,-3.9073,-3.9073,-3.9073,-3.9073,-3.9073,-3.9328,-4.0183,-4.1033,-4.185,-4.2649,-4.3466,-4.4005,-4.4005,-4.4822,-4.5992,-4.7497,-4.8389,-4.8909,-4.8909,-4.8909,0.0,0.0,0.0,0.0,0.0,0.0,-4.8909,-4.8909,-4.8909,-4.8909,-4.8909,-4.8909,-4.8909,-4.8909,-4.8909,-4.8909,-4.8909,-4.8909,-4.8909,-4.8909,-4.8909,-4.8909,0.0,0.0,0.0,-4.8909,-4.8909,-4.8909,-4.8926,-4.9113,-4.9276,-4.9384,-4.9585,-4.9764,-4.9885,0.0,0.0,0.0,0.0,0.0,0.0,0.0,0.0,0.0,0.0,0.0,0.0,0.0,0.0,0.0,0.0,0.0,0.0,0.0,0.0,0.0,-4.1724,-4.0922,-4.0435,-4.0301,-4.0301,-4.0301,-4.0301,-4.0301,-4.0301,-4.0301,-4.0301,-4.0301,-4.0301,-4.0435,-4.0473,-4.0492,-4.0626,-4.0683,-4.0664,-4.053,0.0,0.0,0.0,0.0,0.0,0.0,0.0,0.0,-4.0301,-3.9975,-3.9544,-3.9508,0.0,0.0,0.0,0.0,0.0,-3.8807,-3.8848,-3.8921,-3.8921,-3.8921,-3.8921,-3.8921,-3.8964,-3.9248,-4.0044,-4.097,-4.185,-4.2649,-4.3466,-4.4005,-4.4005,-4.5305,-4.6643,0.0,0.0,-4.8909,-4.8909,0.0,0.0,0.0,0.0,0.0,0.0,0.0,-4.8909,-4.8909,-4.8909,-4.8909,-4.8909,-4.8909,-4.8909,-4.8909,-4.8909,-4.8909,-4.8909,-4.8909,-4.8909,-4.8909,-4.8909,-4.8909,0.0,0.0,-4.8909,-4.8909,-4.8909,-4.8909,-4.8926,-4.9113,-4.9211,-4.9244,-4.9384,-4.957,-4.9788,0.0,0.0,0.0,0.0,0.0,0.0,0.0,0.0,0.0,0.0,0.0,0.0,0.0,0.0,0.0,0.0,0.0,0.0,0.0,0.0,-4.2412,-4.1533,-4.0731,-4.0301,-4.0301,-4.0301,-4.0301,-4.0301,-4.0301,-4.0234,-4.0087,-3.9943,-4.0017,-4.0291,-3.9996,-4.0036,-4.0291,-3.9986,-4.0046,-4.0291,0.0,0.0,0.0,0.0,0.0,0.0,0.0,0.0,0.0,0.0,-3.9807,-3.9458,-3.9337,0.0,0.0,0.0,0.0,0.0,-3.875,-3.8765,-3.8887,-3.9329,-3.9165,-3.8925,-3.8954,-3.8983,-3.9248,-4.0125,-4.0985,-4.185,-4.2649,-4.3466,-4.4302,-4.5194,0.0,-4.7423,-4.824,-4.8667,-4.8909,0.0,0.0,0.0,0.0,0.0,0.0,0.0,0.0,0.0,-4.8909,-4.8909,-4.8909,-4.8909,-4.8909,-4.8909,-4.8909,-4.8909,-4.8909,-4.8909,-4.8909,-4.8909,-4.8909,-4.8909,-4.8909,-4.8909,0.0,-4.8909,-4.8909,-4.8909,-4.8909,-4.8909,-4.9012,-4.9096,-4.9228,-4.948,-4.9615,-4.9759,0.0,0.0,0.0,0.0,0.0,0.0,0.0,0.0,0.0,0.0,0.0,0.0,0.0,0.0,0.0,0.0,0.0,0.0,0.0,-4.3138,-4.2335,-4.1266,-4.0635,-4.0301,-4.0301,-4.0301,-4.0301,-4.0301,-4.0244,-4.0077,-3.9796,-3.9599,-3.9717,-4.0087,-3.9682,-3.9717,-4.0087,-3.967,-3.9747,-4.0087,0.0,0.0,0.0,0.0,0.0,0.0,0.0,0.0,0.0,0.0,0.0,0.0,0.0,0.0,0.0,-3.8707,-3.8707,-3.8707,-3.8707,-3.8707,-3.8854,-3.946,-3.9369,-3.9198,-3.9427,-3.9494,-3.9723,-4.0444,-4.1238,-4.2009,-4.2656,-4.3599,-4.4785,-4.6252,-4.7181,-4.798,-4.8797,-4.8909,-4.8909,-4.8909,0.0,0.0,0.0,0.0,0.0,0.0,0.0,0.0,-4.8909,-4.8909,-4.8909,-4.8909,-4.8909,-4.8909,-4.8909,-4.8909,-4.8909,-4.8909,-4.8909,-4.8909,-4.8909,-4.8909,-4.8909,-4.8909,-4.8909,-4.8909,-4.8909,-4.8909,-4.8909,-4.8909,-4.8909,-4.8995,-4.9162,-4.9464,-4.9604,-4.9702,0.0,0.0,0.0,0.0,0.0,0.0,0.0,0.0,0.0,0.0,0.0,0.0,0.0,0.0,0.0,0.0,0.0,0.0,0.0,-4.2832,-4.2087,-4.0454,-4.032,-4.0301,-4.0301,-4.0301,-4.0301,-4.0301,-4.0038,-3.9785,-3.9539,-3.9514,-3.9526,-3.9563,-3.9526,-3.9526,-3.9563,-3.9526,-3.9508,-3.9563,-3.9551,0.0,0.0,0.0,0.0,0.0,0.0,0.0,0.0,0.0,0.0,0.0,0.0,0.0,-3.8707,-3.8707,-3.8707,-3.8707,-3.8707,-3.8707,-3.8707,-3.8781,-3.931,-4.0008,-4.0779,-4.1009,-4.1054,-4.1127,-4.1836,-4.2488,-4.2659,-4.4088,-4.5491,-4.6364,-4.7181,-4.798,-4.8797,0.0,-4.8909,0.0,0.0,0.0,0.0,0.0,0.0,0.0,0.0,0.0,-4.8909,-4.8909,-4.8909,-4.8909,-4.8909,-4.8909,-4.8909,-4.8909,-4.8909,-4.8909,-4.8909,-4.8909,-4.8909,-4.8909,-4.8909,-4.8909,-4.8909,-4.8909,-4.8909,-4.8909,-4.8909,-4.8909,-4.8909,-4.8909,-4.8943,-4.9162,-4.9305,-4.9503,0.0,0.0,0.0,0.0,0.0,0.0,0.0,0.0,0.0,0.0,0.0,-4.5307,-4.5307,0.0,0.0,0.0,0.0,0.0,-4.2908,-4.2794,-4.2049,-4.0358,-4.0301,-4.0301,-4.0301,-4.0301,-4.0225,-4.0038,-3.9623,-3.9439,-3.9483,-3.917,-3.9178,-3.9489,-3.9137,-3.9178,-3.9489,-3.9137,-3.921,-3.9489,-3.9324,-3.9414,0.0,0.0,0.0,0.0,0.0,0.0,0.0,0.0,-3.9178,-3.9073,-3.8892,-3.878,-3.8707,-3.8707,-3.8707,-3.8707,-3.8707,-3.9074,-3.957,-4.0068,-4.0799,-4.122,-4.057,-4.0822,-4.1348,-4.1912,-4.2701,-4.3636,-4.4733,-4.5945,-4.6884,-4.72,-4.7924,-4.8556,-4.8872,0.0,0.0,0.0,0.0,0.0,0.0,0.0,0.0,0.0,0.0,0.0,0.0,-4.8909,-4.8909,-4.8909,-4.8909,-4.8909,-4.8909,-4.8909,-4.8909,-4.8909,-4.8909,-4.8909,-4.8909,-4.8909,-4.8909,-4.8909,-4.8909,-4.8909,-4.8909,-4.8909,-4.8909,-4.8909,-4.8909,-4.8909,-4.8926,-4.9129,-4.9228,-4.9349,0.0,0.0,0.0,0.0,0.0,0.0,0.0,0.0,-4.5307,0.0,0.0,0.0,0.0,-4.5307,0.0,0.0,0.0,0.0,-4.2908,-4.2794,-4.2049,-4.0358,-4.0225,-4.0176,-4.0176,-4.0087,-3.9996,-3.9903,-3.9363,-3.9137,-3.9232,-3.8881,-3.891,-3.9232,-3.8866,-3.8892,-3.9219,-3.8851,-3.8906,-3.9232,-3.9045,-3.9124,0.0,0.0,0.0,0.0,0.0,0.0,0.0,0.0,-3.8979,-3.8935,-3.875,-3.8707,-3.8707,-3.8707,-3.8707,-3.8707,-3.8707,-3.9294,-4.0029,-4.0579,-4.1515,-4.2027,-4.0974,-4.134,-4.2165,-4.3025,-4.3904,-4.4877,-4.6052,-4.7043,0.0,0.0,-4.8389,-4.8909,0.0,0.0,0.0,0.0,0.0,0.0,0.0,0.0,0.0,0.0,0.0,0.0,0.0,-4.8909,-4.8909,-4.8909,-4.8909,-4.8909,-4.8909,-4.8909,-4.8909,-4.8909,-4.8909,-4.8909,-4.8909,-4.8909,-4.8909,-4.8909,-4.8909,-4.8909,-4.8909,-4.8909,-4.8909,-4.8909,-4.8909,-4.8909,-4.8926,-4.916,-4.9273,-4.9396,0.0,0.0,0.0,0.0,0.0,0.0,0.0,0.0,-4.5307,-4.5307,-4.5307,0.0,0.0,0.0,0.0,0.0,0.0,0.0,-4.2908,-4.2794,-4.2039,-4.0377,-4.0038,-3.9903,-3.9903,-3.9616,-3.9635,-3.9892,-3.9363,-3.8964,-3.8707,-3.8707,-3.8707,-3.8707,-3.8707,-3.8707,-3.8707,-3.8707,-3.8707,-3.8707,-3.8707,-3.8866,-3.9101,0.0,0.0,0.0,0.0,0.0,0.0,0.0,-3.8707,-3.8707,-3.8707,-3.8707,-3.8707,-3.8707,-3.8707,-3.8707,-3.8707,-3.9294,-3.9918,-3.9918,-4.113,-4.2304,-4.2323,-4.2928,-4.3718,-4.4544,-4.5441,-4.6136,-4.6187,-4.6994,0.0,-4.7703,-4.8389,-4.8909,0.0,0.0,0.0,0.0,0.0,0.0,0.0,0.0,0.0,0.0,0.0,0.0,0.0,-4.8909,-4.8909,0.0,-4.8909,-4.8909,-4.8909,-4.8909,-4.8909,-4.8909,-4.8909,-4.8909,-4.8909,-4.8909,-4.8909,-4.8909,-4.8909,-4.8909,-4.8909,-4.8909,-4.8909,-4.8909,-4.8909,-4.8909,-4.8925,-4.9255,-4.9469,-4.9627,0.0,0.0,0.0,0.0,0.0,0.0,0.0,0.0,-4.5307,-4.5307,-4.5307,0.0,0.0,0.0,0.0,0.0,0.0,0.0,-4.2908,-4.2612,-4.1765,-4.0093,-3.9762,-3.9623,-3.9623,-3.9363,-3.9259,-3.9337,-3.8993,-3.878,-3.8707,-3.8707,-3.8707,-3.8707,-3.8707,-3.8707,-3.8707,-3.8707,-3.8707,-3.8707,-3.8707,-3.875,-3.8807,0.0,0.0,0.0,0.0,0.0,0.0,0.0,0.0,0.0,-3.8707,-3.8707,-3.8707,-3.8707,-3.9093,-3.9533,-3.9533,-4.0543,-4.1589,-4.1589,-4.2359,-4.3277,-4.3864,-4.3736,-4.3718,-4.4544,-4.59,-4.6947,-4.7018,-4.7736,0.0,-4.8521,-4.8708,-4.8857,0.0,0.0,0.0,0.0,0.0,0.0,0.0,0.0,0.0,0.0,0.0,0.0,0.0,-4.8909,0.0,0.0,-4.8909,-4.8909,-4.8909,-4.8909,-4.8909,-4.8909,-4.8909,-4.8909,-4.8909,-4.8909,-4.8909,-4.8909,-4.8909,-4.8909,-4.8909,-4.8909,-4.8909,-4.8909,-4.8909,-4.8909,-4.8926,-4.901,-4.9222,-4.9499,0.0,0.0,0.0,0.0,0.0,0.0,-4.4917,-4.503,-4.5045,-4.4953,-4.5042,-4.5065,0.0,0.0,0.0,-4.4941,-4.4917,0.0,-4.2504,-4.2262,-4.1422,-3.9731,-3.9458,-3.9298,-3.9178,-3.9017,-3.8935,-3.8935,-3.878,-3.8707,-3.8707,-3.8707,-3.8707,-3.8707,-3.8707,-3.8707,-3.8707,-3.8707,-3.8707,-3.8707,-3.8707,-3.8707,-3.8707,0.0,0.0,0.0,0.0,0.0,0.0,0.0,0.0,0.0,-3.8707,-3.8707,-3.8707,-3.8707,-3.9038,-3.9423,-3.9423,-4.0598,-4.1827,-4.1827,-4.2671,-4.3699,-4.4525,-4.4819,-4.5076,-4.5553,-4.6728,-4.7739,-4.7831,-4.8237,0.0,-4.875,-4.875,0.0,0.0,0.0,0.0,0.0,0.0,0.0,0.0,0.0,0.0,0.0,0.0,0.0,0.0,0.0,0.0,0.0,-4.8909,-4.8909,-4.8909,-4.8909,-4.8909,-4.8909,-4.8909,-4.8909,-4.8909,-4.8909,-4.8909,-4.8909,-4.8909,-4.8909,-4.8909,-4.8909,-4.8909,-4.8909,-4.8909,-4.8909,-4.8926,-4.9044,-4.9283,-4.9602,0.0,0.0,-4.4905,-4.4612,0.0,0.0,-4.4318,-4.4546,-4.465,-4.4411,-4.4599,-4.4663,0.0,0.0,0.0,-4.4369,-4.4318,-4.3578,-4.1897,-4.1758,-4.1015,-3.9337,-3.9119,-3.8935,-3.8707,-3.8707,-3.8707,-3.8707,-3.8707,-3.8707,-3.8707,-3.8707,-3.8707,-3.8707,-3.8707,-3.8707,-3.8707,-3.8707,-3.8707,-3.8707,-3.8707,-3.8707,-3.8707,-3.8707,0.0,0.0,0.0,0.0,0.0,0.0,0.0,0.0,-3.8707,-3.8707,-3.8707,-3.8707,-3.8762,-3.8817,-3.8817,-3.9976,-4.1205,-4.1205,-4.247,-4.3901,-4.4654,-4.6049,-4.7168,-4.7021,-4.7681,-4.8307,-4.8384,-4.8439,-4.8513,-4.8605,0.0,0.0,0.0,0.0,0.0,0.0,0.0,0.0,0.0,0.0,0.0,0.0,0.0,0.0,0.0,0.0,0.0,-4.8909,-4.8909,-4.8909,-4.8909,-4.8909,-4.8909,0.0,-4.8909,-4.8909,-4.8909,-4.8909,-4.8909,-4.8909,-4.8909,-4.8909,-4.8909,-4.8909,-4.8909,-4.8909,-4.8909,-4.8909,-4.8943,-4.9241,-4.9539,-4.9803,0.0,0.0,-4.429,-4.4233,0.0,0.0,-4.4146,-4.4204,-4.4261,-4.4318,-4.4374,-4.4388,-4.4332,-4.4318,0.0,-4.4175,-4.4146,-4.3455,-4.1829,-4.1522,-4.0667,-3.8989,-3.8733,-3.8652,-3.8707,-3.8707,-3.8707,-3.8707,-3.8707,-3.8707,-3.8707,-3.8707,-3.8707,-3.8707,-3.8707,-3.8707,-3.8707,-3.8707,-3.8707,-3.8707,-3.8707,-3.8707,-3.8707,-3.8707,-3.8707,0.0,0.0,0.0,0.0,0.0,0.0,0.0,-3.8707,-3.8707,-3.8707,-3.8707,-3.9148,-3.9643,-3.9643,-4.0818,-4.2047,-4.2047,-4.3736,-4.5424,-4.5608,-4.6893,-4.7682,-4.6416,-4.7297,-4.8142,-4.7647,-4.7997,-4.8401,0.0,0.0,0.0,0.0,0.0,0.0,0.0,0.0,0.0,0.0,0.0,0.0,0.0,0.0,0.0,0.0,0.0,0.0,-4.8909,-4.8909,-4.8909,-4.8909,-4.8909,-4.8909,0.0,-4.8909,-4.8909,-4.8909,-4.8909,-4.8909,-4.8909,-4.8909,-4.8909,-4.8909,-4.8909,-4.8909,-4.8909,-4.8909,-4.8909,-4.8909,-4.8976,-4.9343,-4.9803,0.0,0.0,0.0,0.0,0.0,0.0,0.0,0.0,-4.3435,-4.3733,-4.3915,-4.3946,-4.3788,-4.3756,0.0,0.0,-4.364,-4.2924,-4.1335,-4.1084,-4.0304,-3.8732,-3.8618,-3.8624,-3.8707,-3.8707,-3.8658,-3.8609,-3.8658,-3.8707,-3.8707,-3.8707,-3.8707,-3.8707,-3.8707,-3.8707,-3.8707,-3.8707,-3.8707,-3.8707,-3.8707,-3.8707,-3.8692,-3.8624,-3.864,-3.8692,-3.8624,0.0,0.0,0.0,0.0,0.0,0.0,0.0,-3.8707,-3.8707,-3.9001,-3.9331,-3.9331,-4.0212,-4.1332,-4.2103,-4.3828,-4.5424,-4.581,-4.6856,-4.759,-4.715,-4.7719,-4.8197,-4.7849,-4.8069,-4.8344,0.0,0.0,0.0,0.0,0.0,0.0,0.0,0.0,0.0,0.0,0.0,0.0,0.0,0.0,0.0,0.0,-4.8909,-4.8909,-4.8909,-4.8909,-4.8909,-4.8909,-4.8909,-4.8909,-4.8909,-4.8909,-4.8909,-4.8909,-4.8909,-4.8909,-4.8909,-4.8909,-4.8909,-4.8909,-4.8909,-4.8909,-4.8909,-4.8909,-4.8909,-4.887,-4.8611,-4.8803,-4.9134,0.0,0.0,0.0,0.0,0.0,0.0,0.0,0.0,0.0,-4.3123,-4.3408,-4.3494,-4.3196,-4.3178,-4.3178,0.0,0.0,0.0,-4.0761,-4.0416,-3.9721,-3.8517,-3.8562,-3.8645,-3.8643,-3.8643,-3.8593,-3.851,-3.8609,-3.8673,-3.8707,-3.8707,-3.8692,-3.8658,-3.8658,-3.8658,-3.8658,-3.8658,-3.8658,-3.8658,-3.8658,-3.8658,-3.8643,-3.851,-3.8544,-3.8627,-3.851,-3.8559,-3.8643,-3.8643,0.0,0.0,0.0,0.0,-3.8707,-3.8707,-3.8707,-3.8707,-3.8707,-3.9386,-4.0451,-4.1937,-4.3516,-4.4856,-4.5535,-4.6324,-4.7113,-4.7939,-4.8214,-4.8306,-4.8306,-4.8306,0.0,0.0,0.0,0.0,0.0,0.0,0.0,0.0,0.0,0.0,0.0,0.0,0.0,0.0,0.0,0.0,-4.8909,-4.8909,-4.8909,-4.8909,-4.8909,-4.8909,-4.8909,-4.8909,-4.8909,-4.8909,-4.8909,-4.8909,-4.8909,-4.8909,-4.8909,-4.8909,-4.8909,-4.8816,-4.8686,-4.8686,-4.8612,-4.85,-4.85,-4.85,-4.8441,-4.7994,-4.8027,-4.8225,0.0,0.0,0.0,0.0,0.0,0.0,0.0,0.0,0.0,0.0,-4.3142,-4.316,-4.3123,-4.3123,-4.3068,-4.2957,-4.2285,-4.1488,-4.06,0.0,0.0,-3.834,-3.8356,-3.837,-3.8449,-3.8449,-3.8446,-3.851,-3.8525,-3.8593,-3.8707,-3.8707,-3.8643,-3.8525,-3.8525,-3.8525,-3.8525,-3.8525,-3.8525,-3.8525,-3.8525,-3.8494,-3.8449,-3.8415,-3.8415,-3.8449,-3.8415,-3.8415,-3.8449,-3.8449,-3.8478,0.0,0.0,0.0,-3.8707,-3.8707,-3.8707,-3.8707,-3.8707,-3.9808,-4.115,-4.2066,-4.3516,-4.4728,-4.4838,-4.548,-4.6287,0.0,-4.781,-4.8306,-4.8306,0.0,0.0,0.0,0.0,0.0,0.0,0.0,0.0,0.0,0.0,0.0,0.0,0.0,0.0,0.0,0.0,0.0,-4.8909,-4.8909,-4.8909,-4.8909,-4.8909,-4.8909,-4.8909,-4.8909,-4.8909,-4.8909,-4.8909,-4.8909,-4.8909,-4.8909,-4.8909,-4.8909,-4.8909,-4.85,-4.7868,-4.7868,-4.746,-4.6828,-4.6828,-4.6828,-4.681,-4.6729,-4.7024,-4.7453,0.0,0.0,0.0,0.0,0.0,0.0,0.0,0.0,0.0,0.0,0.0,-4.2994,-4.2994,-4.2994,-4.2957,-4.2919,-4.2158,-4.118,-3.9967,-3.8859,-3.8274,-3.8307,-3.8338,-3.8368,-3.8399,-3.8399,-3.8415,-3.8446,-3.8478,-3.851,-3.853,-3.8559,-3.8559,-3.851,-3.8462,-3.8446,-3.8446,-3.8446,-3.8446,-3.8446,-3.8446,-3.83,-3.8083,-3.8269,-3.8236,-3.8083,-3.8287,-3.8401,-3.8462,-3.8462,-3.8528,-3.8609,-3.8609,0.0,0.0,0.0,-3.8707,-3.8707,-3.8707,-3.9551,-4.0616,-4.1442,-4.2506,-4.3589,-4.4507,-4.4984,-4.5461,-4.6269,-4.6709,-4.7241,-4.8141,0.0,0.0,0.0,0.0,0.0,0.0,0.0,0.0,0.0,0.0,0.0,0.0,0.0,0.0,0.0,0.0,-4.8804,-4.8839,-4.8874,-4.8909,-4.8909,-4.8909,-4.8909,-4.8909,-4.8909,-4.8909,-4.8909,-4.8909,-4.8667,-4.824,-4.824,-4.824,-4.824,-4.824,-4.7776,-4.7033,-4.7033,-4.6828,-4.6494,-4.6494,-4.6494,-4.6471,-4.6125,-4.6238,-4.6525,0.0,0.0,0.0,0.0,0.0,0.0,0.0,0.0,0.0,0.0,0.0,-4.2901,-4.2901,0.0,0.0,0.0,-4.185,-4.0727,-3.9188,-3.8585,-3.8274,-3.8274,-3.8322,-3.8352,-3.8352,-3.8352,-3.8352,-3.8385,-3.8415,-3.843,-3.8399,-3.8316,-3.83,-3.83,-3.8234,-3.8219,-3.8219,-3.8083,-3.81,-3.8219,-3.8083,-3.7861,-3.7614,-3.7844,-3.7792,-3.7632,-3.7984,-3.817,-3.8265,-3.8382,-3.8499,-3.8596,-3.8627,-3.8643,0.0,0.0,0.0,-3.8707,-3.8707,-3.9294,-4.0029,-4.0653,-4.1552,-4.2616,-4.3828,-4.425,-4.4617,0.0,-4.5608,-4.603,0.0,0.0,0.0,0.0,0.0,0.0,0.0,0.0,0.0,0.0,0.0,0.0,0.0,0.0,0.0,0.0,0.0,-4.8733,-4.8751,-4.8821,-4.8874,-4.8874,-4.8891,-4.8909,-4.8909,-4.8909,-4.8797,-4.8612,-4.8612,-4.8166,-4.7404,-4.7404,-4.7274,-4.7107,-4.7311,-4.694,-4.6197,-4.6197,-4.6067,-4.5862,-4.5862,-4.5862,-4.5818,-4.545,-4.5464,-4.5646,0.0,0.0,0.0,0.0,0.0,0.0,0.0,0.0,0.0,0.0,0.0,-4.2901,-4.2901,-4.2901,-4.2592,-4.1831,-4.1035,-3.9912,-3.8372,-3.8227,-3.8209,-3.8209,-3.8209,0.0,-3.8225,-3.8225,-3.8241,-3.8307,-3.8307,-3.8338,-3.8382,-3.7949,-3.7739,-3.7739,-3.7739,-3.7739,-3.7721,-3.7266,-3.7339,-3.7703,-3.7247,-3.7018,-3.6958,-3.6958,-3.6958,-3.6997,-3.7414,-3.7542,-3.7614,-3.8071,-3.8257,-3.8322,-3.8401,-3.8462,-3.8544,0.0,0.0,0.0,-3.8707,-3.9294,-3.9916,-3.9937,-4.113,-4.2323,-4.2415,0.0,-4.3791,-4.4599,-4.4746,-4.5021,0.0,0.0,0.0,0.0,0.0,0.0,0.0,0.0,0.0,0.0,0.0,0.0,0.0,0.0,0.0,0.0,0.0,-4.8532,-4.8624,-4.8732,-4.8804,-4.8804,-4.8856,-4.8909,-4.8909,-4.8909,-4.8519,-4.7757,-4.7757,-4.7348,-4.655,-4.655,-4.6141,-4.5472,-4.6234,-4.6104,-4.5361,-4.5361,-4.4878,-4.4135,-4.4135,-4.4135,-4.4163,-4.4364,-4.4629,-4.4881,0.0,0.0,0.0,0.0,0.0,0.0,0.0,0.0,0.0,0.0,0.0,0.0,0.0,-4.1196,-4.1252,-4.0945,-4.0238,-3.9333,-3.8281,-3.8209,-3.8209,-3.8209,-3.8209,-3.8209,-3.8209,-3.7897,-3.7792,-3.7897,-3.7897,-3.7774,-3.7506,-3.765,-3.7375,-3.6799,-3.7073,-3.7188,-3.7188,-3.7017,-3.7036,-3.717,-3.7017,-3.6761,-3.6536,-3.6801,-3.6739,-3.6626,-3.7503,-3.754,-3.728,-3.7927,-3.8079,-3.7965,-3.8016,-3.8032,-3.8065,-3.8167,-3.8183,-3.8267,-3.8611,-3.8909,-3.9239,-3.9772,-4.0322,-4.0891,-4.1423,-4.2158,-4.2818,-4.3112,-4.3571,0.0,0.0,0.0,0.0,0.0,0.0,0.0,0.0,0.0,0.0,0.0,0.0,0.0,0.0,0.0,0.0,0.0,0.0,0.0,-4.7721,-4.7848,-4.8178,-4.8768,-4.8322,-4.7836,-4.7367,-4.7367,-4.7218,-4.6921,-4.6921,-4.6513,-4.5732,-4.5732,-4.5268,-4.4488,-4.4766,-4.4729,-4.4469,-4.4469,-4.4283,-4.4005,-4.4005,-4.4005,-4.4033,-4.4289,-4.4572,-4.4837,0.0,0.0,0.0,-4.1271,0.0,-4.1126,-4.0813,-4.0348,-4.0032,-4.0032,0.0,0.0,0.0,0.0,-3.9981,-3.9712,-3.8994,-3.8331,-3.7793,-3.7757,-3.7757,-3.7757,-3.7757,-3.7757,-3.7757,-3.7468,-3.7339,-3.7431,-3.7431,-3.7265,-3.698,-3.715,-3.6898,-3.6301,-3.6412,-3.6539,-3.6698,-3.6519,-3.6539,-3.6681,-3.6519,-3.6308,-3.6105,-3.6665,-3.6705,-3.6577,-3.7474,-3.7504,-3.7204,-3.7569,-3.7598,-3.7506,-3.7506,-3.756,-3.7614,-3.7649,-3.7667,-3.7755,-3.8117,-3.8334,-3.8577,-3.9138,-3.9601,-4.0029,-4.0579,-4.1332,-4.1901,-4.1901,-4.2543,0.0,0.0,0.0,0.0,0.0,0.0,0.0,0.0,0.0,0.0,0.0,0.0,0.0,0.0,0.0,0.0,0.0,0.0,0.0,-4.6783,-4.6765,-4.7113,-4.7935,-4.7311,-4.681,-4.6494,-4.6494,-4.6364,-4.6104,-4.6104,-4.5658,-4.4859,-4.4859,-4.4544,-4.4005,-4.4005,-4.4005,-4.4005,-4.4005,-4.4005,-4.4005,-4.4005,-4.4005,-4.4033,-4.4289,-4.4572,-4.4837,-3.9362,-3.9297,-3.9297,-3.9276,-3.9276,-3.9276,-3.9255,-3.9238,-3.922,-3.922,0.0,0.0,0.0,0.0,0.0,-3.8134,-3.7358,-3.69,-3.69,-3.69,-3.69,-3.69,-3.69,-3.69,-3.69,-3.688,-3.688,-3.688,-3.688,-3.688,-3.686,-3.6471,-3.6301,-3.6259,-3.5805,-3.5849,-3.6259,-3.5783,-3.5849,-3.6237,-3.5817,-3.5633,-3.5718,-3.6518,-3.6829,-3.6898,-3.7293,-3.7417,-3.7344,-3.7036,-3.6895,-3.69,-3.696,-3.7058,-3.7154,-3.719,-3.719,-3.7192,0.0,0.0,0.0,-3.805,-3.8984,-3.9848,-3.9848,-4.0471,-4.1058,-4.1058,-4.1699,0.0,0.0,0.0,0.0,0.0,0.0,0.0,0.0,0.0,0.0,0.0,0.0,0.0,0.0,0.0,0.0,0.0,0.0,-4.4903,-4.5792,-4.5586,-4.5681,-4.6234,-4.5864,-4.5918,-4.642,-4.642,-4.603,-4.5249,-4.5249,-4.4822,-4.4005,-4.4005,-4.4005,-4.4005,-4.4005,-4.4005,-4.4005,-4.4005,-4.4005,-4.4005,-4.4005,-4.4005,-4.4033,-4.4289,-4.4572,-4.4837,-3.9212,-3.9297,-3.9193,-3.8851,-3.8786,-3.8693,-3.8345,-3.7837,-3.7501,0.0,0.0,0.0,-3.7134,-3.7388,-3.7481,-3.7251,-3.7023,-3.69,-3.69,-3.69,-3.69,-3.69,-3.69,-3.69,-3.69,-3.6618,-3.6471,-3.6471,-3.6471,-3.6305,-3.5963,-3.6178,-3.611,-3.5783,-3.5667,-3.5667,-3.58,-3.5667,-3.5672,-3.5834,-3.6299,-3.6451,-3.6535,-3.7313,-3.7601,-3.7692,-3.8343,-3.788,-3.7036,-3.7473,-3.7106,-3.6471,-3.6474,-3.6516,-3.6557,-3.662,-3.6623,-3.6724,-3.7174,0.0,0.0,0.0,0.0,0.0,-3.8596,-3.9449,-4.023,-4.023,-4.0873,0.0,0.0,0.0,0.0,0.0,0.0,0.0,0.0,0.0,0.0,0.0,0.0,0.0,0.0,0.0,0.0,0.0,-4.2985,-4.3376,-4.454,-4.5443,-4.5698,-4.5231,-4.5197,-4.499,-4.4554,-4.4601,-4.4503,-4.4281,-4.4345,-4.4228,-4.4005,-4.4005,-4.4005,-4.4005,-4.4005,-4.4005,-4.4005,-4.4005,-4.4005,-4.4005,-4.4005,-4.4005,-4.4033,-4.4289,-4.4572,-4.4837,-3.7702,-3.7767,-3.7681,-3.7391,-3.7346,-3.7274,-3.6965,-3.6586,-3.6299,0.0,0.0,0.0,-3.6002,-3.6203,-3.6354,-3.6354,-3.6354,-3.6354,-3.6354,-3.6354,-3.6354,-3.6354,-3.6354,-3.6354,-3.6354,-3.6135,-3.6002,-3.6002,-3.6002,-3.5871,-3.56,-3.5871,-3.5849,-3.56,-3.56,-3.56,-3.56,-3.56,-3.5785,-3.6113,-3.6248,-3.6485,-3.688,-3.7618,-3.7905,-3.8007,-3.8734,-3.8454,-3.7692,-3.7499,-3.6803,-3.6002,-3.6002,-3.6002,-3.6023,-3.6054,-3.6071,-3.6161,-3.6545,-3.6805,-3.6944,-3.7133,0.0,0.0,-3.7844,-3.8394,-3.896,0.0,-3.9647,0.0,0.0,0.0,0.0,0.0,0.0,0.0,0.0,0.0,0.0,0.0,0.0,0.0,0.0,0.0,0.0,-4.2198,-4.1842,-4.214,-4.324,-4.4233,-4.4619,-4.4316,-4.4211,-4.4061,-4.3788,-4.3835,-4.3883,-4.3897,-4.3945,-4.3974,-4.4005,-4.4005,-4.4005,-4.4005,-4.4005,-4.4005,-4.4005,-4.4005,-4.4005,-4.4005,-4.4005,-4.4005,-4.4036,-4.4181,-4.4465,-4.4812,0.0,-3.56,-3.56,-3.56,-3.56,-3.56,-3.56,-3.56,-3.56,0.0,-3.56,-3.56,-3.56,-3.56,-3.56,-3.56,-3.56,-3.56,-3.56,-3.56,-3.56,-3.56,-3.56,-3.56,-3.56,-3.56,-3.56,-3.56,-3.56,-3.56,-3.56,-3.56,-3.56,-3.56,-3.56,-3.56,-3.56,-3.56,-3.6062,-3.6745,-3.6113,-3.6332,-3.7134,-3.7855,-3.8142,-3.8227,-3.8886,-3.9056,-3.8768,-3.7303,-3.6315,-3.5718,-3.5616,-3.56,-3.56,-3.56,-3.56,-3.5622,-3.5773,-3.6067,-3.6374,-3.6565,-3.6925,0.0,-3.7377,-3.7379,-3.7488,-3.7929,-3.8241,0.0,0.0,0.0,0.0,0.0,0.0,0.0,0.0,0.0,0.0,0.0,0.0,0.0,-4.2279,-4.2157,-4.2115,-4.2115,-4.1396,-4.1346,-4.2175,-4.2653,-4.3087,-4.3513,-4.3232,-4.3285,-4.3771,-4.3771,-4.3802,-4.3865,-4.3881,-4.3913,-4.3974,-4.3989,-4.3989,-4.3989,-4.4005,-4.4005,-4.4005,-4.4005,-4.4005,-4.4005,-4.4005,-4.4005,-4.4005,-4.4005,-4.4322,-4.4751,-3.5622,-3.56,-3.56,-3.56,-3.56,-3.56,-3.56,-3.56,-3.56,-3.56,-3.56,-3.56,-3.56,-3.56,-3.56,-3.56,-3.56,-3.56,-3.56,-3.56,-3.56,-3.56,-3.56,-3.56,-3.56,-3.56,-3.56,-3.56,-3.56,-3.56,-3.56,-3.56,-3.56,-3.56,-3.56,-3.56,-3.56,-3.56,-3.6062,-3.6846,-3.728,-3.7905,-3.8633,-3.9402,-3.9673,-3.9706,-3.9842,-3.9503,-3.8768,-3.7303,-3.6711,-3.6451,0.0,0.0,0.0,-3.56,0.0,-3.5622,-3.5773,-3.5861,0.0,0.0,-3.6437,0.0,-3.6781,-3.6601,-3.6631,0.0,-3.7131,0.0,0.0,0.0,0.0,0.0,0.0,0.0,0.0,0.0,0.0,0.0,0.0,0.0,0.0,-4.1864,-4.1626,-4.1626,-4.149,-4.1604,-4.2157,-4.2653,-4.2939,-4.3032,-4.3268,-4.3444,-4.3549,-4.3617,-4.3651,-4.3649,-4.3769,-4.3837,-4.3835,-4.3881,-4.3913,-4.3929,-4.3974,-4.4005,-4.4005,-4.4005,-4.4005,-4.4005,-4.4005,-4.4005,-4.4005,-4.4005,-4.4192,-4.4506,-3.56,-3.56,-3.56,-3.56,-3.56,-3.56,-3.56,-3.56,-3.56,-3.56,-3.56,-3.56,-3.56,-3.56,-3.56,-3.56,-3.56,-3.56,-3.56,-3.56,-3.56,-3.56,-3.56,-3.56,-3.56,-3.56,-3.56,-3.56,-3.56,-3.56,-3.56,-3.56,-3.56,-3.56,-3.56,-3.56,-3.56,-3.56,-3.6062,-3.6829,-3.7195,-3.7787,-3.8531,-3.9259,-3.9554,-3.9605,-3.9977,-3.9639,-3.8886,-3.8142,-3.7422,0.0,-3.6315,-3.5926,-3.56,0.0,-3.56,-3.5622,0.0,0.0,0.0,-3.5883,0.0,0.0,0.0,-3.5665,-3.5607,-3.5763,-3.5463,-3.5396,-3.615,0.0,0.0,0.0,0.0,0.0,0.0,0.0,0.0,0.0,0.0,0.0,0.0,-4.0393,-4.0324,-4.0065,-4.0263,-4.0676,-4.1279,-4.1745,-4.2276,-4.2882,-4.3105,-4.3304,-4.3515,-4.3531,-4.3565,-4.3599,-4.3667,-4.3736,-4.3804,-4.3867,-4.3897,-4.3897,-4.3958,-4.4005,-4.4005,-4.4005,-4.4005,-4.4005,-4.4005,-4.4005,-4.4005,-4.4005,-4.4181,-4.4425,-3.56,-3.56,-3.56,-3.56,-3.56,-3.56,-3.56,-3.56,-3.56,-3.56,-3.56,-3.5605,-3.5649,-3.5616,-3.5605,-3.5649,-3.5616,-3.56,-3.56,-3.56,-3.56,-3.56,-3.56,-3.56,-3.56,-3.56,-3.56,-3.56,-3.56,-3.56,-3.56,-3.56,-3.56,-3.56,-3.56,-3.56,-3.56,-3.56,-3.6062,-3.6812,-3.6965,-3.7449,-3.8193,-3.892,-3.9208,-3.9276,-3.9893,-3.9723,-3.9174,-3.9039,-3.8108,-3.6998,-3.6846,-3.6248,0.0,0.0,0.0,0.0,0.0,0.0,0.0,0.0,0.0,-3.5591,0.0,0.0,0.0,0.0,0.0,0.0,0.0,0.0,0.0,0.0,0.0,0.0,0.0,0.0,0.0,0.0,0.0,0.0,0.0,-3.908,-3.9101,-3.8639,-3.8951,-3.9427,-4.0018,-4.0501,-4.1298,-4.2515,-4.2628,-4.2941,-4.3479,-4.3515,-4.3532,-4.3582,-4.3582,-4.3634,-4.3754,-4.3835,-4.3883,-4.3899,-4.3976,-4.4005,-4.4005,-4.4005,-4.4005,-4.4005,-4.4005,-4.4005,-4.4005,-4.4005,-4.4136,-4.436,-3.56,-3.56,-3.56,-3.56,-3.56,-3.56,-3.56,-3.56,-3.56,-3.56,-3.56,-3.5671,-3.585,-3.5713,-3.5671,-3.5842,-3.5696,-3.56,-3.56,-3.56,-3.56,-3.56,-3.56,-3.56,-3.56,-3.56,-3.56,-3.56,-3.56,-3.56,-3.56,-3.56,-3.56,-3.56,-3.56,-3.56,-3.56,-3.56,-3.6062,-3.6863,-3.7499,-3.8227,0.0,-3.9706,-3.9977,-3.9994,-4.0079,-4.0045,-3.9893,0.0,-3.8447,-3.7669,0.0,-3.6248,-3.56,-3.56,0.0,0.0,0.0,0.0,0.0,0.0,-3.5622,0.0,0.0,0.0,-3.3734,-3.369,0.0,0.0,0.0,0.0,0.0,0.0,0.0,0.0,0.0,0.0,0.0,0.0,0.0,0.0,0.0,0.0,-3.9101,-3.8639,-3.8661,-3.8718,-3.8805,-3.9245,-4.0055,-4.128,-4.1647,-4.2359,-4.3479,-4.3515,-4.3496,-4.3515,-4.3515,-4.3532,-4.3549,-4.3719,-4.382,-4.382,-4.3945,-4.4005,-4.4005,-4.4005,-4.4005,-4.4005,-4.4005,-4.4005,-4.4005,-4.4005,-4.4036,-4.4094,-3.547,-3.56,-3.56,-3.56,-3.56,-3.56,-3.56,-3.5333,-3.5021,-3.4697,-3.4673,-3.4994,-3.5852,-3.5184,-3.5176,-3.6439,-3.5754,-3.544,-3.5861,-3.5824,-3.5959,-3.64,-3.5896,-3.5802,-3.6282,-3.5836,-3.56,-3.56,-3.56,-3.56,-3.56,-3.56,-3.56,-3.56,-3.527,-3.5131,-3.5131,-3.5131,-3.5589,-3.6406,-3.7093,-3.7828,0.0,-3.9682,-4.0096,-4.0096,-4.0096,-4.0096,-4.0045,0.0,-3.914,0.0,0.0,0.0,0.0,-3.5735,0.0,0.0,0.0,0.0,0.0,0.0,0.0,0.0,-3.4134,0.0,-3.3232,0.0,0.0,0.0,0.0,0.0,0.0,0.0,-3.3805,0.0,0.0,0.0,0.0,0.0,0.0,0.0,0.0,0.0,0.0,0.0,0.0,-3.7456,-3.7944,-3.8157,-3.8807,-4.0038,-4.0219,-4.1007,-4.2431,-4.2467,-4.2811,-4.3515,-4.3515,-4.3515,-4.3496,-4.3617,-4.3684,-4.3684,-4.3865,-4.3945,-4.3926,-4.3989,-4.4005,-4.4005,-4.4005,-4.4005,-4.4005,-4.4005,-4.4005,-4.4033,-3.4998,-3.527,-3.5379,-3.5379,-3.5379,-3.5316,-3.5178,-3.4816,-3.4431,-3.4061,-3.4011,-3.4468,-3.5675,-3.4876,-3.4971,-3.6669,-3.589,-3.5538,-3.6045,-3.582,-3.5983,-3.6706,-3.5907,-3.5723,-3.6322,-3.5746,-3.5338,-3.5155,-3.5155,-3.5155,-3.5155,-3.5155,-3.5155,-3.5138,-3.4745,-3.4577,-3.4577,-3.4577,-3.5144,-3.6091,-3.6576,-3.7334,-3.8259,-3.9228,-3.9601,-3.9601,-3.9601,-3.9601,-3.9627,-3.9799,-3.9362,0.0,-3.8077,0.0,-3.6643,0.0,0.0,0.0,-3.56,0.0,0.0,0.0,0.0,0.0,0.0,0.0,0.0,0.0,0.0,0.0,0.0,0.0,0.0,0.0,0.0,-3.3301,0.0,0.0,0.0,0.0,0.0,0.0,0.0,0.0,0.0,0.0,0.0,0.0,-3.715,-3.7163,-3.7727,-3.8922,-3.8957,-3.9738,-4.1361,-4.1361,-4.1994,-4.3167,-4.3167,-4.3277,-4.3496,-4.3565,-4.3599,-4.3599,-4.3783,-4.3883,-4.3897,-4.3942,-4.3974,-4.4005,-4.4005,-4.4005,-4.4005,-4.4005,-4.4005,-4.4036,-3.4045,-3.448,-3.4833,-3.4833,-3.4833,-3.4649,-3.4136,-3.4036,-3.4036,-3.4011,-3.4011,-3.434,-3.5225,-3.5107,-3.5342,-3.6229,-3.6165,-3.6061,-3.6093,-3.5435,-3.5354,-3.6088,-3.5435,-3.5072,-3.5156,-3.5082,-3.4683,-3.4061,-3.4061,-3.4061,-3.4061,-3.4061,-3.4061,-3.4061,-3.4036,-3.4036,-3.4036,-3.4036,-3.4845,-3.6184,-3.6216,-3.7042,-3.8302,0.0,-3.8362,-3.8362,-3.8362,0.0,0.0,-3.9028,-3.8735,0.0,0.0,0.0,0.0,0.0,0.0,0.0,0.0,0.0,0.0,-3.56,0.0,0.0,0.0,0.0,-3.3186,0.0,0.0,0.0,0.0,0.0,0.0,-3.1349,0.0,0.0,0.0,0.0,0.0,0.0,0.0,0.0,0.0,0.0,0.0,0.0,0.0,0.0,-3.6335,-3.6335,-3.6894,-3.8101,-3.8134,-3.8901,-4.0528,-4.0528,-4.1139,-4.2341,-4.2341,-4.2745,-4.3496,-4.3565,-4.3599,-4.3599,-4.3736,-4.3835,-4.3897,-4.3897,-4.3945,-4.4005,-4.4005,-4.4005,-4.4005,-4.4005,-4.4005,-4.4005,-3.3407,-3.3624,-3.3853,-3.421,-3.4284,-3.4095,-3.3547,-3.3485,-3.3488,-3.3603,-3.3611,-3.4399,-3.6472,-3.5873,-3.6158,-3.8178,-3.7539,-3.7042,-3.7042,-3.6722,-3.6651,-3.695,-3.6178,-3.5764,-3.5833,-3.5289,-3.4665,-3.4011,-3.4011,-3.4011,-3.4011,-3.4011,-3.4011,-3.3969,-3.364,-3.3485,-3.3517,-3.3953,-3.4744,-3.5744,0.0,-3.7033,-3.7193,0.0,0.0,-3.8306,-3.8306,-3.8306,0.0,-3.8546,-3.8438,-3.8139,-3.7597,-3.7272,-3.6906,-3.604,-3.5787,0.0,0.0,0.0,-3.5068,-3.5068,0.0,0.0,0.0,0.0,0.0,0.0,0.0,0.0,0.0,0.0,-3.1252,-3.1295,-3.1353,0.0,0.0,0.0,0.0,0.0,0.0,0.0,0.0,0.0,0.0,0.0,0.0,0.0,0.0,-3.6301,-3.6488,-3.6898,-3.7163,-3.795,-3.93,-3.9571,-4.0575,-4.2304,-4.2304,-4.2708,-4.3515,-4.3513,-4.3531,-4.3549,-4.3634,-4.3684,-4.3699,-4.3849,-4.3913,-4.3945,-4.3974,-4.4005,-4.4005,-4.4005,-4.4005,-4.4005,-3.2841,-3.2922,-3.3066,-3.3614,-3.3563,-3.3303,-3.2975,-3.3126,-3.3318,-3.3393,-3.3829,-3.4914,-3.6871,-3.6553,-3.6987,-3.892,-3.8335,-3.7861,-3.7861,-3.7546,0.0,-3.7433,-3.6674,-3.6158,0.0,-3.5204,-3.4489,-3.3789,-3.3534,-3.3423,-3.3423,-3.3423,-3.3423,-3.3423,-3.3066,-3.2922,-3.2969,-3.3631,-3.4379,0.0,0.0,-3.6846,0.0,0.0,-3.7663,-3.7663,0.0,-3.7663,-3.7693,-3.7895,-3.7982,-3.7898,-3.7358,-3.7203,-3.7059,-3.6214,-3.5792,-3.5481,-3.4988,-3.4701,0.0,-3.4529,-3.4529,0.0,-3.4582,0.0,0.0,0.0,0.0,0.0,0.0,0.0,0.0,-3.1041,-3.1179,0.0,0.0,-3.1559,0.0,0.0,0.0,0.0,0.0,0.0,0.0,0.0,0.0,0.0,0.0,0.0,-3.6301,-3.6301,-3.6536,-3.7187,-3.8255,-3.8528,-3.9728,-4.1882,-4.1882,-4.2433,-4.3515,-4.3515,-4.3515,-4.3496,-4.3566,-4.3565,-4.3599,-4.3751,-4.3816,-4.3867,-4.3945,-4.3958,-4.3958,-4.3989,-4.4005,-4.4005,-3.2398,-3.2398,-3.2574,-3.3066,-3.2749,-3.2398,-3.2444,-3.2982,-3.3429,-3.349,-3.4691,-3.5829,-3.6507,-3.72,-3.7877,-3.8554,-3.8616,-3.86,-3.8554,-3.7954,0.0,0.0,-3.6907,-3.623,-3.5568,0.0,0.0,0.0,0.0,-3.2336,-3.2336,-3.2336,-3.2367,-3.2398,-3.2398,-3.2398,-3.2444,-3.3152,-3.3891,-3.472,-3.5984,-3.6492,-3.6492,-3.6492,-3.6492,-3.6492,-3.6492,-3.6492,-3.6585,-3.7148,-3.7358,-3.732,-3.7211,-3.7169,-3.7024,-3.6325,-3.5614,-3.5033,-3.4975,-3.45,-3.3993,-3.396,0.0,0.0,0.0,0.0,-3.3687,0.0,0.0,0.0,0.0,0.0,0.0,-3.0617,-3.0945,-3.1332,0.0,0.0,0.0,0.0,0.0,0.0,0.0,0.0,0.0,0.0,0.0,0.0,0.0,0.0,-3.6301,-3.6301,-3.6322,-3.6719,-3.7487,-3.7523,-3.8724,-4.1095,-4.1095,-4.1937,-4.3515,-4.3515,-4.3515,-4.3515,-4.3515,-4.3549,-4.3599,-4.3599,-4.3667,-4.3804,-4.3867,-4.3915,-4.3897,-4.3974,-4.4005,-4.4005,-3.2398,-3.2398,-3.2437,-3.2574,-3.2492,-3.2567,-3.3059,0.0,-3.3783,-3.4814,-3.5707,-3.6676,-3.7861,-3.86,-3.9244,-3.992,-3.9982,0.0,0.0,0.0,0.0,-3.8277,-3.76,-3.6923,-3.6245,-3.5106,-3.3904,-3.2659,0.0,-3.1643,-3.1643,-3.1643,-3.1905,-3.2398,-3.2398,-3.2398,-3.2475,-3.369,-3.4905,-3.603,-3.6353,-3.6492,0.0,0.0,-3.6492,-3.6492,-3.6492,-3.6492,-3.6523,-3.6693,-3.6723,-3.6723,-3.6689,-3.6687,-3.6637,-3.6324,-3.6118,-3.5737,-3.4673,-3.4287,-3.4033,-3.3534,-3.3407,-3.3563,0.0,0.0,0.0,0.0,0.0,0.0,0.0,0.0,0.0,0.0,-3.1134,0.0,0.0,0.0,0.0,-3.1519,0.0,0.0,0.0,0.0,0.0,0.0,0.0,0.0,0.0,0.0,0.0,-3.6301,-3.6577,-3.6997,-3.7505,-3.7809,-3.9001,-4.1095,-4.1095,-4.1937,-4.3515,-4.3515,-4.3515,-4.3515,-4.3515,-4.3515,-4.3513,-4.3582,-4.3615,-4.3667,-4.3786,-4.3851,-4.3897,-4.3974,-4.4005,-4.4005,-3.2398,-3.2628,-3.2844,-3.2844,-3.309,0.0,-3.3398,-3.4168,0.0,-3.5814,-3.703,0.0,-3.8862,-3.9521,-4.0074,-4.0459,-4.0489,0.0,-3.9951,0.0,0.0,-3.8985,-3.8585,-3.7923,-3.6953,-3.5891,0.0,-3.3334,0.0,-3.1828,-3.184,-3.1547,-3.1751,-3.2398,-3.2398,-3.2398,-3.249,-3.3904,-3.5275,-3.6492,-3.6492,-3.6492,0.0,-3.6492,-3.6492,-3.6492,-3.6492,-3.6492,-3.6492,-3.6492,-3.6492,-3.6492,-3.6492,-3.6492,-3.6477,-3.6394,-3.6187,-3.5781,-3.4969,-3.4532,-3.417,-3.3466,-3.3295,-3.3336,-3.3601,-3.3665,-3.3528,0.0,0.0,0.0,0.0,0.0,0.0,0.0,0.0,0.0,0.0,0.0,0.0,0.0,-3.1483,0.0,0.0,0.0,0.0,0.0,0.0,0.0,0.0,0.0,0.0,-3.6301,-3.6533,-3.6821,-3.7228,-3.7632,-3.8847,-4.0842,-4.1011,-4.1937,-4.3515,-4.3515,-4.3515,-4.3515,-4.3515,-4.3515,-4.3496,-4.3531,-4.3548,-4.3583,-4.3667,-4.3802,-4.3897,-4.3945,-4.3974,-4.4005,-3.2505,-3.3075,-3.3567,-3.366,-3.4198,0.0,0.0,-3.5399,0.0,-3.6738,0.0,-3.949,-3.949,-4.009,-4.0489,-4.0489,0.0,-4.0489,-4.0489,-4.0489,-4.0228,-3.9644,-3.9536,-3.8923,-3.7661,-3.6892,-3.583,0.0,0.0,-3.2398,-3.2382,-3.1705,-3.1751,-3.2398,-3.2398,-3.249,-3.2752,-3.4073,-3.5367,-3.6492,-3.6492,-3.6492,-3.6492,-3.646,-3.6492,-3.6492,-3.646,-3.6492,-3.6492,-3.6492,-3.6492,-3.6492,-3.6492,-3.6492,-3.6492,-3.6492,-3.6076,-3.5629,-3.5537,-3.5075,-3.4474,-3.3721,-3.3475,-3.337,-3.3269,-3.3156,-3.3093,-3.3093,-3.2965,-3.2545,0.0,0.0,0.0,0.0,0.0,0.0,0.0,0.0,0.0,0.0,0.0,0.0,0.0,0.0,0.0,0.0,0.0,0.0,0.0,0.0,0.0,-3.6301,-3.6301,0.0,-3.69,0.0,-3.8456,-4.0491,-4.0859,-4.1887,-4.3515,-4.3515,-4.3515,-4.3515,-4.3515,-4.3515,-4.3515,-4.3515,-4.3515,-4.3515,-4.3565,-4.3718,-4.3865,-4.3881,-4.3945,-4.3989,-3.3121,-3.3798,-3.4489,-3.5059,-3.526,-3.5645,-3.663,-3.6615,-3.6892,-3.8,-3.8954,-3.949,-3.949,-4.009,-4.0489,-4.0489,-4.0489,0.0,0.0,0.0,0.0,-4.032,-3.9782,-3.9139,-3.8354,-3.7123,-3.583,0.0,0.0,0.0,-3.2382,-3.1705,-3.1751,-3.2398,-3.2398,-3.3057,-3.4181,-3.4998,0.0,-3.6492,-3.6492,-3.6492,-3.6492,-3.6305,-3.6352,-3.6492,-3.6305,-3.6352,-3.6492,-3.6492,-3.6492,-3.6492,-3.6492,-3.6492,-3.6492,-3.6492,-3.6415,-3.6184,-3.566,-3.5429,-3.5167,-3.4489,-3.3844,-3.3396,-3.3385,-3.2949,-3.2547,-3.2547,-3.2493,-3.2364,-3.204,0.0,0.0,0.0,0.0,0.0,0.0,0.0,0.0,0.0,0.0,-3.1556,0.0,0.0,0.0,0.0,0.0,0.0,0.0,0.0,0.0,0.0,0.0,0.0,0.0,0.0,-3.8178,-4.0491,-4.058,-4.1628,-4.3515,-4.3515,-4.3515,-4.3515,-4.3515,-4.3515,-4.3515,-4.3515,-4.3515,-4.3515,-4.3565,-4.3615,-4.3666,-4.3832,-4.3897,-4.3929,-3.3919,-3.4551,-3.5136,-3.5444,0.0,0.0,0.0,-3.8046,-3.8292,-3.8921,-3.9582,-4.0013,-4.0013,-4.0305,-4.0489,-4.0489,-4.0489,-4.0489,-4.0489,-4.0489,-4.0489,-4.0489,-4.0182,-3.9521,-3.8539,-3.7877,-3.6707,-3.5028,0.0,0.0,-3.2906,-3.2228,-3.2074,-3.2413,-3.2752,-3.3506,0.0,0.0,0.0,-3.6352,-3.6352,-3.6289,-3.6226,-3.6116,-3.6163,-3.6226,-3.6211,-3.6274,-3.6352,-3.646,-3.6492,-3.6492,-3.6492,-3.6492,-3.6492,-3.6492,-3.6492,-3.6415,-3.6107,-3.603,-3.5845,-3.5198,-3.4737,-3.4291,-3.3567,-3.3152,-3.2813,-3.2459,-3.2398,-3.2346,-3.2133,-3.1759,0.0,0.0,0.0,0.0,0.0,0.0,-3.1007,0.0,0.0,0.0,0.0,0.0,0.0,0.0,0.0,0.0,0.0,0.0,0.0,0.0,0.0,0.0,0.0,0.0,0.0,-3.9878,-4.0311,-4.1451,-4.3196,-4.3392,-4.3515,-4.3515,-4.3515,-4.3515,-4.3515,-4.3515,-4.3515,-4.3496,-4.3549,-4.3565,-4.3599,-4.3718,-4.3783,-4.3867,-3.5121,-3.5568,-3.5953,0.0,-3.6892,0.0,-3.86,-3.9136,-3.9536,-3.9674,-4.0166,-4.0489,-4.0489,-4.0489,-4.0489,-4.0489,-4.0489,-4.0489,-4.0489,-4.0489,-4.0489,-4.0489,-4.0489,-3.992,-3.8754,-3.8585,-3.7646,0.0,0.0,0.0,0.0,-3.2921,0.0,0.0,0.0,0.0,0.0,0.0,-3.583,-3.6148,-3.6148,-3.6085,-3.6005,-3.5941,-3.5973,-3.6005,-3.6085,-3.6101,-3.6179,-3.6383,-3.646,-3.6492,-3.6492,-3.6492,-3.6492,-3.6492,-3.6492,-3.6492,-3.6492,-3.6492,-3.6368,-3.583,-3.5614,-3.5153,-3.3921,-3.3506,-3.3213,-3.2536,-3.2398,-3.2365,-3.2207,-3.2065,0.0,0.0,0.0,0.0,0.0,0.0,0.0,0.0,0.0,0.0,-3.1857,0.0,0.0,0.0,0.0,0.0,0.0,0.0,0.0,0.0,0.0,-3.6301,-3.6301,0.0,-3.7784,0.0,-4.0097,-4.1322,-4.2901,-4.3232,-4.341,-4.3515,-4.3515,-4.3515,-4.3515,-4.3515,-4.3515,-4.3515,-4.3515,-4.3531,-4.3582,-4.3582,-4.3667,-4.3769,0.0,-3.7277,0.0,0.0,0.0,0.0,-3.9198,-3.9444,-3.9705,-4.032,-4.0459,-4.0489,-4.0489,-4.0489,-4.0489,-4.0489,-4.0489,-4.0489,-4.0489,-4.0489,-4.0489,-4.0489,-4.0489,-4.0151,-3.9413,-3.8831,-3.8123,0.0,0.0,-3.5075,0.0,0.0,0.0,0.0,0.0,0.0,0.0,-3.5719,-3.5976,-3.6037,-3.6037,-3.6005,-3.5973,-3.5799,-3.5831,-3.5973,-3.5831,-3.5863,-3.6037,-3.6179,-3.6352,-3.6492,-3.6492,-3.6492,-3.6492,-3.6492,-3.6492,-3.6492,-3.6492,-3.6492,-3.6476,-3.6415,-3.5938,-3.5321,-3.4582,-3.3875,-3.3213,-3.2536,-3.2398,-3.2394,-3.2388,-3.1879,-3.1458,0.0,0.0,0.0,0.0,0.0,-3.0837,-3.0228,0.0,0.0,0.0,-3.2601,0.0,0.0,0.0,0.0,0.0,0.0,0.0,-3.6301,0.0,-3.6301,-3.6301,-3.7051,0.0,-3.9308,-4.006,-4.1276,-4.2901,-4.2939,-4.316,-4.3515,-4.3515,-4.3515,-4.3515,-4.3515,-4.3515,-4.3515,-4.3515,-4.3496,-4.3532,-4.3565,-4.3599,-4.3651,0.0,0.0,0.0,0.0,0.0,0.0,0.0,-3.9828,-4.0197,-4.0459,-4.0489,-4.0489,-4.0489,-4.0489,-4.0489,-4.0489,-4.0489,-4.0489,-4.0489,-4.0489,-4.0489,-4.0489,-4.0489,-4.0182,-3.949,-3.8846,-3.8185,0.0,0.0,0.0,0.0,0.0,0.0,0.0,0.0,-3.5095,-3.511,-3.5748,-3.5941,-3.5831,-3.5831,-3.5782,-3.5683,-3.5604,-3.5636,-3.5701,-3.5703,-3.5752,-3.5863,-3.6022,-3.6195,-3.6352,-3.646,-3.6492,-3.6492,-3.6492,-3.6492,-3.6492,-3.6492,-3.6492,-3.6492,-3.6492,-3.6292,-3.5907,-3.526,-3.4582,-3.3844,-3.3152,-3.2675,-3.2398,-3.2398,-3.2167,-3.1982,0.0,0.0,0.0,0.0,0.0,0.0,-3.0363,0.0,-3.2218,0.0,0.0,0.0,0.0,0.0,0.0,0.0,0.0,0.0,-3.6301,0.0,-3.6301,-3.6301,-3.7116,-3.7962,-3.8903,-3.9913,-4.112,-4.2478,-4.2768,-4.3105,-4.3515,-4.3515,-4.3515,-4.3515,-4.3515,-4.3515,-4.3515,-4.3515,-4.3515,-4.3496,-4.3513,-4.3531,-4.3548,-3.897,0.0,-3.88,0.0,-3.92,-3.949,-3.949,-3.9956,-4.0246,-4.0246,-4.0106,-4.0126,-4.0455,-4.0489,-4.0489,-4.0489,-4.0489,-4.0489,-4.0489,-4.0489,-4.0489,-4.0489,-4.0489,0.0,-3.9782,-3.9154,-3.8477,-3.78,-3.7123,0.0,0.0,0.0,0.0,0.0,-3.4987,-3.5198,-3.5228,-3.5681,-3.575,-3.5638,-3.5638,-3.5572,-3.5504,-3.5504,-3.5504,-3.5504,-3.5604,-3.5638,-3.5671,-3.5831,-3.599,-3.6101,-3.6352,-3.646,-3.6492,-3.6492,-3.6492,-3.6492,-3.6492,-3.6492,-3.6492,-3.6492,-3.6492,-3.6307,-3.566,-3.5136,-3.4536,-3.3583,-3.2859,-3.2398,-3.2398,-3.2398,-3.2398,-3.2398,0.0,0.0,0.0,0.0,0.0,0.0,-3.1654,-3.2344,-3.2415,-3.3269,0.0,0.0,0.0,0.0,0.0,0.0,0.0,0.0,0.0,0.0,0.0,-3.7422,-3.818,-3.8945,-4.0043,-4.1116,-4.2218,-4.2807,-4.3232,-4.3515,-4.3515,-4.3515,-4.3515,-4.3515,-4.3515,-4.3515,-4.3515,-4.3515,-4.3515,-4.3515,-4.3515,-4.3515,-4.0336,-3.992,-3.9474,-3.9474,-3.9474,-3.949,-3.949,-3.961,-3.9717,-3.9717,-3.9199,-3.9256,-4.0385,-4.0489,-4.0489,-4.0489,-4.0489,-4.0489,-4.0489,-4.0489,-4.0489,0.0,0.0,-4.0489,-4.0489,-3.9813,-3.9136,-3.8492,0.0,0.0,-3.5202,0.0,-3.5002,-3.5002,-3.5481,-3.5672,-3.5672,-3.5554,-3.5504,-3.5504,-3.5504,-3.5504,-3.5504,-3.5504,-3.5504,-3.5504,-3.5504,-3.5504,-3.5522,-3.5671,-3.572,-3.5752,-3.6101,-3.6352,-3.6492,-3.6492,-3.6492,-3.6492,-3.6492,-3.6492,-3.6492,-3.6492,-3.6492,-3.6307,-3.566,-3.5506,-3.5076,-3.369,-3.2859,-3.2398,-3.2398,-3.2398,-3.2398,-3.2398,0.0,0.0,0.0,0.0,0.0,-3.1393,-3.1815,-3.2378,-3.3119,0.0,0.0,0.0,0.0,0.0,0.0,0.0,0.0,-3.6301,-3.6301,0.0,-3.7478,-3.8237,-3.8957,-3.9698,-4.0515,-4.1351,-4.2218,-4.3105,-4.3497,-4.3515,-4.3515,-4.3515,-4.3515,-4.3515,-4.3515,-4.3515,-4.3515,-4.3515,-4.3515,-4.3515,-4.3515,-4.3515,-4.0366,-4.032,-4.0166,-4.0166,-4.0166,-4.0063,-3.9681,-3.9652,-3.9538,-3.9126,-3.8943,-3.8929,-3.9292,-3.9328,-3.9523,0.0,-3.9595,-3.9328,0.0,-3.9753,-3.9965,-3.9965,-4.0316,-4.0489,-4.0489,-3.9828,-3.9382,-3.9167,0.0,0.0,0.0,-3.5545,-3.5481,-3.5481,-3.5546,-3.5572,-3.5554,-3.5537,-3.5504,-3.5504,-3.5504,-3.5504,-3.5504,-3.5504,-3.5504,-3.5504,-3.5504,-3.5504,-3.5504,-3.5554,-3.5621,-3.572,-3.5816,-3.6053,-3.6305,-3.6305,-3.6383,-3.6492,-3.6492,-3.6492,-3.6492,-3.6492,-3.6492,-3.643,-3.6215,-3.5845,-3.5091,-3.369,-3.3229,-3.2936,-3.2475,-3.2398,-3.2398,-3.2398,-3.2213,0.0,0.0,0.0,0.0,-3.1455,-3.1944,-3.2381,0.0,-3.3268,0.0,0.0,0.0,0.0,0.0,0.0,0.0,0.0,-3.6711,0.0,-3.7512,-3.8715,-3.9457,-3.9698,-4.0532,-4.1368,-4.2218,-4.2826,-4.325,-4.3515,-4.3515,-4.3515,-4.3515,-4.3515,-4.3515,-4.3515,-4.3515,-4.3515,-4.3515,-4.3515,-4.3515,-4.3588,-4.0413,-4.0489,-4.042,-4.0246,-4.0211,-4.0001,-3.9451,-3.9162,-3.8892,-3.8523,-3.8263,-3.8225,-3.8449,-3.8263,0.0,-3.9271,-3.9017,-3.8782,-3.8782,-3.9162,-3.9343,-3.9343,-3.9895,-4.0211,-4.0211,0.0,0.0,-3.9407,-3.8022,-3.6697,-3.5381,-3.5804,-3.5701,-3.5172,-3.5409,-3.5504,-3.5504,-3.5504,-3.5504,-3.5504,-3.5504,-3.5504,-3.5504,-3.5504,-3.5311,-3.5052,-3.5052,-3.4887,-3.4639,-3.4639,-3.4691,-3.4762,-3.4762,-3.496,-3.532,-3.6006,-3.6274,-3.6383,-3.6492,-3.6492,-3.6492,-3.6492,-3.6492,-3.6492,-3.6492,-3.5968,-3.523,-3.4368,-3.3767,-3.3275,-3.2844,-3.2567,-3.2398,-3.2398,-3.2398,-3.2244,-3.1828,0.0,0.0,0.0,0.0,0.0,0.0,-3.3188,0.0,0.0,0.0,0.0,0.0,0.0,0.0,-3.6512,-3.7041,0.0,-3.8234,-3.921,-3.9853,-4.017,-4.0799,-4.1418,-4.1948,-4.2418,-4.2864,-4.3268,-4.3268,-4.3357,-4.3515,-4.3515,-4.3515,-4.3515,-4.3515,-4.3515,-4.3551,-4.3828,-4.3956,-4.4066,-4.0489,-4.0455,0.0,0.0,-3.9661,0.0,-3.8819,-3.8263,-3.7886,-3.7848,-3.7366,-3.7211,-3.7772,-3.7327,-3.7429,-3.856,0.0,0.0,0.0,-3.8708,-3.8745,-3.8745,-3.9322,-3.9646,-3.9681,-4.0051,-3.989,-3.9104,-3.8171,-3.6541,-3.437,-3.58,-3.5743,-3.4477,-3.5266,-3.5609,-3.5579,-3.5579,-3.5549,-3.5504,-3.5504,-3.5504,-3.5504,-3.5504,-3.5019,-3.438,-3.4312,-3.3871,-3.3262,-3.3213,-3.3178,-3.3178,-3.3178,-3.3332,-3.3802,-3.5529,-3.6038,-3.607,-3.6242,-3.632,-3.632,-3.632,-3.6352,-3.6429,-3.6492,-3.603,-3.5568,-3.5521,-3.446,-3.3521,-3.3413,-3.289,-3.2444,-3.2398,-3.2398,-3.2398,-3.2398,0.0,0.0,0.0,0.0,0.0,0.0,-3.2895,-3.3449,0.0,0.0,0.0,0.0,0.0,-3.6315,-3.7149,-3.7352,-3.8105,-3.9489,-3.968,-4.0146,-4.0894,-4.1283,-4.1472,-4.1516,-4.1948,-4.2398,-4.2844,-4.2844,-4.3087,-4.3444,-4.3444,-4.3462,-4.3515,-4.3515,-4.3533,-4.3663,-4.4415,-4.4745,-4.4911,0.0,0.0,-3.9859,-3.9717,-3.9307,-3.8819,-3.8225,-3.8,-3.7734,-3.7289,-3.7095,-3.7056,-3.7211,-3.7095,-3.7134,-3.739,-3.7443,-3.7443,-3.7443,-3.7848,-3.8113,-3.8113,-3.8671,-3.9235,-3.9681,-3.9788,-3.9249,-3.8056,-3.7703,-3.6599,-3.4778,-3.5798,-3.6093,-3.5793,-3.66,-3.6686,-3.6252,-3.6252,-3.5968,-3.5504,-3.5504,-3.5504,-3.5504,-3.5504,-3.5392,-3.5133,-3.4528,-3.4211,-3.3973,-3.3388,-3.3178,-3.3178,-3.3178,-3.3213,-3.3402,-3.3973,-3.4197,-3.4317,-3.4351,-3.4351,-3.4351,-3.4351,-3.4898,-3.5625,-3.6352,-3.6368,-3.6107,-3.5614,-3.5214,-3.466,-3.3598,-3.3275,-3.2998,-3.2475,-3.2398,-3.2398,-3.2398,-3.2398,0.0,0.0,-3.2398,-3.2398,-3.2398,-3.2895,-3.3682,0.0,0.0,0.0,0.0,-3.7168,-3.7526,-3.7772,-3.8515,-3.9093,-3.9506,-4.0231,-4.0722,-4.0912,-4.1012,-4.1192,-4.1494,-4.1604,-4.1927,-4.2378,-4.2378,-4.2616,-4.3032,-4.3032,-4.3214,-4.3515,-4.3515,-4.3883,-4.4452,-4.4635,-4.5094,-4.5736,-3.9722,-3.9487,-3.9199,-3.8943,-3.8598,-3.8188,-3.7582,-3.7481,-3.7366,-3.7056,-3.6978,-3.6978,-3.6978,-3.6978,-3.6978,-3.6978,-3.6978,-3.6978,-3.6978,-3.7327,-3.7481,-3.7481,-3.8075,-3.8523,-3.8855,-3.8841,-3.8141,-3.6779,-3.7071,-3.6245,-3.4337,-3.5527,-3.5939,-3.5718,-3.6505,-3.6867,-3.6911,-3.6911,-3.6701,-3.6372,-3.6372,-3.6172,-3.5819,-3.5819,-3.5345,-3.4625,-3.396,-3.3493,-3.3057,-3.24,-3.2209,-3.2209,-3.2209,-3.2209,-3.2209,-3.2318,-3.2932,-3.3616,-3.3671,-3.3705,-3.3705,-3.3705,-3.4081,-3.4699,-3.5657,-3.5864,-3.5868,-3.5953,-3.5691,-3.5153,-3.4091,-3.3629,-3.3183,-3.2505,-3.2398,-3.2398,-3.2398,-3.2398,0.0,-3.2398,-3.2675,-3.2859,-3.2859,-3.3635,-3.4471,-3.5177,0.0,0.0,-3.7358,-3.8038,-3.8268,-3.796,-3.8833,-3.9498,-3.9853,-4.0497,-4.084,-4.0912,-4.0912,-4.1018,-4.1232,-4.1232,-4.1468,-4.1885,-4.1885,-4.2154,-4.2595,-4.2806,-4.3249,-4.3798,-4.3978,-4.4544,-4.5296,-4.5645,-4.6067,-4.6562,-3.8782,-3.8708,-3.8486,-3.8,-3.781,-3.7582,-3.7095,-3.6978,-3.6978,-3.6978,-3.6978,-3.6978,-3.6978,-3.6978,-3.6978,-3.6978,-3.6978,-3.6978,-3.6978,-3.6978,-3.6978,-3.6978,-3.7505,-3.7772,-3.7796,-3.7729,-3.7049,-3.5749,-3.6385,-3.5677,-3.3746,-3.521,-3.5613,-3.5227,-3.599,-3.6704,-3.7382,-3.7228,-3.7273,-3.737,-3.7267,-3.6801,-3.6222,-3.6222,-3.5266,-3.39,-3.3322,-3.2653,-3.1873,-3.1312,-3.1052,-3.0986,-3.0986,-3.0986,-3.0986,-3.0986,-3.2005,-3.3157,-3.3255,-3.329,-3.3325,-3.3463,-3.3498,-3.3739,-3.4666,-3.4879,-3.5142,-3.6116,-3.583,-3.5293,-3.4752,-3.4121,-3.346,-3.2675,-3.2552,-3.2552,-3.2552,0.0,-3.2582,-3.269,-3.3213,-3.3567,-3.3567,-3.4535,-3.5266,-3.5445,-3.6378,-3.7244,0.0,-3.8681,-3.8745,-3.8091,-3.8907,-3.9676,-4.0313,-4.0576,-4.0745,-4.0864,-4.0888,-4.0912,-4.0912,-4.0912,-4.1088,-4.1401,-4.1401,-4.174,-4.2311,-4.2794,-4.3476,-4.4315,-4.4711,-4.5369,-4.6159,-4.6856,-4.7186,-4.7369,-3.8782,-3.8375,-3.8,-3.7924,-3.7481,-3.7095,-3.7017,-3.6978,-3.6978,-3.6978,-3.6978,-3.6978,-3.6978,-3.6978,-3.6978,-3.6978,-3.6978,-3.6978,-3.6978,-3.6978,-3.6978,-3.6978,-3.7095,-3.7183,-3.7333,-3.7281,-3.6855,-3.595,-3.5896,-3.5346,-3.4308,-3.5292,-3.5665,-3.5623,-3.6459,-3.6977,-3.7201,-3.6439,-3.6599,-3.7336,-3.6646,-3.6328,-3.6222,-3.6222,-3.5581,-3.4631,-3.3935,-3.3292,-3.271,-3.1923,-3.1378,-3.0986,-3.0986,-3.0986,-3.0986,-3.0986,-3.1198,-3.1408,-3.1394,-3.1431,-3.1616,-3.2398,-3.2599,-3.2847,-3.3705,-3.391,-3.4182,-3.5109,-3.523,-3.52,-3.5309,-3.523,-3.4737,-3.346,-3.3244,-3.3244,-3.3244,0.0,-3.3475,-3.4104,-3.4274,-3.4335,-3.4335,-3.4515,-3.5072,-3.614,-3.6372,-3.6964,-3.8044,-3.8771,-3.9064,-3.8853,-3.967,-4.0235,-4.0485,-4.0624,-4.0697,-4.0721,-4.084,-4.0912,-4.0912,-4.0912,-4.0918,-4.0995,-4.0995,-4.1615,-4.2669,-4.3134,-4.3994,-4.5073,-4.5534,-4.6214,-4.6929,-4.7058,-4.7516,-4.8141,-3.781,-3.7634,-3.7404,-3.7404,-3.7173,-3.6978,-3.6978,-3.6978,-3.6978,-3.6978,-3.6978,-3.6978,-3.6978,-3.6978,-3.6978,-3.6978,-3.6978,-3.6978,-3.6978,-3.6978,-3.6978,-3.6978,-3.6978,-3.6808,-3.6387,-3.6189,-3.5749,-3.5155,-3.5032,-3.4799,-3.4397,-3.4799,-3.5237,-3.5709,-3.6082,-3.6546,-3.7044,-3.711,-3.7126,-3.7171,-3.7703,-3.7126,-3.5989,-3.6391,-3.5784,-3.4564,-3.3926,-3.3542,-3.3223,-3.2515,-3.1914,-3.1444,-3.1444,-3.1235,-3.0986,-3.0986,-3.0986,-3.0986,-3.0986,-3.0986,-3.1086,-3.1542,-3.164,-3.1882,-3.2777,-3.301,-3.3374,-3.4714,-3.5059,-3.5143,-3.5294,-3.5446,-3.5029,-3.3629,-3.3721,0.0,0.0,-3.3737,-3.4135,-3.4459,-3.4828,-3.5044,-3.5044,-3.5383,-3.5827,-3.6393,-3.7073,-3.7641,-3.8177,-3.9139,-3.9648,-3.958,-3.9977,-4.0263,-4.0387,-4.0436,-4.0527,-4.0583,-4.0721,-4.0793,-4.0793,-4.0864,-4.0912,-4.0929,-4.1326,-4.1808,-4.2392,-4.3268,-4.4355,-4.5522,-4.599,-4.6812,-4.7736,-4.7736,-4.7994,-4.8306,-3.6978,-3.6978,-3.6978,-3.6978,-3.6978,-3.6978,-3.6978,-3.6978,-3.6978,-3.6978,-3.6978,-3.6978,-3.6978,-3.6978,-3.6978,-3.6978,-3.6978,-3.6978,-3.6978,-3.6978,-3.6978,-3.6978,-3.6822,-3.6389,-3.571,-3.5195,-3.4784,-3.4397,-3.4397,-3.4397,-3.4397,-3.4397,-3.4758,-3.5386,-3.5386,-3.5963,-3.6933,-3.7193,-3.7271,-3.7295,-3.8159,-3.7386,-3.579,-3.6399,-3.5682,-3.4345,-3.3927,-3.3705,-3.3522,-3.3064,-3.2515,-3.2006,-3.2006,-3.1744,-3.1378,-3.1378,-3.1378,-3.1326,-3.1052,-3.0986,-3.0986,-3.0986,-3.0986,-3.1198,-3.1919,-3.2051,-3.2541,-3.4225,-3.4681,-3.4928,-3.5353,-3.5615,-3.5322,-3.4091,0.0,0.0,0.0,-3.4397,-3.4797,-3.4951,-3.5429,-3.5722,-3.5722,-3.6184,-3.6492,-3.6492,-3.7356,-3.7994,-3.8294,-3.9172,-3.9825,-4.0096,-4.0096,-4.0163,-4.0238,-4.0263,-4.0337,-4.0461,-4.0583,-4.0673,-4.0714,-4.0989,-4.1123,-4.1205,-4.1947,-4.2378,-4.261,-4.365,-4.4765,-4.585,-4.6331,-4.7168,-4.8132,-4.8132,-4.821,-4.8306,-3.6978,-3.6978,-3.6978,-3.6978,-3.6978,-3.6978,-3.6978,-3.6978,-3.6978,-3.6978,-3.6978,-3.6978,-3.6978,-3.6978,-3.6978,-3.6978,-3.6978,-3.6978,-3.6978,-3.6978,-3.6978,-3.6978,-3.623,-3.575,-3.571,-3.4895,-3.4439,-3.4397,-3.4397,-3.4397,-3.4397,-3.4397,-3.4439,-3.4522,-3.4522,-3.5413,-3.6802,-3.5291,-3.6016,-3.8,-3.6531,-3.5856,-3.5709,-3.579,-3.5196,-3.4384,-3.4358,-3.4018,-3.3587,-3.3535,-3.3117,-3.262,-3.262,-3.2607,-3.2568,-3.2568,-3.2568,-3.2333,-3.1274,-3.0986,-3.0986,-3.0986,-3.0986,-3.1024,-3.1099,-3.1086,-3.1579,-3.3262,-3.3719,-3.4269,-3.5835,-3.6275,-3.6184,-3.5445,0.0,0.0,-3.5337,-3.5368,-3.5645,-3.6261,-3.6384,-3.6415,-3.6415,-3.6461,-3.6492,-3.6492,-3.6569,-3.7103,-3.8222,-3.839,-3.8957,-4.007,-4.0096,-4.0096,-4.0096,-4.0238,-4.0288,-4.033,-4.0461,-4.0583,-4.0714,-4.1418,-4.1783,-4.1964,-4.2758,-4.35,-4.4189,-4.4712,-4.5403,-4.6203,-4.6682,-4.7194,-4.7653,-4.7653,-4.7935,-4.8306,-3.6978,-3.6978,-3.6978,-3.6978,-3.6978,-3.6978,-3.6978,-3.6978,-3.6978,-3.6978,-3.6978,-3.6978,-3.6978,-3.6978,-3.7134,-3.7519,-3.7544,-3.7544,-3.7544,-3.7924,-3.7658,-3.6654,-3.5804,-3.5318,-3.5318,-3.4729,-3.4397,-3.4397,-3.4397,-3.4397,-3.4397,-3.4397,-3.4397,-3.4397,-3.4397,-3.506,-3.6122,-3.5467,-3.5749,-3.6663,-3.6517,-3.5803,-3.495,-3.5507,-3.5155,-3.4397,-3.4397,-3.4267,-3.4097,-3.4097,-3.3718,-3.3247,-3.3247,-3.2986,-3.2685,-3.2685,-3.2685,-3.2594,-3.2163,-3.1784,-3.1522,-3.1522,-3.1248,-3.0986,-3.0986,-3.0986,-3.1445,-3.2981,-3.3512,-3.4182,-3.5784,-3.632,-3.6261,-3.5629,0.0,-3.5953,-3.5568,-3.5845,-3.6199,-3.6461,-3.6492,-3.6492,-3.6492,-3.6492,-3.6492,-3.6492,-3.6846,-3.7268,-3.7709,-3.8463,-3.9242,-4.007,-4.0527,-4.0544,-4.0096,-4.0163,-4.04,-4.0858,-4.0993,-4.1307,-4.1835,-4.2286,-4.2507,-4.2591,-4.3484,-4.4035,-4.4345,-4.5,-4.5626,-4.6211,-4.6387,-4.6747,-4.716,-4.716,-4.7464,-4.7856,-3.6978,-3.6978,-3.6978,-3.6978,-3.6978,-3.6978,-3.6978,-3.6978,-3.6978,-3.6978,-3.6978,-3.6978,-3.6978,-3.7173,-3.7429,-3.7848,-3.8075,-3.815,-3.8089,-3.83,-3.7872,-3.6705,-3.5911,-3.5345,-3.5127,-3.4647,-3.4397,-3.4397,-3.4397,-3.4551,-3.4799,-3.4799,-3.495,-3.5182,-3.5182,-3.5534,-3.6042,-3.5816,-3.5709,-3.5696,-3.6002,-3.5454,-3.4481,-3.5073,-3.4909,-3.4397,-3.4397,-3.4397,-3.4397,-3.4397,-3.4149,-3.3849,-3.3849,-3.3561,-3.3221,-3.3221,-3.3221,-3.3221,-3.3221,-3.2816,-3.2306,-3.2124,-3.181,-3.147,-3.13,-3.1248,-3.1558,-3.2618,-3.3164,-3.3891,-3.5382,-3.599,-3.6136,-3.5876,-3.6184,-3.6322,-3.5891,-3.6199,-3.6492,-3.6492,-3.6492,-3.6492,-3.6492,-3.6492,-3.6492,-3.6492,-3.6861,-3.7298,-3.765,-3.8869,-3.9821,-4.0426,-4.1153,-4.1288,-4.0807,-4.0807,-4.1035,-4.1542,-4.1646,-4.197,-4.2505,-4.2988,-4.322,-4.3323,-4.4251,-4.4647,-4.4665,-4.5173,-4.5615,-4.5955,-4.5955,-4.6242,-4.6678,-4.6678,-4.6981,-4.7399,-3.6978,-3.6978,-3.6978,-3.6978,-3.6978,-3.6993,-3.6993,-3.6978,-3.7017,-3.6978,-3.7017,-3.7017,-3.7017,-3.7544,-3.7924,-3.7924,-3.8449,-3.8723,-3.8516,-3.7962,-3.7477,-3.7242,-3.6635,-3.5924,-3.5127,-3.4647,-3.4397,-3.4397,-3.4397,-3.4827,-3.5709,-3.5709,-3.6122,-3.688,-3.688,-3.688,-3.6855,-3.6042,-3.5709,-3.5629,-3.4758,-3.4397,-3.4397,-3.4397,-3.4397,-3.4397,-3.4397,-3.4397,-3.4397,-3.4397,-3.4397,-3.4397,-3.4397,-3.4397,-3.4397,-3.4397,-3.4397,-3.4397,-3.4397,-3.4005,-3.3456,-3.2855,-3.2685,-3.2542,-3.1941,-3.181,-3.1857,-3.2077,-3.2506,-3.3318,-3.4629,-3.5317,-3.5847,-3.6383,-3.6492,-3.6492,-3.6492,-3.6492,-3.6492,-3.6492,-3.6492,-3.6492,-3.6492,-3.6492,-3.6492,-3.6492,-3.6492,-3.7028,-3.8238,-3.9566,-4.0571,-4.1178,-4.1931,-4.2286,-4.2303,-4.2286,-4.2286,-4.2303,-4.2303,-4.2383,-4.2539,-4.349,-4.3964,-4.4156,-4.5017,-4.5397,-4.5397,-4.5397,-4.5397,-4.5397,-4.5397,-4.5744,-4.6186,-4.6186,-4.6507,-4.6976,-3.6151,-3.6071,-3.6071,-3.6071,-3.6363,-3.6589,-3.6589,-3.7173,-3.7481,-3.707,-3.7734,-3.8113,-3.7658,-3.8188,-3.8708,-3.9126,-3.9184,-3.9307,-3.9553,-3.887,-3.8308,-3.804,-3.666,-3.5749,-3.5521,-3.4799,-3.4716,-3.5305,-3.4716,-3.4827,-3.5709,-3.5709,-3.6122,-3.688,-3.688,-3.7256,-3.7706,-3.6294,-3.6016,-3.6425,-3.4978,-3.4397,-3.4397,-3.4397,-3.4397,-3.4397,-3.4397,-3.4397,-3.4397,-3.4397,-3.4397,-3.4397,-3.4397,-3.4397,-3.4397,-3.4397,-3.4397,-3.4397,-3.4397,-3.428,-3.4018,-3.347,-3.2999,-3.2646,-3.2476,-3.2437,-3.2501,-3.2674,-3.2932,-3.329,-3.3819,-3.4647,-3.532,-3.5482,-3.607,-3.6492,-3.6492,-3.6492,-3.6492,-3.6492,-3.6492,-3.6492,-3.6492,-3.6492,-3.6492,-3.6492,-3.6938,-3.7546,-3.8338,-3.9202,-4.0151,-4.1239,-4.1982,-4.2607,-4.3054,-4.2557,-4.2557,-4.3081,-4.3081,-4.3396,-4.3993,-4.4443,-4.468,-4.4751,-4.5214,-4.5397,-4.5397,-4.5397,-4.5397,-4.5397,-4.5397,-4.5502,-4.5641,-4.5641,-4.5963,-4.6435,-3.5764,-3.571,-3.579,-3.6151,-3.6165,-3.6218,-3.6575,-3.7197,-3.7477,-3.7144,-3.8098,-3.8671,-3.83,-3.8782,-3.9271,-3.9574,-3.9523,-3.961,-3.9889,-3.9358,-3.8819,-3.8331,-3.7271,-3.6531,-3.6162,-3.5642,-3.5642,-3.6162,-3.5642,-3.5856,-3.6702,-3.6702,-3.7116,-3.7866,-3.7866,-3.8008,-3.8127,-3.713,-3.661,-3.636,-3.5345,-3.4716,-3.4397,-3.4397,-3.4397,-3.4397,-3.4397,-3.4397,-3.4397,-3.4397,-3.4397,-3.4397,-3.4397,-3.4397,-3.4397,-3.4397,-3.4397,-3.4397,-3.4397,-3.4397,-3.4319,-3.3992,-3.3639,-3.3313,-3.3091,-3.3051,-3.3027,-3.2888,-3.306,-3.3271,-3.337,-3.4055,-3.469,-3.5041,-3.5593,-3.607,-3.646,-3.6492,-3.6492,-3.6492,-3.6492,-3.6492,-3.6492,-3.6738,-3.6999,-3.7277,-3.7677,-3.8165,-3.8777,-3.9471,-4.0288,-4.1311,-4.231,-4.3028,-4.3446,-4.3293,-4.342,-4.3876,-4.3876,-4.413,-4.4615,-4.4831,-4.4951,-4.5005,-4.522,-4.5371,-4.5397,-4.5397,-4.5397,-4.5397,-4.5397,-4.5397,-4.5397,-4.5397,-4.5615,-4.5905,-3.5588,-3.5588,-3.5831,-3.6626,-3.6151,-3.5911,-3.6705,-3.7078,-3.7242,-3.7204,-3.8219,-3.8892,-3.8855,-3.9379,-3.9681,-3.9487,-3.961,-3.9681,-3.9681,-3.9517,-3.9068,-3.8352,-3.8315,-3.7947,-3.7165,-3.6958,-3.6919,-3.7011,-3.6919,-3.7333,-3.8202,-3.8202,-3.8612,-3.9388,-3.9388,-3.8958,-3.8202,-3.8127,-3.7169,-3.5709,-3.5629,-3.5114,-3.4397,-3.4397,-3.4397,-3.4397,-3.4397,-3.4397,-3.4397,-3.4397,-3.4397,-3.4397,-3.4397,-3.4397,-3.4397,-3.4397,-3.4397,-3.4397,-3.4397,-3.4397,-3.4397,-3.4397,-3.4397,-3.4267,-3.3783,-3.3666,-3.3496,-3.2894,-3.3067,-3.3298,-3.3173,-3.3555,-3.4157,-3.4997,-3.5255,-3.5629,-3.6567,-3.6676,-3.6676,-3.6676,-3.6676,-3.6676,-3.6676,-3.723,-3.7846,-3.8462,-3.8569,-3.8831,-3.9377,-4.0102,-4.0769,-4.1397,-4.2717,-4.3453,-4.3512,-4.4236,-4.4615,-4.4615,-4.4615,-4.4615,-4.4598,-4.4737,-4.4858,-4.4978,-4.514,-4.5274,-4.5371,-4.5397,-4.5397,-4.5397,-4.5397,-4.5397,-4.5397,-4.5397,-4.5397,-4.5476,-3.4771,-3.4688,-3.4729,-3.4922,-3.51,-3.5277,-3.548,-3.6727,-3.7548,-3.7242,-3.8811,-3.9788,-3.9328,-3.9824,-4.0086,-3.9889,-3.9768,-3.9625,-3.9496,-3.9409,-3.9301,-3.9156,-3.9156,-3.9068,-3.887,-3.7563,-3.7242,-3.791,-3.7242,-3.7333,-3.8202,-3.8202,-3.8612,-3.9388,-3.9388,-3.8958,-3.8165,-3.7462,-3.6596,-3.5629,-3.495,-3.4551,-3.4397,-3.4397,-3.4397,-3.4397,-3.4397,-3.4397,-3.4397,-3.4397,-3.4397,-3.4397,-3.4397,-3.4397,-3.4397,-3.4397,-3.4397,-3.4397,-3.4397,-3.4397,-3.4397,-3.4397,-3.4397,-3.4371,-3.4241,-3.4228,-3.4071,-3.3509,-3.3485,-3.3369,-3.2909,-3.3751,-3.4727,-3.5368,-3.6384,-3.7292,-3.7964,-3.8077,-3.8077,-3.8077,-3.8077,-3.8077,-3.8077,-3.82,-3.8354,-3.8492,-3.9,-3.9326,-3.9477,-4.0127,-4.0805,-4.1467,-4.2283,-4.2984,-4.3482,-4.4236,-4.4615,-4.4615,-4.4615,-4.4615,-4.4598,-4.4737,-4.4803,-4.4858,-4.5113,-4.522,-4.5247,-4.5371,-4.5397,-4.5397,-4.5397,-4.5397,-4.5397,-4.5397,-4.5397,-4.5423,-3.5073,-3.4675,-3.4522,-3.495,-3.4895,-3.4908,-3.5332,-3.6255,-3.6869,-3.6674,-3.8316,-3.9421,-3.9096,-3.9717,-4.0066,-3.9874,-3.9661,-3.9517,-3.9424,-3.9388,-3.9388,-3.9388,-3.9388,-3.9388,-3.9388,-3.8546,-3.8323,-3.8775,-3.8323,-3.8323,-3.8775,-3.8775,-3.901,-3.9388,-3.9388,-3.9156,-3.8738,-3.8285,-3.7615,-3.6819,-3.5923,-3.5372,-3.495,-3.4551,-3.4397,-3.4397,-3.4397,-3.4397,-3.4397,-3.4397,-3.4397,-3.4397,-3.4397,-3.4397,-3.4397,-3.4397,-3.4397,-3.4397,-3.4397,-3.4397,-3.4397,-3.4397,-3.4397,-3.4397,-3.4397,-3.4397,-3.4319,-3.4031,-3.3979,-3.3796,-3.3221,-3.4065,-3.504,-3.5508,-3.6588,-3.7647,-3.8394,-3.8508,-3.8508,-3.8508,-3.8508,-3.8646,-3.897,-3.8985,-3.9123,-3.9447,-3.9767,-3.9967,-3.9967,-4.0305,-4.0646,-4.1024,-4.1673,-4.2332,-4.3015,-4.3722,-4.4236,-4.4615,-4.4615,-4.4615,-4.4615,-4.4682,-4.4737,-4.4803,-4.4951,-4.5059,-4.5096,-4.5247,-4.53,-4.53,-4.5371,-4.5397,-4.5397,-4.5397,-4.5397,-4.5397,-3.5669,-3.4991,-3.4634,-3.5345,-3.4868,-3.4634,-3.5386,-3.5749,-3.595,-3.5976,-3.7434,-3.8502,-3.8613,-3.9415,-3.9818,-3.9646,-3.9481,-3.9388,-3.9388,-3.9388,-3.9388,-3.9388,-3.9388,-3.9388,-3.9388,-3.9388,-3.9388,-3.9388,-3.9388,-3.9388,-3.9388,-3.9388,-3.9388,-3.9388,-3.9388,-3.9301,-3.9192,-3.9192,-3.8723,-3.791,-3.7049,-3.632,-3.5588,-3.4716,-3.4397,-3.4397,-3.4397,-3.4397,-3.4397,-3.4397,-3.4397,-3.4397,-3.4397,-3.4397,-3.4397,-3.4397,-3.4397,-3.4397,-3.4397,-3.4397,-3.4397,-3.4397,-3.4397,-3.4397,-3.4397,-3.4397,-3.4397,-3.4397,-3.4397,-3.4254,-3.3809,-3.4553,-3.5341,-3.5864,-3.6748,-3.7723,-3.8698,-3.8846,-3.8846,-3.8846,-3.8846,-3.9077,-3.9598,-3.9659,-3.989,-4.0459,-4.0489,-4.0489,-4.0489,-4.0489,-4.0489,-4.0489,-4.1142,-4.1771,-4.2332,-4.3106,-4.381,-4.4412,-4.4542,-4.4615,-4.4615,-4.4615,-4.4654,-4.4765,-4.4776,-4.4858,-4.4995,-4.5113,-4.5177,-4.5203,-4.53,-4.5371,-4.5397,-4.5397,-4.5397,-4.5397,-3.5548,-3.4991,-3.4439,-3.4551,-3.4481,-3.4439,-3.4551,-3.5237,-3.579,-3.599,-3.6816,-3.7663,-3.8376,-3.9075,-3.946,-3.9445,-3.9424,-3.9388,-3.9388,-3.9388,-3.9388,-3.9388,-3.9388,-3.9388,-3.9388,-3.9388,-3.9388,-3.9388,-3.9388,-3.9388,-3.9388,-3.9388,-3.9388,-3.9388,-3.9388,-3.8995,-3.8352,-3.8352,-3.7857,-3.7011,-3.6201,-3.5776,-3.5588,-3.4716,-3.4397,-3.4397,-3.4397,-3.4397,-3.4397,-3.4397,-3.4397,-3.4397,-3.4397,-3.4397,-3.4397,-3.4397,-3.4397,-3.4397,-3.4397,-3.4397,-3.4397,-3.4397,-3.4397,-3.4397,-3.4397,-3.4397,-3.4397,-3.4397,-3.4397,-3.4384,-3.4306,-3.5021,-3.5972,-3.7092,-3.7994,-3.8952,-4.0075,-4.0213,-4.0213,-4.0213,-4.0213,-4.0259,-4.0351,-4.0351,-4.0397,-4.0489,-4.0489,-4.0489,-4.0489,-4.0489,-4.0489,-4.0489,-4.1142,-4.1542,-4.1641,-4.2892,-4.3542,-4.3647,-4.431,-4.4615,-4.4615,-4.4615,-4.4598,-4.4626,-4.4765,-4.4803,-4.4831,-4.4951,-4.5113,-4.5203,-4.522,-4.53,-4.5397,-4.5397,-4.5397,-4.5397,-3.5629,-3.4991,-3.4397,-3.4397,-3.4397,-3.4397,-3.4397,-3.4716,-3.4991,-3.5073,-3.5856,-3.6517,-3.6841,-3.7971,-3.8922,-3.9337,-3.9388,-3.9388,-3.9388,-3.9388,-3.9388,-3.9388,-3.9388,-3.9388,-3.9388,-3.9388,-3.9388,-3.9388,-3.9388,-3.9388,-3.9388,-3.9388,-3.9388,-3.9388,-3.9388,-3.9192,-3.8885,-3.8885,-3.8649,-3.8182,-3.6894,-3.6385,-3.6241,-3.4909,-3.4397,-3.4397,-3.4397,-3.4397,-3.4397,-3.4397,-3.4397,-3.4397,-3.4397,-3.4397,-3.4397,-3.4397,-3.4397,-3.4397,-3.4397,-3.4397,-3.4397,-3.4397,-3.4397,-3.4397,-3.4397,-3.4397,-3.4397,-3.4397,-3.4397,-3.4481,-3.4743,-3.5561,-3.6466,-3.7204,-3.8457,-3.9487,-3.9965,-4.0316,-4.0489,-4.0489,-4.0489,-4.0489,-4.0489,-4.0489,-4.0489,-4.0489,-4.0489,-4.0489,-4.0489,-4.0489,-4.0489,-4.0489,-4.0783,-4.1125,-4.1492,-4.2078,-4.2769,-4.3495,-4.3839,-4.4207,-4.4615,-4.4615,-4.4615,-4.4598,-4.4654,-4.4682,-4.4709,-4.4831,-4.4923,-4.4978,-4.5059,-4.5167,-4.53,-4.5371,-4.5397,-4.5397]},{"header":{"parameterUnit":"m.s-1","parameterCategory":1,"la1":30.6,"la2":28.766,"lo1":-90.7593,"lo2":-88.6598,"dy":0.0162,"dx":0.0183,"nx":116,"ny":114,"refTime":"2024-03-26T06:00:00:Z","depth":0,"parameterNumber":3,"parameterNumberName":"V-component_of_WINDS"},"data":[0.0,0.0,0.0,0.0,0.0,0.0,0.0,0.0,0.0,0.0,0.0,0.0,0.0,0.0,0.0,0.0,0.0,0.0,0.0,0.0,0.0,0.0,0.0,0.0,0.0,0.0,0.0,0.0,0.0,0.0,0.0,0.0,0.0,0.0,0.0,0.0,0.0,0.0,0.0,0.0,0.0,0.0,0.0,0.0,0.0,0.0,0.0,0.0,0.0,0.0,0.0,0.0,0.0,0.0,0.0,0.0,0.0,0.0,0.0,0.0,0.0,0.0,0.0,0.0,0.0,0.0,0.0,0.0,0.0,0.0,0.0,0.0,0.0,0.0,0.0,0.0,0.0,0.0,0.0,0.0,0.0,0.0,0.0,0.0,0.0,0.0,0.0,0.0,0.0,0.0,0.0,0.0,0.0,0.0,0.0,0.0,0.0,0.0,0.0,0.0,0.0,0.0,0.0,0.0,0.0,0.0,0.0,0.0,0.0,0.0,0.0,0.0,0.0,0.0,0.0,0.0,0.0,0.0,0.0,0.0,0.0,0.0,0.0,0.0,0.0,0.0,0.0,0.0,0.0,0.0,0.0,0.0,0.0,0.0,0.0,0.0,0.0,0.0,0.0,0.0,0.0,0.0,0.0,0.0,0.0,0.0,0.0,0.0,0.0,0.0,0.0,0.0,0.0,0.0,0.0,0.0,0.0,0.0,0.0,0.0,0.0,0.0,0.0,0.0,0.0,0.0,0.0,0.0,0.0,0.0,0.0,0.0,0.0,0.0,0.0,0.0,0.0,0.0,0.0,0.0,0.0,0.0,0.0,0.0,0.0,0.0,0.0,0.0,0.0,0.0,0.0,0.0,0.0,0.0,0.0,0.0,0.0,0.0,0.0,0.0,0.0,0.0,0.0,0.0,0.0,0.0,0.0,0.0,0.0,0.0,0.0,0.0,0.0,0.0,0.0,0.0,0.0,0.0,0.0,0.0,0.0,0.0,0.0,0.0,0.0,0.0,0.0,0.0,0.0,0.0,0.0,0.0,0.0,0.0,0.0,0.0,0.0,0.0,0.0,0.0,0.0,0.0,0.0,0.0,0.0,0.0,0.0,0.0,0.0,0.0,0.0,0.0,0.0,0.0,0.0,0.0,0.0,0.0,0.0,0.0,0.0,0.0,0.0,0.0,0.0,0.0,0.0,0.0,0.0,0.0,0.0,0.0,0.0,0.0,0.0,0.0,0.0,0.0,0.0,0.0,0.0,0.0,0.0,0.0,0.0,0.0,0.0,0.0,0.0,0.0,0.0,0.0,0.0,0.0,0.0,0.0,0.0,0.0,0.0,0.0,0.0,0.0,0.0,0.0,0.0,0.0,0.0,0.0,0.0,0.0,0.0,0.0,0.0,0.0,0.0,0.0,0.0,0.0,0.0,0.0,0.0,0.0,0.0,0.0,0.0,0.0,0.0,0.0,0.0,0.0,0.0,0.0,0.0,0.0,0.0,0.0,0.0,0.0,0.0,0.0,0.0,0.0,0.0,0.0,0.0,0.0,0.0,0.0,0.0,0.0,0.0,0.0,0.0,0.0,0.0,0.0,0.0,0.0,0.0,0.0,0.0,0.0,0.0,0.0,0.0,0.0,0.0,0.0,0.0,0.0,0.0,0.0,0.0,0.0,0.0,0.0,0.0,0.0,0.0,0.0,0.0,0.0,0.0,0.0,0.0,0.0,0.0,0.0,0.0,0.0,0.0,0.0,0.0,0.0,0.0,0.0,0.0,0.0,0.0,0.0,0.0,0.0,0.0,0.0,0.0,0.0,0.0,0.0,0.0,0.0,0.0,0.0,0.0,0.0,0.0,0.0,0.0,0.0,0.0,0.0,0.0,0.0,0.0,0.0,0.0,0.0,0.0,0.0,0.0,0.0,0.0,0.0,0.0,0.0,0.0,0.0,0.0,0.0,0.0,0.0,0.0,0.0,0.0,0.0,0.0,0.0,0.0,0.0,0.0,0.0,0.0,0.0,0.0,0.0,0.0,0.0,0.0,0.0,0.0,0.0,0.0,0.0,0.0,0.0,0.0,0.0,0.0,0.0,0.0,0.0,0.0,0.0,0.0,0.0,0.0,0.0,0.0,0.0,0.0,0.0,0.0,0.0,0.0,0.0,0.0,0.0,0.0,0.0,0.0,0.0,0.0,0.0,0.0,0.0,0.0,0.0,0.0,0.0,0.0,0.0,0.0,0.0,0.0,0.0,0.0,0.0,0.0,0.0,0.0,0.0,0.0,0.0,0.0,0.0,0.0,0.0,0.0,0.0,0.0,0.0,0.0,0.0,0.0,0.0,0.0,0.0,0.0,0.0,0.0,0.0,0.0,0.0,0.0,0.0,0.0,0.0,0.0,0.0,0.0,0.0,0.0,0.0,0.0,0.0,0.0,0.0,0.0,0.0,0.0,0.0,0.0,0.0,0.0,0.0,0.0,0.0,0.0,0.0,0.0,0.0,0.0,0.0,0.0,0.0,0.0,0.0,0.0,0.0,0.0,0.0,0.0,0.0,0.0,0.0,0.0,0.0,0.0,0.0,0.0,0.0,0.0,0.0,0.0,0.0,0.0,0.0,0.0,0.0,0.0,0.0,0.0,0.0,0.0,0.0,0.0,0.0,0.0,0.0,0.0,0.0,0.0,0.0,0.0,0.0,0.0,0.0,0.0,0.0,0.0,0.0,0.0,0.0,0.0,0.0,0.0,0.0,0.0,0.0,0.0,0.0,0.0,0.0,0.0,0.0,0.0,0.0,0.0,0.0,0.0,0.0,0.0,0.0,0.0,0.0,0.0,0.0,0.0,0.0,0.0,0.0,0.0,0.0,0.0,0.0,0.0,0.0,0.0,0.0,0.0,0.0,0.0,0.0,0.0,0.0,0.0,0.0,0.0,0.0,0.0,0.0,0.0,0.0,0.0,0.0,0.0,0.0,0.0,0.0,0.0,0.0,0.0,0.0,0.0,0.0,0.0,0.0,0.0,0.0,0.0,0.0,0.0,0.0,0.0,0.0,0.0,0.0,0.0,0.0,0.0,0.0,0.0,0.0,0.0,0.0,0.0,0.0,0.0,0.0,0.0,0.0,0.0,0.0,0.0,0.0,0.0,0.0,0.0,0.0,0.0,0.0,0.0,0.0,0.0,0.0,0.0,0.0,0.0,0.0,0.0,0.0,0.0,0.0,0.0,0.0,0.0,0.0,0.0,0.0,0.0,0.0,0.0,0.0,0.0,0.0,0.0,0.0,0.0,0.0,0.0,0.0,0.0,0.0,0.0,0.0,0.0,0.0,0.0,0.0,0.0,0.0,0.0,0.0,0.0,0.0,0.0,0.0,0.0,0.0,0.0,0.0,0.0,0.0,0.0,0.0,0.0,0.0,0.0,0.0,0.0,0.0,0.0,0.0,0.0,0.0,0.0,0.0,0.0,0.0,0.0,0.0,0.0,0.0,0.0,0.0,0.0,0.0,0.0,0.0,0.0,0.0,0.0,0.0,0.0,0.0,0.0,0.0,0.0,0.0,0.0,0.0,0.0,0.0,0.0,0.0,0.0,0.0,0.0,0.0,0.0,0.0,0.0,0.0,0.0,0.0,0.0,0.0,0.0,0.0,0.0,0.0,0.0,0.0,0.0,0.0,0.0,0.0,0.0,0.0,0.0,0.0,0.0,0.0,0.0,0.0,0.0,0.0,0.0,0.0,0.0,0.0,0.0,0.0,0.0,0.0,0.0,0.0,0.0,0.0,0.0,0.0,0.0,0.0,0.0,0.0,0.0,0.0,0.0,0.0,0.0,0.0,0.0,0.0,0.0,0.0,0.0,0.0,0.0,0.0,0.0,0.0,0.0,0.0,0.0,0.0,0.0,0.0,0.0,0.0,0.0,0.0,0.0,0.0,0.0,0.0,0.0,0.0,0.0,0.0,0.0,0.0,0.0,0.0,0.0,0.0,0.0,0.0,0.0,0.0,0.0,0.0,0.0,0.0,0.0,0.0,0.0,0.0,0.0,0.0,0.0,0.0,0.0,0.0,0.0,0.0,0.0,0.0,0.0,0.0,0.0,0.0,0.0,0.0,0.0,0.0,0.0,0.0,0.0,0.0,0.0,0.0,0.0,0.0,0.0,0.0,0.0,0.0,0.0,0.0,0.0,0.0,0.0,0.0,0.0,0.0,0.0,0.0,0.0,0.0,0.0,0.0,0.0,0.0,0.0,0.0,0.0,0.0,0.0,0.0,0.0,0.0,0.0,0.0,0.0,0.0,0.0,0.0,0.0,0.0,0.0,0.0,0.0,0.0,0.0,0.0,0.0,0.0,0.0,0.0,0.0,0.0,0.0,0.0,0.0,0.0,0.0,0.0,0.0,0.0,0.0,0.0,0.0,0.0,0.0,0.0,0.0,0.0,0.0,0.0,0.0,0.0,0.0,0.0,0.0,0.0,0.0,0.0,0.0,0.0,0.0,0.0,0.0,0.0,0.0,0.0,0.0,0.0,0.0,0.0,0.0,0.0,0.0,0.0,0.0,0.0,0.0,0.0,0.0,0.0,0.0,0.0,0.0,0.0,0.0,0.0,0.0,0.0,0.0,0.0,0.0,0.0,0.0,0.0,0.0,0.0,0.0,0.0,0.0,0.0,0.0,0.0,0.0,0.0,0.0,0.0,0.0,0.0,0.0,0.0,0.0,0.0,0.0,0.0,0.0,0.0,0.0,0.0,0.0,0.0,0.0,0.0,0.0,0.0,0.0,0.0,0.0,0.0,0.0,0.0,0.0,0.0,0.0,0.0,0.0,0.0,0.0,0.0,0.0,0.0,0.0,0.0,0.0,0.0,0.0,0.0,0.0,0.0,0.0,0.0,0.0,0.0,0.0,0.0,0.0,0.0,0.0,0.0,0.0,0.0,0.0,0.0,0.0,0.0,0.0,0.0,0.0,0.0,0.0,0.0,0.0,0.0,0.0,0.0,0.0,0.0,0.0,0.0,0.0,0.0,0.0,0.0,0.0,0.0,0.0,0.0,0.0,0.0,0.0,0.0,0.0,0.0,0.0,0.0,0.0,0.0,0.0,0.0,0.0,0.0,0.0,0.0,0.0,0.0,0.0,0.0,0.0,0.0,0.0,0.0,0.0,0.0,0.0,0.0,0.0,0.0,0.0,0.0,0.0,0.0,0.0,0.0,0.0,0.0,0.0,0.0,0.0,0.0,0.0,0.0,0.0,0.0,0.0,0.0,0.0,0.0,0.0,0.0,0.0,0.0,0.0,0.0,0.0,0.0,0.0,0.0,0.0,0.0,0.0,0.0,0.0,0.0,0.0,0.0,0.0,0.0,0.0,0.0,0.0,0.0,0.0,0.0,0.0,0.0,0.0,0.0,0.0,0.0,0.0,0.0,0.0,0.0,0.0,0.0,0.0,0.0,0.0,0.0,0.0,0.0,0.0,0.0,0.0,0.0,0.0,0.0,0.0,0.0,0.0,0.0,0.0,0.0,0.0,0.0,0.0,0.0,0.0,0.0,0.0,0.0,0.0,0.0,0.0,0.0,0.0,0.0,0.0,0.0,0.0,0.0,0.0,0.0,0.0,0.0,0.0,0.0,0.0,0.0,0.0,0.0,0.0,0.0,0.0,0.0,0.0,0.0,0.0,0.0,0.0,0.0,0.0,0.0,0.0,0.0,0.0,0.0,0.0,0.0,0.0,0.0,0.0,0.0,0.0,0.0,0.0,0.0,0.0,0.0,0.0,0.0,0.0,0.0,0.0,0.0,0.0,0.0,0.0,0.0,0.0,0.0,0.0,0.0,0.0,0.0,0.0,0.0,0.0,0.0,0.0,0.0,0.0,0.0,0.0,0.0,0.0,0.0,0.0,0.0,0.0,0.0,0.0,0.0,0.0,0.0,0.0,0.0,0.0,0.0,0.0,0.0,0.0,0.0,0.0,0.0,0.0,0.0,0.0,0.0,0.0,0.0,0.0,0.0,0.0,0.0,0.0,0.0,0.0,0.0,0.0,0.0,0.0,0.0,0.0,0.0,0.0,0.0,0.0,0.0,0.0,0.0,0.0,0.0,0.0,0.0,0.0,0.0,0.0,0.0,0.0,0.0,0.0,0.0,0.6037,0.0,0.0,0.0,0.0,0.0,0.0,0.0,0.0,0.0,0.0,0.0,0.0,0.0,0.0,0.0,0.0,0.0,0.0,0.0,0.0,0.0,0.0,0.0,0.0,0.8934,0.9864,0.9506,0.9777,0.9994,0.9994,0.0,0.0,0.0,0.0,0.0,0.9994,1.0099,1.0151,1.0151,1.1131,1.1825,1.2226,1.3417,1.4345,1.5008,0.0,0.0,0.0,0.0,0.0,0.0,0.0,0.0,0.0,0.0,0.0,0.0,0.0,0.0,0.0,0.0,0.0,0.0,0.0,0.0,0.0,0.0,0.0,0.0,0.0,0.0,0.0,0.0,0.0,0.0,0.0,0.0,0.0,0.0,0.0,0.0,0.0,0.0,0.0,0.0,0.0,0.0,0.0,0.0,0.0,0.0,0.0,0.0,0.0,0.0,0.0,0.0,0.0,0.0,0.0,0.0,0.0,0.0,0.0,0.0,0.0,0.0,0.0,0.0,0.0,0.0,0.0,0.0,0.0,0.0,0.0,0.6024,0.0,0.0,0.0,0.0,0.0,0.0,0.0,0.0,0.0,0.0,0.0,0.0,0.0,0.0,0.0,0.0,0.0,0.0,0.0,0.0,0.0,0.7394,0.6868,0.8584,0.9554,0.8934,0.9554,0.9994,0.9994,0.9994,0.0,0.0,0.0,1.0066,1.0104,1.0279,1.0369,1.0369,1.1395,1.2262,1.2825,1.376,1.4218,1.4369,1.4653,0.0,0.0,0.0,0.0,0.0,0.0,0.0,0.0,0.0,0.0,0.0,0.0,0.0,0.0,0.0,0.0,0.0,0.0,0.0,0.0,0.0,0.0,0.0,0.0,0.0,0.0,0.0,0.0,0.0,0.0,0.0,0.0,0.0,0.0,0.0,0.0,0.0,0.0,0.0,0.0,0.0,0.0,0.0,0.0,0.0,0.0,0.0,0.0,0.0,0.0,0.0,0.0,0.0,0.0,0.0,0.0,0.0,0.0,0.0,0.0,0.0,0.0,0.0,0.6157,0.6149,0.6149,0.6149,0.6149,0.6146,0.6127,0.6173,0.63,0.6051,0.0,0.0,0.0,0.0,0.0,0.0,0.0,0.0,0.0,0.0,0.0,0.0,0.0,0.0,0.0,0.0,0.0,0.0,0.0,0.6908,0.6823,0.8141,0.9021,0.889,0.9554,0.9994,0.9994,0.9994,1.008,1.027,1.0274,1.036,1.0535,1.0564,1.0578,1.0578,1.136,1.2278,1.3298,1.3507,1.3952,1.4562,1.4889,1.4932,1.4714,0.0,0.0,0.0,0.0,0.0,0.0,0.0,0.0,0.0,0.0,0.0,0.0,0.0,0.0,0.0,0.0,0.0,0.0,0.0,0.0,0.0,0.0,0.0,0.0,0.0,0.0,0.0,0.0,0.0,0.0,0.0,0.0,0.0,0.0,0.0,0.0,0.0,0.0,0.0,0.0,0.0,1.4058,1.3485,0.0,0.0,0.0,0.0,0.0,0.0,0.0,0.0,0.0,0.0,0.0,0.0,0.0,0.6953,0.6733,0.6627,0.6564,0.6548,0.6439,0.6341,0.6341,0.6341,0.6341,0.6336,0.6287,0.0,0.6314,0.6281,0.0,0.0,0.0,0.0,0.0,0.0,0.0,0.0,0.0,0.0,0.0,0.0,0.0,0.0,0.0,0.0,0.0,0.0,0.0,0.0,0.0,0.7522,0.8244,0.7886,0.8968,0.9668,0.9668,1.0075,1.0388,1.0438,1.0488,1.0531,1.0616,1.0693,1.0953,1.1402,1.1692,1.2198,1.2771,1.3263,1.3759,1.4251,1.4803,1.5092,1.5149,1.4998,0.0,0.0,0.0,0.0,0.0,0.0,0.0,0.0,0.0,0.0,0.0,0.0,0.0,0.0,0.0,0.0,0.0,0.0,0.0,0.0,0.0,0.0,0.0,0.0,0.0,0.0,0.0,0.0,0.0,0.0,0.0,0.0,0.0,0.0,0.0,0.0,0.0,0.0,0.0,1.4064,1.3775,1.3539,1.3485,1.3093,0.0,0.0,0.0,0.0,0.0,0.0,0.0,0.0,0.0,0.8384,0.7919,0.7635,0.753,0.7006,0.6722,0.6722,0.6668,0.6641,0.6641,0.6641,0.6641,0.6638,0.6589,0.657,0.6554,0.6402,0.6317,0.6306,0.0,0.0,0.0,0.0,0.5961,0.5893,0.0,0.0,0.0,0.0,0.0,0.0,0.0,0.0,0.0,0.0,0.0,0.0,0.5821,0.6966,0.7552,0.705,0.8312,0.9088,0.9088,0.9833,1.032,1.0366,1.0562,1.0679,1.0731,1.0891,1.1284,1.198,1.1688,1.183,1.241,1.2833,1.3372,1.4028,1.4688,1.5164,1.5487,1.5288,1.5059,1.4811,0.0,0.0,0.0,0.0,0.0,0.0,0.0,0.0,0.0,0.0,0.0,0.0,0.0,0.0,0.0,0.0,0.0,0.0,0.0,0.0,0.0,0.0,0.0,0.0,0.0,0.0,0.0,0.0,0.0,0.0,0.0,0.0,0.0,0.0,0.0,0.0,0.0,1.3732,1.3417,1.3236,1.3144,1.3024,0.0,0.0,0.0,0.0,0.0,0.0,1.0508,1.0698,1.0563,0.9894,0.9146,0.874,0.874,0.7706,0.7163,0.7163,0.692,0.6801,0.6801,0.6801,0.6801,0.6801,0.6801,0.6801,0.6779,0.648,0.6358,0.6352,0.6342,0.6259,0.6132,0.6132,0.6075,0.5986,0.0,0.0,0.0,0.0,0.0,0.0,0.0,0.0,0.0,0.0,0.0,0.5939,0.5893,0.665,0.7151,0.7104,0.7814,0.8239,0.8239,0.8991,0.9541,0.9758,1.0491,1.0967,1.1161,1.1175,1.1429,1.198,1.0834,1.1078,1.2581,1.2059,1.2641,1.4207,1.4761,1.5164,1.5499,1.5487,1.533,1.5065,1.4817,0.0,0.0,0.0,0.0,0.0,0.0,0.0,0.0,0.0,0.0,0.0,0.0,0.0,0.0,0.0,0.0,0.0,0.0,0.0,0.0,0.0,0.0,0.0,0.0,0.0,0.0,0.0,0.0,0.0,0.0,0.0,0.0,0.0,0.0,0.0,0.0,0.0,0.0,1.2458,1.3237,0.0,0.0,0.0,0.0,1.3432,1.3392,1.3038,1.2319,1.2344,1.2024,1.123,1.0766,1.0589,1.0589,0.9024,0.8205,0.8202,0.7278,0.6801,0.6801,0.6801,0.6801,0.6801,0.6801,0.6801,0.6793,0.6657,0.66,0.6581,0.6355,0.6314,0.6309,0.6309,0.6306,0.6298,0.0,0.0,0.0,0.0,0.0,0.2967,0.2967,0.466,0.5931,0.5852,0.5947,0.5991,0.5912,0.6317,0.6585,0.6585,0.7333,0.782,0.782,0.9042,0.9801,0.9913,1.0648,1.1123,1.1194,1.1331,1.1197,1.0834,1.0527,1.046,1.0583,1.0543,1.1151,1.2254,1.3403,1.4169,1.4686,1.5429,1.5602,1.5354,1.5258,1.5016,0.0,0.0,0.0,0.0,0.0,0.0,0.0,0.0,0.0,0.0,0.0,0.0,0.0,0.0,0.0,0.0,0.0,0.0,0.0,0.0,0.0,0.0,0.0,0.0,0.0,0.0,0.0,0.0,0.0,0.0,0.0,0.0,0.0,0.0,0.0,0.0,0.0,1.3331,1.3109,0.0,1.3182,1.3708,1.3956,1.3742,1.4204,1.4181,1.3593,1.3939,1.3816,1.3173,1.2488,1.2091,1.2032,1.0607,0.9872,0.9813,0.8516,0.7901,0.7898,0.7302,0.7084,0.7084,0.7084,0.7084,0.7073,0.6902,0.6806,0.6728,0.6646,0.6564,0.6494,0.6494,0.6399,0.6317,0.0,0.0,0.0,0.0,0.1657,0.2982,0.2982,0.4759,0.6056,0.5975,0.6072,0.6116,0.6034,0.6206,0.6325,0.6325,0.6837,0.7182,0.7182,0.8425,0.9171,0.9171,0.9961,1.0385,1.0451,1.0582,1.0425,0.9863,0.9783,0.9663,0.9509,0.9777,1.0291,1.116,1.2417,1.3236,1.3619,1.4428,1.5087,1.5614,1.5439,1.5161,1.4829,0.0,0.0,0.0,0.0,0.0,0.0,0.0,0.0,0.0,0.0,0.0,0.0,0.0,0.0,0.0,0.0,0.0,0.0,0.0,0.0,0.0,0.0,0.0,0.0,0.0,0.0,0.0,0.0,0.0,0.0,0.0,0.0,0.0,0.0,0.0,1.3347,1.3825,1.3447,1.3381,1.3934,1.4372,1.4579,1.4579,1.5051,1.5177,1.4933,1.5263,1.5309,1.5063,1.4291,1.3842,1.3787,1.1846,1.0877,1.0816,0.8994,0.8084,0.8042,0.7487,0.721,0.721,0.721,0.721,0.7204,0.7128,0.6994,0.6912,0.6834,0.6752,0.6681,0.6681,0.6556,0.6374,0.0,0.0,0.0,0.0,0.1644,0.2949,0.2998,0.4759,0.605,0.6097,0.6203,0.6328,0.6328,0.6377,0.6392,0.6392,0.6389,0.6387,0.6387,0.7132,0.7633,0.7637,0.8382,0.8861,0.9027,0.9035,0.9061,0.916,0.8521,0.8652,0.9409,0.9672,1.0178,1.1051,1.1923,1.2358,1.2358,1.2358,1.3717,1.5737,1.5285,1.5074,1.5065,0.0,0.0,0.0,0.0,0.0,0.0,0.0,0.0,0.0,0.0,0.0,0.0,0.0,0.0,0.0,0.0,0.0,0.0,0.0,0.0,0.0,0.0,0.0,0.0,0.0,0.0,0.0,0.0,0.0,0.0,0.0,0.0,0.0,1.4021,1.3922,1.3903,1.3928,1.4397,1.4803,1.5013,1.5577,1.5903,1.5903,1.591,1.6024,1.6278,1.6296,1.6416,1.6688,1.6127,1.5834,1.5834,1.2861,1.1281,1.1156,0.8688,0.7384,0.7265,0.7265,0.721,0.721,0.721,0.721,0.721,0.721,0.721,0.7188,0.6902,0.6812,0.6806,0.6806,0.673,0.6592,0.0,0.0,0.0,0.0,0.1093,0.2235,0.3011,0.4275,0.5452,0.6191,0.6448,0.6524,0.6524,0.6551,0.6567,0.6567,0.6435,0.6387,0.6387,0.7132,0.7929,0.8592,0.8802,0.9031,0.9135,0.9313,0.9076,0.8475,0.8461,0.8204,0.7822,0.83,0.8647,0.892,1.0453,1.1164,1.1219,1.2032,1.2792,1.3437,1.4125,1.4826,1.5372,0.0,0.0,0.0,0.0,0.0,0.0,0.0,0.0,0.0,0.0,0.0,0.0,0.0,0.0,0.0,0.0,0.0,0.0,0.0,0.0,0.0,0.0,0.0,0.0,0.0,0.0,0.0,0.0,0.0,0.0,0.0,1.4877,1.4948,1.4797,1.4437,1.4401,1.4989,1.4862,1.496,1.5595,1.5953,1.6175,1.6175,1.6362,1.6507,1.6579,1.6585,1.6622,1.67,1.6532,1.647,1.647,1.5203,1.4235,1.3618,1.1827,1.0337,0.9082,0.8426,0.782,0.721,0.721,0.721,0.721,0.721,0.721,0.7202,0.7139,0.7008,0.6934,0.6934,0.6858,0.673,0.0,0.0,0.0,0.0,0.0875,0.1983,0.3022,0.41,0.5199,0.6353,0.6575,0.6638,0.669,0.6695,0.6695,0.6695,0.6584,0.6462,0.6462,0.6914,0.7405,0.7945,0.8062,0.8161,0.8249,0.8391,0.8247,0.7756,0.7892,0.7709,0.721,0.7768,0.7989,0.8045,0.9364,0.997,0.997,1.0621,1.1223,1.176,1.2472,1.3586,1.4844,1.5166,1.5173,1.4956,1.5071,1.5034,1.4938,1.4896,0.0,0.0,0.0,0.0,0.0,0.0,0.0,0.0,0.0,0.0,0.0,0.0,0.0,0.0,0.0,0.0,0.0,0.0,0.0,0.0,0.0,0.0,0.0,0.0,1.5101,1.5312,1.5421,1.5078,1.4999,1.5579,1.5488,1.5565,1.5994,1.6302,1.6453,1.6453,1.661,1.6748,1.6857,1.6863,1.6917,1.7026,1.7032,1.6912,1.6625,1.5621,1.464,1.3765,1.2237,1.0695,0.9251,0.8706,0.8042,0.0,0.721,0.721,0.721,0.721,0.721,0.0,0.0,0.0,0.0,0.0,0.694,0.6861,0.0,0.0,0.0,0.0,0.0797,0.1815,0.3022,0.4029,0.5122,0.6467,0.6641,0.6692,0.6828,0.6831,0.6823,0.6823,0.6711,0.6641,0.6641,0.6641,0.6646,0.666,0.6763,0.688,0.7002,0.7005,0.7054,0.721,0.721,0.721,0.721,0.7768,0.7989,0.8045,0.8605,0.8885,0.8885,0.8885,0.9537,1.0507,1.0672,1.1976,1.3919,1.4711,1.4951,1.4877,1.5077,1.5022,1.4877,1.5046,0.0,0.0,0.0,0.0,0.0,0.0,0.0,0.0,0.0,0.0,0.0,0.0,0.0,0.0,0.0,0.0,0.0,0.0,0.0,0.0,0.0,0.0,0.0,0.0,1.5372,1.5626,1.5855,1.5716,1.5674,1.5903,1.6139,1.6302,1.635,1.6592,1.6748,1.6748,1.6773,1.6887,1.7123,0.0,0.0,0.0,0.0,1.7067,1.6419,1.4966,1.3795,1.2817,1.1388,1.0012,0.865,0.865,0.8094,0.721,0.721,0.721,0.721,0.721,0.721,0.721,0.721,0.721,0.7196,0.7043,0.7005,0.6986,0.0,0.0,0.0,0.0,0.015,0.0958,0.2922,0.3374,0.428,0.6474,0.6766,0.685,0.7117,0.7005,0.695,0.695,0.6836,0.6766,0.6766,0.6766,0.6812,0.691,0.6937,0.7005,0.7174,0.7177,0.7188,0.721,0.721,0.721,0.721,0.7768,0.7989,0.8045,0.8605,0.8885,0.8885,0.8885,0.9047,0.9316,1.0292,1.2068,1.4148,1.4318,1.4906,1.5644,1.5481,1.5523,1.5608,1.5234,1.5246,1.5384,1.532,1.5557,0.0,0.0,0.0,0.0,0.0,0.0,0.0,0.0,0.0,0.0,0.0,0.0,0.0,0.0,0.0,0.0,0.0,0.0,0.0,1.5415,1.5644,1.5831,1.5885,1.6024,1.6145,1.6199,1.6254,1.6368,1.6604,1.6863,1.7014,1.7014,1.7213,1.7352,1.7406,1.7406,1.7196,1.6714,1.6714,1.6419,1.5774,1.5472,1.4758,1.3735,0.0,0.0,0.9523,0.9523,0.8699,0.721,0.721,0.721,0.721,0.721,0.721,0.721,0.721,0.721,0.7207,0.7185,0.7177,0.7161,0.0,0.0,0.0,0.0,0.0,0.0706,0.2871,0.3224,0.4018,0.6373,0.6711,0.6779,0.6959,0.6929,0.6893,0.6893,0.6836,0.6801,0.6801,0.6861,0.6921,0.6983,0.704,0.7152,0.721,0.721,0.721,0.721,0.721,0.721,0.721,0.7768,0.7989,0.8045,0.8605,0.8885,0.8885,0.8885,0.8885,0.8937,0.9533,1.084,1.258,1.3727,1.4843,1.568,1.5547,1.5499,1.5457,1.5197,1.5197,1.5282,1.5149,1.517,1.5189,0.0,0.0,0.0,0.0,0.0,0.0,0.0,0.0,0.0,0.0,0.0,0.0,0.0,0.0,1.5107,1.5107,0.0,1.5499,1.5499,1.5722,1.5934,1.6066,1.6199,1.6278,1.6278,1.6519,1.6742,1.6881,1.7135,1.7286,1.7286,1.7406,1.7485,1.7485,1.7185,1.6832,1.6537,1.6183,1.5769,1.5116,1.5116,1.4588,1.3574,1.3574,1.244,1.046,1.0017,0.9085,0.782,0.7376,0.721,0.721,0.721,0.721,0.721,0.721,0.721,0.721,0.721,0.721,0.7202,0.0,0.0,0.0,0.0,0.0,0.0706,0.2871,0.3224,0.4004,0.6292,0.6619,0.6665,0.6787,0.6801,0.6801,0.6801,0.6823,0.6836,0.6836,0.695,0.7018,0.7018,0.7161,0.721,0.721,0.721,0.721,0.721,0.721,0.721,0.721,0.7768,0.7989,0.8045,0.8605,0.8885,0.8885,0.8885,0.8885,0.8885,0.8885,0.9644,1.0891,1.2802,1.4259,1.5246,1.5353,1.5318,1.5167,1.5065,1.5065,1.5107,1.5107,1.4932,1.4714,1.4714,1.4558,0.0,0.0,0.0,0.0,0.0,0.0,0.0,0.0,1.603,1.5923,1.5281,1.5228,1.5264,1.5264,1.5433,1.5572,1.5572,1.5753,1.5982,1.6241,1.6326,1.638,1.6435,1.6827,1.7111,1.7165,1.7241,1.7309,1.7309,1.7309,1.725,1.7126,1.6832,1.6537,1.6118,1.5774,1.5235,1.4451,1.4451,1.4001,1.3122,1.3122,1.2397,1.1072,1.0351,0.9471,0.8429,0.7598,0.7321,0.7432,0.7265,0.721,0.721,0.721,0.721,0.721,0.721,0.721,0.721,0.0,0.0,0.0,0.0,0.0,0.0706,0.2871,0.3224,0.4004,0.6292,0.6619,0.6665,0.6787,0.6801,0.6801,0.6801,0.6902,0.6964,0.6964,0.7125,0.7191,0.7191,0.7202,0.721,0.721,0.721,0.721,0.721,0.721,0.721,0.721,0.7768,0.7989,0.8045,0.8605,0.8885,0.8885,0.8885,0.8885,0.8885,0.8885,0.9644,1.0726,1.1,1.2457,1.4393,1.4952,1.5282,1.5384,1.492,1.4914,1.5107,1.5107,1.4932,1.4714,1.4714,1.4696,1.4618,1.4461,1.4442,1.4509,1.4888,1.4961,1.4979,0.0,1.5384,1.5555,1.5457,1.5638,1.5801,1.5801,1.5831,1.5849,1.5849,1.5867,1.5982,1.6241,1.6495,1.6742,1.6972,1.7056,1.7183,1.7418,1.6932,1.6596,1.6596,1.6596,1.636,1.5833,1.6838,1.6591,1.4867,1.5294,1.5002,1.3803,1.3808,1.3539,1.3122,1.3122,1.2397,1.1072,1.1017,1.008,0.8429,0.7598,0.7654,0.8318,0.7543,0.721,0.721,0.721,0.721,0.721,0.721,0.721,0.721,0.0,0.0,0.0,0.0,0.0,0.0706,0.2871,0.3224,0.3987,0.6202,0.6462,0.6481,0.6584,0.6589,0.6619,0.669,0.6962,0.7172,0.7248,0.7477,0.7654,0.7654,0.749,0.7438,0.7438,0.7268,0.721,0.721,0.7379,0.7438,0.7438,0.8045,0.8263,0.8318,0.8712,0.8885,0.8885,0.8885,0.8885,0.8885,0.8885,0.921,0.9754,1.0457,1.1263,1.2205,1.3623,1.4606,0.0,1.4654,1.4545,1.4636,1.4636,1.4558,1.4473,1.4473,1.4473,1.4443,1.4328,1.4419,1.4606,1.4877,1.5059,1.524,1.5499,1.565,1.5728,1.5728,1.5813,1.5891,1.5891,1.5891,1.5891,1.5891,1.5891,1.5982,1.6241,1.6525,1.6797,1.7062,1.7225,1.7247,1.6938,1.7009,1.695,1.6537,1.6832,1.6773,1.6183,1.6655,1.6236,1.4629,1.4873,1.458,1.3688,1.3688,1.348,1.3122,1.3122,1.2679,1.1837,1.1345,1.041,0.9196,0.8315,0.8152,0.8429,0.7543,0.721,0.721,0.721,0.721,0.721,0.721,0.721,0.721,0.0,0.0,0.0,0.0,0.0,0.0606,0.2469,0.3022,0.3877,0.5734,0.6234,0.6387,0.6387,0.6487,0.6573,0.6666,0.7041,0.7328,0.746,0.775,0.795,0.7986,0.7826,0.7715,0.7715,0.7435,0.7324,0.7432,0.7549,0.7662,0.7715,0.8266,0.8484,0.8484,0.8768,0.8885,0.8885,0.8885,0.8885,0.8885,0.8885,0.8885,0.8989,0.9808,1.0309,1.0764,1.2703,1.3869,0.0,1.4358,1.4298,1.4298,1.4298,1.4298,1.4298,1.4298,1.4298,1.4316,1.4389,1.4564,1.4781,1.504,1.5306,1.5565,1.5831,1.5891,1.5891,1.5891,1.5891,1.5891,1.5891,1.5891,1.5891,1.5891,1.5891,1.5982,1.6241,1.6525,1.6797,1.7062,1.7322,1.7244,1.6596,1.695,1.695,1.6301,1.6832,1.695,1.6301,1.6596,1.6177,1.4932,1.4873,1.4575,1.3923,1.3808,1.348,1.3122,1.3122,1.2847,1.2387,1.1509,1.0903,1.0457,0.9361,0.8978,0.9147,0.8042,0.7543,0.7543,0.7321,0.721,0.721,0.721,0.721,0.721,0.0,0.0,0.0,0.0,0.0,0.0353,0.1462,0.2519,0.3575,0.4682,0.5734,0.6387,0.6387,0.6639,0.6795,0.6801,0.7169,0.7455,0.7592,0.7719,0.785,0.7983,0.7989,0.7989,0.7989,0.7715,0.7715,0.7989,0.7715,0.7715,0.7989,0.8318,0.8484,0.8484,0.8768,0.8885,0.8885,0.8885,0.8885,0.8885,0.8885,0.8885,0.8868,0.8774,0.9463,1.0764,1.2703,0.0,1.3303,1.4044,1.4298,1.4298,1.4298,1.4298,1.4298,1.4298,1.4298,1.4358,1.463,1.4708,1.4781,1.504,1.5306,1.5565,1.5831,1.5891,1.5891,1.5891,1.5891,1.5891,1.5891,1.5891,1.5891,1.5891,1.5891,1.5982,1.6241,1.6525,1.6797,1.7062,1.7322,1.7244,0.0,1.6537,1.6301,1.5661,1.6183,1.6242,1.5655,1.6773,1.6891,1.5596,1.5601,1.5235,1.457,1.3983,1.348,1.3122,1.3122,1.2847,1.2387,1.1509,1.1564,1.2219,1.0511,1.0241,1.0907,0.9144,0.8484,0.8374,0.7543,0.721,0.721,0.721,0.721,0.721,0.0,0.0,0.0,0.0556,0.0556,0.0908,0.1964,0.2869,0.3825,0.4937,0.5989,0.0,0.0,0.0,0.0,0.0,0.7465,0.7769,0.7817,0.8199,0.8406,0.8455,0.8381,0.8318,0.8318,0.8045,0.7934,0.7989,0.8156,0.8266,0.8318,0.8657,0.8768,0.8768,0.8881,0.8885,0.8885,0.8885,0.8885,0.8875,0.8828,0.8788,0.8771,0.8618,0.8762,0.9235,0.0,0.0,1.3243,1.4038,1.4298,1.4298,1.4298,1.4298,1.4334,1.4521,1.4443,1.4395,1.4853,1.498,1.504,1.5306,1.5565,1.5783,1.5867,1.5891,1.5891,1.5891,1.5753,1.5626,1.5626,1.5487,1.5427,1.5602,1.5626,1.5722,1.5982,1.6266,1.6537,1.6803,1.7062,0.0,0.0,0.0,0.0,1.6248,1.6773,1.6891,1.6242,1.7015,1.6891,1.5661,1.6011,1.5704,1.4629,1.4257,1.3747,1.3122,1.2781,1.2578,1.2382,1.211,1.211,1.2327,1.1177,1.0848,1.0962,0.9199,0.8484,0.8429,0.7543,0.721,0.721,0.721,0.721,0.721,0.0,0.0,0.0,0.0,0.0,0.0,0.0,0.0,0.0,0.0,0.0,0.0,0.0,0.0,0.0,0.0,0.0,0.795,0.8054,0.834,0.8574,0.8625,0.8554,0.8496,0.8496,0.8224,0.8139,0.8249,0.8407,0.854,0.8654,0.8826,0.8885,0.8885,0.8885,0.8854,0.8804,0.8804,0.8825,0.8767,0.8669,0.8628,0.8611,0.8462,0.835,0.0,0.0,0.0,1.2038,1.332,1.4004,1.4298,1.4298,1.4298,1.4334,1.4515,1.4509,1.4521,1.4871,1.5107,1.5288,1.5457,1.5692,1.5891,1.5891,1.5891,1.5861,1.5771,1.5614,1.5469,1.5372,1.5221,1.5191,1.5457,1.5499,1.559,1.5855,1.6127,1.6362,1.6531,1.6869,1.698,0.0,0.0,0.0,1.6537,1.7126,1.7309,1.6891,1.7244,1.7132,1.6307,1.6419,1.6118,1.5283,1.4652,1.3871,1.3013,1.2606,1.2387,1.2387,1.2387,1.2387,1.2387,1.1782,1.1564,1.1455,1.0025,0.9254,0.8868,0.7986,0.7487,0.721,0.721,0.721,0.721,0.0,0.0,0.0,0.0,0.0,0.0,0.0,0.0,0.0,0.0,0.0,0.0,0.0,0.0,0.0,0.0,0.0,0.0,0.8248,0.832,0.0,0.8465,0.8479,0.8482,0.8482,0.8361,0.8433,0.8699,0.8562,0.8634,0.8861,0.8861,0.8861,0.8861,0.8861,0.8835,0.8699,0.8699,0.8615,0.8482,0.8476,0.8472,0.8455,0.8313,0.0,0.0,0.0,0.9558,0.9899,1.1999,1.3414,1.4298,1.4298,1.4298,1.4298,1.4316,1.4509,1.4727,1.4751,1.5119,1.5499,1.5517,1.5704,1.5891,1.5891,1.5879,1.5801,1.5553,1.5475,1.5384,1.5137,1.5089,1.5173,1.5439,1.5487,1.559,1.5855,1.6103,1.6266,1.6278,1.6748,1.7074,1.7092,1.7328,0.0,1.6596,0.0,1.7485,1.7485,1.7485,1.7485,1.7485,1.6891,1.6537,1.6478,1.5051,1.3787,1.2804,1.254,1.2387,1.2387,1.2387,1.2387,1.2387,1.2387,1.2387,1.2332,1.1455,1.0629,0.9798,0.8868,0.7986,0.7265,0.721,0.721,0.721,0.0,0.0,0.0,0.0,0.0,0.0,0.0,0.0,0.0,0.0,0.0,0.0,0.0,0.0,0.0,0.0,0.0,0.0,0.8096,0.0,0.0,0.0,0.0,0.0,0.0,0.0,0.0,0.854,0.8524,0.8541,0.8598,0.8598,0.8598,0.8598,0.8598,0.8577,0.854,0.854,0.8516,0.8472,0.0,0.8378,0.8306,0.0,0.0,0.0,0.0,0.892,0.9899,1.1999,1.3414,1.4298,1.4298,1.4298,1.434,1.4552,1.466,1.4805,1.5191,1.5396,1.5547,1.5741,1.5843,1.5891,1.5891,1.5741,1.5578,1.5511,1.5191,1.4896,1.4829,1.4817,1.4902,1.5167,1.5372,1.559,1.5855,1.5946,1.606,1.626,1.6585,1.6875,1.7074,1.7328,0.0,0.0,1.7426,1.7485,1.7485,1.7485,1.7485,1.7485,1.7303,1.7009,1.6478,1.4882,1.3774,1.3183,1.2633,1.2387,1.2387,1.2387,1.2387,1.2387,1.2387,1.2387,1.2332,1.1455,1.0962,1.0629,0.9089,0.8374,0.8097,0.7432,0.721,0.721,0.0,0.0,0.0,0.0,0.0,0.0,0.0,0.0,0.0,0.0,0.0,0.0,0.0,0.0,0.0,0.0,0.0,0.0,0.0,0.0,0.0,0.0,0.0,0.0,0.0,0.0,0.0,0.0,0.0,0.0,0.8482,0.8482,0.8482,0.8482,0.8482,0.8445,0.8387,0.8387,0.0,0.0,0.0,0.0,0.0,0.0,0.0,0.0,0.7988,0.8676,0.9854,1.1512,1.3076,1.4298,1.4298,1.4298,1.4328,1.4485,1.4702,1.495,1.5246,1.5493,1.5704,1.5855,1.5891,1.5861,1.5741,1.5602,1.5433,1.5203,1.492,1.4714,1.4714,1.4714,1.4841,1.5215,1.5403,1.559,1.5855,1.5891,1.5946,1.6091,1.6459,1.6761,1.6905,1.7261,1.7485,0.0,1.7485,1.7485,1.7485,1.7485,1.7485,1.7485,1.7485,1.7072,1.6206,1.5134,1.4148,1.3315,1.2935,1.2659,1.2387,1.2387,1.2387,1.2387,0.0,1.2387,1.2387,1.1891,1.1455,1.1017,1.0025,0.9199,0.8429,0.7931,0.7543,0.721,0.0,0.0,0.0,0.0,0.0,0.0,0.0,0.0,0.0,0.0,0.7988,0.7988,0.0,0.0,0.0,0.0,0.0,0.0,0.0,0.0,0.0,0.0,0.0,0.0,0.0,0.0,0.0,0.0,0.0,0.0,0.0,0.0,0.0,0.0,0.0,0.0,0.0,0.0,0.0,0.0,0.0,0.0,0.0,0.0,0.0,0.0,0.7988,0.8676,0.9756,1.0828,1.249,1.41,1.425,1.4298,1.4298,1.4298,1.4654,1.5065,1.5101,1.5469,1.5849,1.5879,1.5891,1.5819,1.5559,1.5475,1.5306,1.4817,1.469,1.4672,1.4708,1.4714,1.489,1.5415,1.5499,1.559,1.5855,1.5891,1.5891,1.5891,1.6368,1.67,1.67,1.7177,1.7485,1.7485,1.7485,1.7485,1.7485,1.7485,1.7485,1.7485,1.7449,1.6958,1.5952,1.5588,1.479,1.3532,1.3478,1.3098,1.2495,1.2495,1.2495,1.2387,0.0,0.0,1.2387,1.2387,1.1946,1.1236,1.1126,1.0135,0.8647,0.854,0.7931,0.721,0.0,0.0,0.0,0.0,0.0,0.0,0.0,0.0,0.0,0.0,0.7988,0.7988,0.0,0.0,0.0,0.0,0.0,0.0,0.0,0.0,0.0,0.0,0.0,0.0,0.0,0.0,0.0,0.8029,0.8056,0.0,0.0,0.0,0.0,0.0,0.0,0.0,0.0,0.0,0.0,0.0,0.0,0.0,0.0,0.0,0.0,0.0,0.7988,0.8676,0.9756,1.0828,1.1999,1.3119,1.4004,1.4298,1.4298,1.4298,1.4527,1.4829,1.5046,1.533,1.562,1.5831,1.5891,1.5819,1.5559,1.533,1.5089,1.4781,1.4533,1.4443,1.4672,1.4714,1.489,1.5415,1.5499,1.559,1.5855,1.5891,1.5891,1.5891,1.6368,1.67,1.67,1.7177,0.0,0.0,1.7485,1.7485,1.7485,1.7485,1.7485,1.7485,1.7267,1.6957,1.6532,1.576,1.5178,1.4713,1.4283,1.3743,1.3152,1.3152,1.2881,1.2387,1.2387,0.0,1.2387,1.2387,1.2327,1.211,1.14,1.0464,0.9467,0.8758,0.7931,0.721,0.0,0.0,0.0,0.0,0.0,0.0,0.0,0.769,0.7988,0.7988,0.7988,0.7988,0.7988,0.7988,0.7988,0.0,0.0,0.0,0.0,0.0,0.0,0.0,0.0,0.0,0.0,0.7988,0.7988,0.7988,0.0,0.7988,0.7988,0.7988,0.7988,0.7988,0.0,0.0,0.0,0.0,0.0,0.0,0.0,0.0,0.0,0.0,0.0,0.0,0.0,0.821,0.8826,0.984,1.0801,1.1931,1.3724,1.4298,1.4298,1.4298,1.4497,1.4745,1.4871,1.5197,1.5529,1.5656,1.5789,1.5783,1.5384,1.5197,1.4992,1.4582,1.4389,1.4383,1.4666,1.4714,1.4841,1.5234,1.5409,1.5541,1.5668,1.5807,1.5891,1.5891,1.6241,1.6537,1.6688,1.705,1.7334,1.7473,1.7485,1.7485,1.7485,1.7485,1.7485,1.7485,1.7092,1.6827,1.67,1.6016,1.5425,1.4987,1.4713,1.4175,1.3315,1.3315,1.2985,1.2387,1.2387,0.0,1.2387,1.2387,1.2387,1.2387,1.1946,1.0954,0.9743,0.9306,0.8312,0.721,0.0,0.0,0.0,0.0,0.0,0.0,0.7686,0.7988,0.7988,0.7988,0.7988,0.7988,0.7988,0.7988,0.7988,0.0,0.0,0.0,0.0,0.0,0.0,0.0,0.0,0.0,0.0,0.0,0.0,0.7988,0.7988,0.0,0.0,0.0,0.0,0.0,0.7988,0.7988,0.7988,0.0,0.0,0.0,0.0,0.0,0.0,0.0,0.0,0.0,0.0,0.779,0.789,0.8894,0.968,1.07,1.3084,1.4023,1.4214,1.4214,1.4407,1.4642,1.4702,1.5016,1.5348,1.5403,1.5572,1.5602,1.5131,1.5022,1.489,1.4395,1.4298,1.4383,1.4666,1.4666,1.4733,1.5059,1.5234,1.5372,1.5481,1.5674,1.5831,1.5885,1.6121,1.6392,1.6676,1.6936,0.0,1.7461,1.7485,0.0,1.7485,1.7485,1.7455,1.74,1.6948,1.667,1.661,1.6133,1.5678,1.5196,1.5196,1.4659,1.364,1.3532,1.3147,1.2604,1.2441,0.0,0.0,1.2387,1.2387,1.2387,1.2387,1.1337,0.9798,0.9798,0.8696,0.721,0.0,0.0,0.0,0.0,0.0,0.0,0.7686,0.7988,0.7988,0.7988,0.7988,0.7988,0.7988,0.7988,0.7988,0.0,0.0,0.0,0.0,0.0,0.0,0.0,0.0,0.0,0.0,0.0,0.0,0.7988,0.7988,0.0,0.0,0.0,0.0,0.0,0.0,0.7988,0.7988,0.7988,0.0,0.0,0.0,0.0,0.0,0.0,0.0,0.0,0.0,0.7729,0.7755,0.8859,0.9266,0.9689,1.1656,1.3037,1.3942,1.3942,1.4129,1.4389,1.4648,1.4751,1.4847,1.5083,1.5161,1.5107,1.4817,1.4751,1.4666,1.4358,1.4298,1.4383,1.4666,1.4509,1.4503,1.5022,1.4932,1.4956,1.5433,1.5517,1.5626,1.5861,1.6121,1.6392,1.6676,1.6936,1.7201,1.7461,1.7485,0.0,1.7485,1.7485,1.7376,1.7135,1.6851,1.6579,1.632,1.6036,1.5891,1.5838,1.5838,1.5464,1.4821,1.4331,1.3792,1.3207,1.2659,0.0,0.0,1.2387,1.2387,1.2387,1.2387,1.1337,0.9798,0.9798,0.8696,0.721,0.0,0.0,0.0,0.0,0.0,0.0,0.7786,0.7988,0.7988,0.7988,0.7988,0.7988,0.7988,0.7988,0.7988,0.7988,0.0,0.0,0.0,0.0,0.0,0.0,0.0,0.0,0.0,0.0,0.7988,0.7988,0.7988,0.0,0.0,0.0,0.0,0.0,0.0,0.7988,0.7988,0.0,0.0,0.0,0.0,0.0,0.0,0.0,0.0,0.0,0.0,0.0,0.754,0.7849,0.8706,0.9776,1.0524,1.1992,1.3465,1.3628,1.3857,1.4087,1.4195,1.4467,1.4745,1.4847,1.4992,1.504,1.4775,1.4714,1.4636,1.4358,1.4298,1.4334,1.4443,1.437,1.437,1.4588,1.4672,1.4841,1.5215,1.5396,1.5596,1.5855,1.5982,1.6217,0.0,0.0,1.7032,1.7449,1.7485,0.0,1.7255,1.7249,1.7201,1.7092,1.6682,1.6404,1.6278,1.6018,1.5891,1.5891,1.5891,1.5571,1.4982,1.4439,1.3851,1.3261,1.2659,0.0,0.0,1.2387,1.2387,1.2387,1.2387,1.1673,1.0519,1.0017,0.903,0.7931,0.0,0.0,0.0,0.0,0.0,0.6786,0.7839,0.7988,0.7988,0.7988,0.7988,0.7988,0.7988,0.8088,0.8137,0.8137,0.8137,0.0,0.0,0.0,0.0,0.0,0.0,0.0,0.0,0.0,0.8088,0.7988,0.7988,0.7988,0.0,0.0,0.7988,0.7988,0.0,0.0,0.0,0.0,0.0,0.0,0.0,0.0,0.0,0.0,0.0,0.0,0.0,0.0,0.0,0.0,0.0,0.9531,0.9792,1.1125,1.2654,1.3231,1.3586,1.3809,1.3888,1.4183,1.4497,1.4576,1.4672,1.4702,1.4521,1.4479,1.4425,1.422,1.4244,1.4298,1.4298,1.4298,1.4298,1.4298,1.4467,1.4714,1.5059,1.527,1.5511,1.5849,1.5891,1.6072,1.6531,1.6718,1.6936,1.7231,0.0,0.0,1.699,1.6905,1.6857,1.6851,1.6495,1.6254,1.6169,1.5982,1.5891,1.5891,1.5891,1.5678,1.525,1.4708,1.4121,1.3527,0.0,0.0,0.0,1.2387,1.2387,1.2387,1.2387,1.1891,1.1017,1.0127,0.9251,0.8374,0.0,0.0,0.0,0.0,0.0,0.0,0.7839,0.7988,0.7988,0.7988,0.7988,0.7988,0.7988,0.8233,0.8382,0.8382,0.8382,0.0,0.0,0.0,0.0,0.0,0.0,0.0,0.0,0.0,0.8283,0.7988,0.7988,0.7988,0.7988,0.7988,0.7988,0.7988,0.0,0.0,0.0,0.0,0.0,0.0,0.0,0.0,0.0,0.0,0.0,0.0,0.0,0.0,0.0,0.0,0.0,0.0,0.0,1.0539,1.1548,1.2736,1.327,1.3574,1.3833,1.3912,1.3978,1.4238,1.4111,1.3918,1.3918,1.3918,1.3912,1.3912,1.4117,1.4298,1.4298,1.4298,1.4298,1.4298,1.4298,1.4491,1.5034,1.5113,1.5306,1.5831,1.5891,1.5994,1.626,1.6773,1.6984,1.6724,0.0,0.0,1.6718,1.6459,1.6308,1.629,1.6284,1.6157,1.5897,1.5891,1.5891,1.5891,1.5891,1.5891,1.5891,1.525,1.4713,0.0,0.0,0.0,0.0,1.2387,1.2387,1.2387,1.2387,1.1891,1.1017,1.0127,0.9251,0.8374,0.0,0.0,0.0,0.0,0.0,0.0,0.8478,0.8528,0.8528,0.8528,0.8528,0.8528,0.8528,0.8627,0.8676,0.8676,0.8676,0.0,0.0,0.0,0.0,0.0,0.0,0.0,0.0,0.8361,0.8211,0.7924,0.7924,0.788,0.774,0.7987,0.8136,0.814,0.8534,0.8627,0.0,0.0,0.0,0.0,0.0,0.0,0.0,0.0,0.0,0.0,0.0,0.0,0.0,0.0,0.0,0.0,0.0,0.0,0.0,1.2549,1.3031,1.3266,1.335,1.3501,1.3658,1.3743,1.3701,1.364,1.364,1.3779,1.3906,1.3906,1.4117,1.4298,1.4298,1.4298,1.4298,1.4298,1.4298,1.4491,1.5028,1.5107,1.5306,1.5831,1.6048,1.6187,0.0,0.0,1.6791,0.0,0.0,0.0,1.6429,1.6338,1.6284,1.6278,1.6109,1.5976,1.5891,1.5891,1.5891,1.5891,1.5891,1.5891,1.5891,1.5303,0.0,0.0,0.0,0.0,0.0,1.3039,1.3039,1.2985,1.255,1.2495,1.2441,1.1177,1.0519,1.0135,0.0,0.0,0.0,0.0,0.0,0.0,0.8825,0.8825,0.8825,0.8825,0.8825,0.8825,0.8825,0.8878,0.8928,0.8928,0.9027,0.0,0.0,0.0,0.0,0.0,0.0,0.0,0.8497,0.8483,0.8337,0.8059,0.8059,0.7966,0.7879,0.812,0.8258,0.8266,0.8598,0.8725,0.0,0.0,0.0,0.0,0.0,0.0,0.8708,0.0,0.0,0.0,0.0,0.0,0.0,0.0,0.0,0.0,0.0,0.0,0.0,0.0,1.3047,1.3082,1.3097,1.3197,1.3393,1.3489,1.3441,1.3369,1.3369,1.3495,1.364,1.3737,1.3966,1.4177,1.428,1.4298,1.4298,1.4298,1.4298,1.4491,1.5028,1.5107,1.5306,1.5831,1.6036,0.0,0.0,1.638,1.6501,0.0,0.0,0.0,1.6145,1.6133,1.6133,1.6133,1.5976,1.5891,1.5891,1.5891,1.5891,1.5891,1.5891,1.5891,1.5891,1.5517,0.0,0.0,0.0,0.0,0.0,1.3635,1.3635,1.3581,1.2985,1.2985,1.3098,1.1618,1.1072,1.0962,0.0,0.0,0.0,0.0,0.0,0.0,0.0,0.8874,0.8874,0.8874,0.8874,0.8874,0.8874,0.908,0.9236,0.9236,0.943,0.0,0.0,0.0,0.0,0.0,0.0,0.0,0.8372,0.8586,0.8579,0.8303,0.8303,0.8303,0.8257,0.8314,0.8322,0.8322,0.861,0.8706,0.8683,0.9033,0.9345,0.9575,0.9453,0.9232,0.0,0.0,0.0,0.0,0.0,0.0,0.0,0.0,0.0,0.0,0.0,0.0,0.0,0.0,0.0,0.0,0.0,1.3091,1.3107,1.3399,1.3272,1.3053,1.3053,1.3109,0.0,1.3459,1.3725,1.3984,1.425,1.4298,1.4298,1.4298,1.4298,1.4491,1.5028,1.5143,1.5348,1.5831,1.5891,0.0,1.5891,1.6109,0.0,0.0,0.0,0.0,1.5903,1.5891,1.5891,1.5891,1.5891,1.5891,1.5891,1.5891,1.5891,1.5891,1.5891,1.5891,1.5891,1.5891,0.0,0.0,0.0,0.0,0.0,1.4277,1.4277,1.4169,1.3532,1.3315,1.3207,1.1728,1.1181,1.1072,0.0,0.0,0.0,0.0,0.0,0.0,0.0,0.0,0.0,0.0,0.9426,0.9426,0.9426,0.9476,0.9529,0.0,0.0,0.0,0.0,0.0,0.0,0.0,0.0,0.0,0.8699,0.8665,0.8508,0.8228,0.8228,0.8143,0.8016,0.8325,0.8432,0.8482,0.8846,0.8976,0.8973,0.9064,0.9175,0.9218,0.9173,0.9025,0.0,0.0,0.0,0.0,0.8128,0.8028,0.0,0.0,0.0,0.0,0.0,0.0,0.0,0.0,1.327,1.3113,1.3096,0.0,1.2819,1.288,1.285,1.2801,0.0,1.297,1.32,1.3459,1.3725,1.3984,1.425,1.4298,1.4298,1.4298,1.4298,1.4491,1.5028,1.5451,1.5753,1.5879,1.5891,1.5891,1.5891,1.5946,0.0,0.0,0.0,1.5958,1.5891,1.5891,1.5891,1.5891,1.5891,1.5891,1.5891,1.5891,1.5891,1.5891,1.5891,1.5891,1.5891,1.5891,0.0,0.0,0.0,0.0,1.4821,1.4821,1.4821,1.4713,1.3694,1.3581,1.3846,1.2545,1.211,1.206,0.0,0.0,0.0,0.0,0.0,0.0,0.0,0.0,0.0,0.0,0.9579,0.9579,0.9579,0.9579,0.9579,0.0,0.0,0.0,0.0,0.0,0.0,0.0,0.0,0.8783,0.8706,0.8657,0.852,0.8384,0.8384,0.834,0.8212,0.8439,0.8527,0.8535,0.8843,0.897,0.8974,0.906,0.9096,0.9092,0.9003,0.0,0.0,0.0,0.0,0.0,0.8384,0.8296,0.0,0.8208,0.8815,0.9676,0.0,0.0,0.0,0.0,1.3568,1.3398,1.3398,1.3045,1.2705,1.2705,1.2705,1.2705,1.2705,1.2819,1.3006,1.3278,1.3544,1.3809,1.4069,1.4214,1.4298,1.4298,1.4407,1.4678,1.5215,1.5638,1.5891,1.5891,1.5891,1.5891,0.0,0.0,0.0,0.0,0.0,1.5891,1.5891,1.5891,1.5891,1.5891,1.5891,1.5891,1.5891,1.5891,1.5891,1.5891,1.5891,1.5891,1.5891,1.5891,1.5891,0.0,0.0,0.0,1.541,1.541,1.541,1.5303,1.4444,1.4121,1.4116,1.3147,1.2659,1.2387,0.0,0.0,0.0,0.0,0.0,0.0,0.0,0.0,0.0,0.0,0.0,0.0,0.0,0.0,0.0,0.0,0.0,0.0,0.0,0.0,0.0,0.0,0.8881,0.8714,0.8612,0.8612,0.8612,0.8612,0.8612,0.8612,0.8612,0.8612,0.8612,0.8616,0.8718,0.8783,0.8792,0.895,0.9019,0.9003,0.8844,0.0,0.0,0.0,0.0,0.0,0.0,0.0,0.0,0.8612,0.9257,1.0246,1.1063,0.0,0.0,0.0,0.0,0.0,1.3695,1.3264,1.279,1.279,1.279,1.279,1.279,1.279,1.2826,1.3105,1.3332,1.3598,1.3857,1.4123,1.4298,1.4298,1.4564,1.4944,1.5433,1.5722,1.5891,1.5891,1.5891,0.0,0.0,0.0,0.0,0.0,0.0,1.5891,1.5891,1.5891,1.5891,1.5891,1.5891,1.5891,1.5891,1.5891,1.5891,1.5891,1.5891,1.5891,1.5891,1.5891,1.5891,0.0,0.0,0.0,1.5891,1.5891,1.5891,1.5838,1.525,1.4713,1.4277,1.3635,1.3044,1.2495,0.0,0.0,0.0,0.0,0.0,0.0,0.0,0.0,0.0,0.0,0.0,0.0,0.0,0.0,0.0,0.0,0.0,0.0,0.0,0.0,0.0,0.8869,0.8698,0.8641,0.8612,0.8612,0.8612,0.8612,0.8612,0.8612,0.8612,0.8612,0.8612,0.8612,0.8641,0.8649,0.8653,0.8682,0.8694,0.869,0.8661,0.0,0.0,0.0,0.0,0.0,0.0,0.0,0.0,0.8612,0.9689,1.1106,1.1235,0.0,0.0,0.0,0.0,0.0,1.3695,1.3519,1.3307,1.3307,1.3307,1.3307,1.3307,1.3179,1.3132,1.3399,1.346,1.3598,1.3857,1.4123,1.4298,1.4298,1.4721,1.5155,0.0,0.0,1.5891,1.5891,0.0,0.0,0.0,0.0,0.0,0.0,0.0,1.5891,1.5891,1.5891,1.5891,1.5891,1.5891,1.5891,1.5891,1.5891,1.5891,1.5891,1.5891,1.5891,1.5891,1.5891,1.5891,0.0,0.0,1.5891,1.5891,1.5891,1.5891,1.5838,1.525,1.4928,1.4821,1.4277,1.3689,1.2876,0.0,0.0,0.0,0.0,0.0,0.0,0.0,0.0,0.0,0.0,0.0,0.0,0.0,0.0,0.0,0.0,0.0,0.0,0.0,0.0,0.9015,0.8828,0.8658,0.8612,0.8612,0.8612,0.8612,0.8612,0.8612,0.8828,0.9301,0.982,0.9515,0.8656,0.9602,0.9519,0.8656,0.9646,0.9476,0.8656,0.0,0.0,0.0,0.0,0.0,0.0,0.0,0.0,0.0,0.0,1.0202,1.1408,1.1886,0.0,0.0,0.0,0.0,0.0,1.3913,1.387,1.3818,1.3975,1.3677,1.3355,1.327,1.3185,1.3132,1.328,1.3416,1.3598,1.3857,1.4123,1.4395,1.4684,0.0,1.5409,1.5674,1.5813,1.5891,0.0,0.0,0.0,0.0,0.0,0.0,0.0,0.0,0.0,1.5891,1.5891,1.5891,1.5891,1.5891,1.5891,1.5891,1.5891,1.5891,1.5891,1.5891,1.5891,1.5891,1.5891,1.5891,1.5891,0.0,1.5891,1.5891,1.5891,1.5891,1.5891,1.5571,1.5303,1.4874,1.4013,1.3527,1.2985,0.0,0.0,0.0,0.0,0.0,0.0,0.0,0.0,0.0,0.0,0.0,0.0,0.0,0.0,0.0,0.0,0.0,0.0,0.0,0.9169,0.8999,0.8771,0.8637,0.8612,0.8612,0.8612,0.8612,0.8612,0.8784,0.9345,1.0246,1.0982,1.0549,0.9301,1.0679,1.0549,0.9301,1.0722,1.0511,0.9301,0.0,0.0,0.0,0.0,0.0,0.0,0.0,0.0,0.0,0.0,0.0,0.0,0.0,0.0,0.0,1.4088,1.4088,1.4088,1.4088,1.4088,1.4142,1.4362,1.4038,1.3641,1.3576,1.3502,1.3436,1.3434,1.3648,1.3802,1.3963,1.4219,1.4552,1.5028,1.533,1.559,1.5855,1.5891,1.5891,1.5891,0.0,0.0,0.0,0.0,0.0,0.0,0.0,0.0,1.5891,1.5891,1.5891,1.5891,1.5891,1.5891,1.5891,1.5891,1.5891,1.5891,1.5891,1.5891,1.5891,1.5891,1.5891,1.5891,1.5891,1.5891,1.5891,1.5891,1.5891,1.5891,1.5891,1.5624,1.5089,1.4067,1.364,1.3202,0.0,0.0,0.0,0.0,0.0,0.0,0.0,0.0,0.0,0.0,0.0,0.0,0.0,0.0,0.0,0.0,0.0,0.0,0.0,0.9104,0.8946,0.8645,0.8616,0.8612,0.8612,0.8612,0.8612,0.8612,0.9428,1.0289,1.1198,1.1284,1.1241,1.1111,1.1241,1.1241,1.1111,1.1241,1.1235,1.1111,1.1154,0.0,0.0,0.0,0.0,0.0,0.0,0.0,0.0,0.0,0.0,0.0,0.0,0.0,1.4088,1.4088,1.4088,1.4088,1.4088,1.4088,1.4088,1.4115,1.4259,1.4512,1.4792,1.4673,1.4488,1.4514,1.4559,1.4526,1.4325,1.4485,1.4781,1.5065,1.533,1.559,1.5855,0.0,1.5891,0.0,0.0,0.0,0.0,0.0,0.0,0.0,0.0,0.0,1.5891,1.5891,1.5891,1.5891,1.5891,1.5891,1.5891,1.5891,1.5891,1.5891,1.5891,1.5891,1.5891,1.5891,1.5891,1.5891,1.5891,1.5891,1.5891,1.5891,1.5891,1.5891,1.5891,1.5891,1.5785,1.5089,1.4546,1.3786,0.0,0.0,0.0,0.0,0.0,0.0,0.0,0.0,0.0,0.0,0.0,0.9579,0.9579,0.0,0.0,0.0,0.0,0.0,0.912,0.9096,0.8938,0.8624,0.8612,0.8612,0.8612,0.8612,0.8872,0.9428,1.0895,1.1542,1.1322,1.2491,1.24,1.137,1.2528,1.24,1.137,1.2528,1.2363,1.137,1.1929,1.1628,0.0,0.0,0.0,0.0,0.0,0.0,0.0,0.0,1.24,1.279,1.3392,1.3828,1.4088,1.4088,1.4088,1.4088,1.4088,1.4222,1.4402,1.4633,1.485,1.4952,1.4566,1.4556,1.4592,1.4636,1.4807,1.4972,1.5022,1.515,1.5234,1.5336,1.5572,1.5777,1.5879,0.0,0.0,0.0,0.0,0.0,0.0,0.0,0.0,0.0,0.0,0.0,0.0,1.5891,1.5891,1.5891,1.5891,1.5891,1.5891,1.5891,1.5891,1.5891,1.5891,1.5891,1.5891,1.5891,1.5891,1.5891,1.5891,1.5891,1.5891,1.5891,1.5891,1.5891,1.5891,1.5891,1.5838,1.5196,1.4874,1.4326,0.0,0.0,0.0,0.0,0.0,0.0,0.0,0.0,0.9579,0.0,0.0,0.0,0.0,0.9579,0.0,0.0,0.0,0.0,0.912,0.9096,0.8938,0.8624,0.8872,0.8999,0.8999,0.9301,0.9602,0.9903,1.18,1.2528,1.2229,1.3483,1.3398,1.2229,1.3525,1.3392,1.2272,1.3568,1.3349,1.2229,1.2875,1.2571,0.0,0.0,0.0,0.0,0.0,0.0,0.0,0.0,1.3137,1.3264,1.3913,1.4088,1.4088,1.4088,1.4088,1.4088,1.4088,1.4302,1.4569,1.477,1.511,1.5245,1.4711,1.4792,1.5035,1.5183,1.5332,1.5507,1.5632,1.5626,0.0,0.0,1.5722,1.5891,0.0,0.0,0.0,0.0,0.0,0.0,0.0,0.0,0.0,0.0,0.0,0.0,0.0,1.5891,1.5891,1.5891,1.5891,1.5891,1.5891,1.5891,1.5891,1.5891,1.5891,1.5891,1.5891,1.5891,1.5891,1.5891,1.5891,1.5891,1.5891,1.5891,1.5891,1.5891,1.5891,1.5891,1.5838,1.503,1.4654,1.4164,0.0,0.0,0.0,0.0,0.0,0.0,0.0,0.0,0.9579,0.9579,0.9579,0.0,0.0,0.0,0.0,0.0,0.0,0.0,0.912,0.9096,0.8984,0.8629,0.9428,0.9903,0.9903,1.0847,1.0852,0.9946,1.18,1.3179,1.4088,1.4088,1.4088,1.4088,1.4088,1.4088,1.4088,1.4088,1.4088,1.4088,1.4088,1.3525,1.2705,0.0,0.0,0.0,0.0,0.0,0.0,0.0,1.4088,1.4088,1.4088,1.4088,1.4088,1.4088,1.4088,1.4088,1.4088,1.4302,1.4529,1.4529,1.497,1.5398,1.5404,1.5625,1.5912,1.6213,1.6315,1.6225,1.596,1.5895,0.0,1.5557,1.5722,1.5891,0.0,0.0,0.0,0.0,0.0,0.0,0.0,0.0,0.0,0.0,0.0,0.0,0.0,1.5891,1.5891,0.0,1.5891,1.5891,1.5891,1.5891,1.5891,1.5891,1.5891,1.5891,1.5891,1.5891,1.5891,1.5891,1.5891,1.5891,1.5891,1.5891,1.5891,1.5891,1.5891,1.5891,1.5779,1.4648,1.3835,1.3181,0.0,0.0,0.0,0.0,0.0,0.0,0.0,0.0,0.9579,0.9579,0.9579,0.0,0.0,0.0,0.0,0.0,0.0,0.0,0.912,0.974,0.9931,0.9533,1.0376,1.0895,1.0895,1.18,1.2143,1.1886,1.3094,1.3828,1.4088,1.4088,1.4088,1.4088,1.4088,1.4088,1.4088,1.4088,1.4088,1.4088,1.4088,1.3913,1.3695,0.0,0.0,0.0,0.0,0.0,0.0,0.0,0.0,0.0,1.4088,1.4088,1.4088,1.4088,1.4229,1.4389,1.4389,1.4756,1.5137,1.5137,1.5418,1.5752,1.5965,1.5919,1.5912,1.6213,1.6423,1.651,1.6247,1.6321,0.0,1.5883,1.6003,1.6111,0.0,0.0,0.0,0.0,0.0,0.0,0.0,0.0,0.0,0.0,0.0,0.0,0.0,1.5891,0.0,0.0,1.5891,1.5891,1.5891,1.5891,1.5891,1.5891,1.5891,1.5891,1.5891,1.5891,1.5891,1.5891,1.5891,1.5891,1.5891,1.5891,1.5891,1.5891,1.5891,1.5891,1.5838,1.5512,1.4756,1.3727,0.0,0.0,0.0,0.0,0.0,0.0,1.0939,1.0551,1.04,1.0792,1.0502,1.0404,0.0,0.0,0.0,1.0841,1.0939,0.0,1.045,1.093,1.1051,1.0646,1.1408,1.2015,1.24,1.296,1.3264,1.3264,1.3828,1.4088,1.4088,1.4088,1.4088,1.4088,1.4088,1.4088,1.4088,1.4088,1.4088,1.4088,1.4088,1.4088,1.4088,0.0,0.0,0.0,0.0,0.0,0.0,0.0,0.0,0.0,1.4088,1.4088,1.4088,1.4088,1.4208,1.4349,1.4349,1.4776,1.5224,1.5224,1.5531,1.5905,1.6206,1.6313,1.6406,1.6636,1.6892,1.6964,1.6703,1.6786,0.0,1.6311,1.6371,0.0,0.0,0.0,0.0,0.0,0.0,0.0,0.0,0.0,0.0,0.0,0.0,0.0,0.0,0.0,0.0,0.0,1.5891,1.5891,1.5891,1.5891,1.5891,1.5891,1.5891,1.5891,1.5891,1.5891,1.5891,1.5891,1.5891,1.5891,1.5891,1.5891,1.5891,1.5891,1.5891,1.5891,1.5838,1.5405,1.4482,1.3349,0.0,0.0,1.0988,1.1901,0.0,0.0,1.3022,1.2145,1.1755,1.263,1.195,1.1707,0.0,0.0,0.0,1.2775,1.3022,1.2908,1.246,1.2518,1.2344,1.1886,1.2522,1.3264,1.4088,1.4088,1.4088,1.4088,1.4088,1.4088,1.4088,1.4088,1.4088,1.4088,1.4088,1.4088,1.4088,1.4088,1.4088,1.4088,1.4088,1.4088,1.4088,1.4088,0.0,0.0,0.0,0.0,0.0,0.0,0.0,0.0,1.4088,1.4088,1.4088,1.4088,1.4108,1.4128,1.4128,1.4599,1.5048,1.5048,1.5458,1.5979,1.6253,1.6817,1.7226,1.7172,1.7414,1.7523,1.7193,1.7213,1.712,1.6736,0.0,0.0,0.0,0.0,0.0,0.0,0.0,0.0,0.0,0.0,0.0,0.0,0.0,0.0,0.0,0.0,0.0,1.5891,1.5891,1.5891,1.5891,1.5891,1.5891,0.0,1.5891,1.5891,1.5891,1.5891,1.5891,1.5891,1.5891,1.5891,1.5891,1.5891,1.5891,1.5891,1.5891,1.5891,1.5785,1.4761,1.3506,1.2417,0.0,0.0,1.2909,1.3102,0.0,0.0,1.3392,1.3199,1.3006,1.3022,1.2829,1.278,1.2974,1.3022,0.0,1.3295,1.3392,1.3182,1.2689,1.3341,1.3508,1.3045,1.3669,1.4068,1.4088,1.4088,1.4088,1.4088,1.4088,1.4088,1.4088,1.4088,1.4088,1.4088,1.4088,1.4088,1.4088,1.4088,1.4088,1.4088,1.4088,1.4088,1.4088,1.4088,1.4088,0.0,0.0,0.0,0.0,0.0,0.0,0.0,1.4088,1.4088,1.4088,1.4088,1.4249,1.4429,1.4429,1.4856,1.5304,1.5304,1.5919,1.6533,1.66,1.7068,1.7355,1.6894,1.7215,1.7463,1.6931,1.7173,1.7318,0.0,0.0,0.0,0.0,0.0,0.0,0.0,0.0,0.0,0.0,0.0,0.0,0.0,0.0,0.0,0.0,0.0,0.0,1.5891,1.5891,1.5891,1.5891,1.5891,1.5891,0.0,1.5891,1.5891,1.5891,1.5891,1.5891,1.5891,1.5891,1.5891,1.5891,1.5891,1.5891,1.5891,1.5891,1.5891,1.5891,1.5618,1.4207,1.2417,0.0,0.0,0.0,0.0,0.0,0.0,0.0,0.0,1.4218,1.4686,1.4322,1.4226,1.4704,1.48,0.0,0.0,1.508,1.4937,1.4334,1.4751,1.4669,1.3906,1.4104,1.4201,1.4088,1.4088,1.4166,1.4243,1.4166,1.4088,1.4088,1.4088,1.4088,1.4088,1.4088,1.4088,1.4088,1.4088,1.4088,1.4088,1.4088,1.4088,1.413,1.4201,1.4159,1.413,1.4201,0.0,0.0,0.0,0.0,0.0,0.0,0.0,1.4088,1.4088,1.4195,1.4315,1.4315,1.4636,1.5044,1.5324,1.5952,1.6533,1.6673,1.7054,1.738,1.7161,1.7368,1.7483,1.718,1.7377,1.7477,0.0,0.0,0.0,0.0,0.0,0.0,0.0,0.0,0.0,0.0,0.0,0.0,0.0,0.0,0.0,0.0,1.5891,1.5891,1.5891,1.5891,1.5891,1.5891,1.5891,1.5891,1.5891,1.5891,1.5891,1.5891,1.5891,1.5891,1.5891,1.5891,1.5891,1.5891,1.5891,1.5891,1.5891,1.5891,1.5891,1.582,1.5152,1.3821,1.2194,0.0,0.0,0.0,0.0,0.0,0.0,0.0,0.0,0.0,1.6553,1.5906,1.5669,1.6581,1.6683,1.6683,0.0,0.0,0.0,1.6107,1.5971,1.5496,1.4545,1.437,1.4257,1.4208,1.4208,1.4286,1.4398,1.4243,1.4124,1.4088,1.4088,1.413,1.4166,1.4166,1.4166,1.4166,1.4166,1.4166,1.4166,1.4166,1.4166,1.4208,1.4398,1.4363,1.425,1.4398,1.4321,1.4208,1.4208,0.0,0.0,0.0,0.0,1.4088,1.4088,1.4088,1.4088,1.4088,1.4335,1.4723,1.5264,1.5838,1.6382,1.6573,1.686,1.7206,1.7448,1.7549,1.7582,1.7582,1.7582,0.0,0.0,0.0,0.0,0.0,0.0,0.0,0.0,0.0,0.0,0.0,0.0,0.0,0.0,0.0,0.0,1.5891,1.5891,1.5891,1.5891,1.5891,1.5891,1.5891,1.5891,1.5891,1.5891,1.5891,1.5891,1.5891,1.5891,1.5891,1.5891,1.5891,1.5861,1.5819,1.5819,1.5795,1.5759,1.5759,1.5759,1.5623,1.4502,1.3263,1.1968,0.0,0.0,0.0,0.0,0.0,0.0,0.0,0.0,0.0,0.0,1.6831,1.6784,1.6932,1.6932,1.7019,1.7192,1.7031,1.6762,1.6352,0.0,0.0,1.5006,1.4964,1.4873,1.4615,1.4615,1.4566,1.4398,1.4356,1.4286,1.4088,1.4088,1.4208,1.4356,1.4356,1.4356,1.4356,1.4356,1.4356,1.4356,1.4356,1.444,1.4615,1.465,1.465,1.4615,1.465,1.465,1.4615,1.4615,1.4482,0.0,0.0,0.0,1.4088,1.4088,1.4088,1.4088,1.4088,1.4489,1.5028,1.5311,1.5838,1.6335,1.6375,1.6553,1.6847,0.0,1.746,1.7582,1.7582,0.0,0.0,0.0,0.0,0.0,0.0,0.0,0.0,0.0,0.0,0.0,0.0,0.0,0.0,0.0,0.0,0.0,1.5891,1.5891,1.5891,1.5891,1.5891,1.5891,1.5891,1.5891,1.5891,1.5891,1.5891,1.5891,1.5891,1.5891,1.5891,1.5891,1.5891,1.5759,1.5553,1.5553,1.5421,1.5215,1.5215,1.5215,1.5209,1.5014,1.365,1.1831,0.0,0.0,0.0,0.0,0.0,0.0,0.0,0.0,0.0,0.0,0.0,1.7153,1.7153,1.7153,1.7192,1.7286,1.7033,1.669,1.6148,1.5552,1.5173,1.509,1.4957,1.4824,1.4692,1.4692,1.465,1.4566,1.4482,1.4398,1.4454,1.4321,1.4321,1.4398,1.4524,1.4566,1.4566,1.4566,1.4566,1.4566,1.4566,1.4894,1.5387,1.5026,1.511,1.5387,1.5033,1.4741,1.4524,1.4524,1.4405,1.4243,1.4243,0.0,0.0,0.0,1.4088,1.4088,1.4088,1.4396,1.4783,1.5084,1.5471,1.5865,1.6199,1.6373,1.6547,1.684,1.7001,1.7194,1.7522,0.0,0.0,0.0,0.0,0.0,0.0,0.0,0.0,0.0,0.0,0.0,0.0,0.0,0.0,0.0,0.0,1.6271,1.6105,1.5998,1.5891,1.5891,1.5891,1.5891,1.5891,1.5891,1.5891,1.5891,1.5891,1.5813,1.5674,1.5674,1.5674,1.5674,1.5674,1.5523,1.5282,1.5282,1.5215,1.5107,1.5107,1.5107,1.4987,1.4267,1.2986,1.16,0.0,0.0,0.0,0.0,0.0,0.0,0.0,0.0,0.0,0.0,0.0,1.7279,1.7279,0.0,0.0,0.0,1.6961,1.6507,1.5833,1.5394,1.5173,1.5173,1.4999,1.4866,1.4866,1.4866,1.4866,1.4783,1.465,1.4608,1.4692,1.4852,1.4894,1.4894,1.5061,1.5151,1.5151,1.5387,1.5345,1.5151,1.5387,1.5876,1.6453,1.6015,1.6139,1.6412,1.5733,1.5276,1.4929,1.4734,1.4538,1.4334,1.425,1.4208,0.0,0.0,0.0,1.4088,1.4088,1.4302,1.4569,1.4796,1.5124,1.5511,1.5952,1.6106,1.6239,0.0,1.66,1.6754,0.0,0.0,0.0,0.0,0.0,0.0,0.0,0.0,0.0,0.0,0.0,0.0,0.0,0.0,0.0,0.0,0.0,1.6483,1.643,1.6158,1.5998,1.5998,1.5945,1.5891,1.5891,1.5891,1.5855,1.5795,1.5795,1.565,1.5403,1.5403,1.536,1.5306,1.5372,1.5252,1.501,1.501,1.4968,1.4902,1.4902,1.4902,1.4722,1.3463,1.2342,1.1328,0.0,0.0,0.0,0.0,0.0,0.0,0.0,0.0,0.0,0.0,0.0,1.7279,1.7279,1.7279,1.7208,1.6954,1.6631,1.6126,1.5455,1.5396,1.5389,1.5389,1.5389,0.0,1.5347,1.5347,1.5257,1.509,1.509,1.4957,1.4734,1.5816,1.6312,1.6312,1.6312,1.6312,1.6353,1.718,1.7066,1.6394,1.722,1.7706,1.7876,1.7876,1.7876,1.7796,1.6903,1.6617,1.6453,1.5624,1.5215,1.4999,1.4741,1.4524,1.4363,0.0,0.0,0.0,1.4088,1.4302,1.4479,1.4536,1.497,1.5404,1.5438,0.0,1.5939,1.6233,1.6342,1.6386,0.0,0.0,0.0,0.0,0.0,0.0,0.0,0.0,0.0,0.0,0.0,0.0,0.0,0.0,0.0,0.0,0.0,1.7008,1.6683,1.6424,1.6271,1.6271,1.6051,1.5891,1.5891,1.5891,1.5765,1.5517,1.5517,1.5384,1.5125,1.5125,1.4992,1.4775,1.5022,1.498,1.4739,1.4739,1.4582,1.434,1.434,1.434,1.419,1.3141,1.2063,1.1086,0.0,0.0,0.0,0.0,0.0,0.0,0.0,0.0,0.0,0.0,0.0,0.0,0.0,1.7064,1.6667,1.6595,1.6257,1.5891,1.5418,1.5389,1.5389,1.5389,1.5389,1.5389,1.5389,1.594,1.6139,1.594,1.594,1.618,1.6601,1.6468,1.7082,1.8247,1.7683,1.744,1.744,1.7755,1.7715,1.7432,1.7755,1.8278,1.8767,1.8198,1.8367,1.8763,1.814,1.7655,1.7335,1.7284,1.6557,1.5677,1.5553,1.5462,1.5379,1.5179,1.5137,1.4977,1.4292,1.4162,1.4282,1.4476,1.4676,1.4883,1.5077,1.5344,1.5585,1.5691,1.5858,0.0,0.0,0.0,0.0,0.0,0.0,0.0,0.0,0.0,0.0,0.0,0.0,0.0,0.0,0.0,0.0,0.0,0.0,0.0,1.6723,1.6475,1.6296,1.6318,1.6051,1.5716,1.539,1.539,1.5342,1.5246,1.5246,1.5113,1.4859,1.4859,1.4708,1.4455,1.4545,1.4533,1.4449,1.4449,1.4389,1.4298,1.4298,1.4298,1.4148,1.3119,1.2047,1.1023,0.0,0.0,0.0,1.8754,0.0,1.9068,1.9686,1.957,1.9417,1.9417,0.0,0.0,0.0,0.0,1.7229,1.7113,1.6804,1.6518,1.6286,1.627,1.627,1.627,1.627,1.627,1.627,1.6829,1.7066,1.696,1.696,1.7229,1.7787,1.7521,1.8046,1.9301,1.9006,1.8718,1.8447,1.8758,1.8718,1.8439,1.8758,1.9204,1.9706,1.9239,1.9414,1.986,1.9249,1.8801,1.8397,1.8273,1.7532,1.665,1.6601,1.6527,1.6404,1.6273,1.6232,1.6075,1.5304,1.4859,1.4663,1.4779,1.4659,1.4569,1.477,1.5044,1.5251,1.5251,1.5484,0.0,0.0,0.0,0.0,0.0,0.0,0.0,0.0,0.0,0.0,0.0,0.0,0.0,0.0,0.0,0.0,0.0,0.0,0.0,1.6739,1.679,1.6568,1.6039,1.6175,1.589,1.5107,1.5107,1.5065,1.498,1.498,1.4835,1.4576,1.4576,1.4473,1.4298,1.4298,1.4298,1.4298,1.4298,1.4298,1.4298,1.4298,1.4298,1.4148,1.3119,1.2047,1.1023,1.8827,1.9007,1.9007,1.905,1.905,1.905,1.9093,1.9085,1.9076,1.9076,0.0,0.0,0.0,0.0,0.0,1.8496,1.817,1.7997,1.7997,1.7997,1.7997,1.7997,1.7997,1.7997,1.7997,1.8037,1.8037,1.8037,1.8037,1.8037,1.8078,1.8935,1.9301,1.9381,2.0206,2.0128,1.9381,2.0245,2.0128,1.942,2.0264,2.0625,2.0674,2.1084,2.121,2.1089,2.0301,1.9947,1.9752,1.8516,1.8095,1.7997,1.7827,1.7577,1.7374,1.7342,1.7342,1.7293,0.0,0.0,0.0,1.547,1.4965,1.4553,1.4553,1.478,1.4995,1.4995,1.5177,0.0,0.0,0.0,0.0,0.0,0.0,0.0,0.0,0.0,0.0,0.0,0.0,0.0,0.0,0.0,0.0,0.0,0.0,1.8829,1.6837,1.7385,1.7079,1.5582,1.6467,1.6373,1.5083,1.5083,1.4956,1.4702,1.4702,1.4564,1.4298,1.4298,1.4298,1.4298,1.4298,1.4298,1.4298,1.4298,1.4298,1.4298,1.4298,1.4298,1.4148,1.3119,1.2047,1.1023,1.8914,1.9007,1.9221,1.9903,2.003,2.025,2.0983,2.0812,2.0573,0.0,0.0,0.0,1.9228,1.8641,1.823,1.8168,1.8057,1.7997,1.7997,1.7997,1.7997,1.7997,1.7997,1.7997,1.7997,1.8607,1.8935,1.8935,1.8935,1.9253,1.9883,1.949,1.9657,2.0245,2.0489,2.0489,2.0255,2.0489,2.044,2.0274,2.0799,2.1045,2.1094,2.1543,2.1709,2.1707,2.1749,2.1377,2.0847,2.0825,1.999,1.8935,1.8886,1.8807,1.8727,1.8559,1.851,1.831,1.7285,0.0,0.0,0.0,0.0,0.0,1.5155,1.4897,1.4643,1.4643,1.4877,0.0,0.0,0.0,0.0,0.0,0.0,0.0,0.0,0.0,0.0,0.0,0.0,0.0,0.0,0.0,0.0,0.0,1.8746,1.858,1.7545,1.699,1.6407,1.5795,1.5894,1.5656,1.5124,1.4923,1.4783,1.4709,1.4516,1.437,1.4298,1.4298,1.4298,1.4298,1.4298,1.4298,1.4298,1.4298,1.4298,1.4298,1.4298,1.4298,1.4148,1.3119,1.2047,1.1023,1.9574,1.966,1.9825,2.0407,2.0489,2.0661,2.1288,2.1123,2.0957,0.0,0.0,0.0,1.9854,1.9402,1.9076,1.9076,1.9076,1.9076,1.9076,1.9076,1.9076,1.9076,1.9076,1.9076,1.9076,1.9569,1.9854,1.9854,1.9854,2.0089,2.0605,2.0089,2.0128,2.0605,2.0605,2.0605,2.0605,2.0605,2.0713,2.085,2.0928,2.1064,2.1239,2.1719,2.1885,2.1943,2.2363,2.2146,2.1707,2.165,2.0822,1.9854,1.9854,1.9854,1.9814,1.9678,1.9687,1.9481,1.8621,1.8101,1.777,1.7464,0.0,0.0,1.5966,1.5659,1.5298,0.0,1.5418,0.0,0.0,0.0,0.0,0.0,0.0,0.0,0.0,0.0,0.0,0.0,0.0,0.0,0.0,0.0,0.0,1.8788,1.9567,1.9483,1.8299,1.7257,1.6405,1.5748,1.5983,1.5765,1.5131,1.4933,1.479,1.4688,1.4544,1.4394,1.4298,1.4298,1.4298,1.4298,1.4298,1.4298,1.4298,1.4298,1.4298,1.4298,1.4298,1.4298,1.4202,1.3613,1.2436,1.1121,0.0,2.0605,2.0605,2.0605,2.0605,2.0605,2.0605,2.0605,2.0605,0.0,2.0605,2.0605,2.0605,2.0605,2.0605,2.0605,2.0605,2.0605,2.0605,2.0605,2.0605,2.0605,2.0605,2.0605,2.0605,2.0605,2.0605,2.0605,2.0605,2.0605,2.0605,2.0605,2.0605,2.0605,2.0605,2.0605,2.0605,2.0605,2.082,2.1161,2.085,2.0977,2.1385,2.1855,2.2021,2.207,2.2451,2.2549,2.2383,2.1483,2.0967,2.0674,2.0615,2.0605,2.0605,2.0605,2.0605,2.0566,2.0342,1.9736,1.9036,1.8581,1.7811,0.0,1.6935,1.6789,1.6447,1.5711,1.6331,0.0,0.0,0.0,0.0,0.0,0.0,0.0,0.0,0.0,0.0,0.0,0.0,0.0,1.8603,1.888,1.8972,1.8972,2.0583,2.0727,1.8888,1.7831,1.681,1.573,1.6379,1.6237,1.5178,1.5178,1.5029,1.4783,1.4736,1.464,1.4394,1.4346,1.4346,1.4346,1.4298,1.4298,1.4298,1.4298,1.4298,1.4298,1.4298,1.4298,1.4298,1.4298,1.3076,1.1365,2.0566,2.0605,2.0605,2.0605,2.0605,2.0605,2.0605,2.0605,2.0605,2.0605,2.0605,2.0605,2.0605,2.0605,2.0605,2.0605,2.0605,2.0605,2.0605,2.0605,2.0605,2.0605,2.0605,2.0605,2.0605,2.0605,2.0605,2.0605,2.0605,2.0605,2.0605,2.0605,2.0605,2.0605,2.0605,2.0605,2.0605,2.0605,2.082,2.122,2.1523,2.1885,2.2305,2.2691,2.2847,2.2867,2.2945,2.275,2.2383,2.1483,2.1142,2.1045,0.0,0.0,0.0,2.0605,0.0,2.0566,2.0342,2.0186,0.0,0.0,1.8917,0.0,1.8238,1.7311,1.6501,0.0,1.6483,0.0,0.0,0.0,0.0,0.0,0.0,0.0,0.0,0.0,0.0,0.0,0.0,0.0,0.0,1.9521,2.0022,2.0022,2.0348,2.0068,1.888,1.7831,1.7185,1.6951,1.6339,1.592,1.5689,1.5499,1.5404,1.535,1.5124,1.4987,1.4933,1.4736,1.464,1.4592,1.4394,1.4298,1.4298,1.4298,1.4298,1.4298,1.4298,1.4298,1.4298,1.4298,1.3511,1.229,2.0605,2.0605,2.0605,2.0605,2.0605,2.0605,2.0605,2.0605,2.0605,2.0605,2.0605,2.0605,2.0605,2.0605,2.0605,2.0605,2.0605,2.0605,2.0605,2.0605,2.0605,2.0605,2.0605,2.0605,2.0605,2.0605,2.0605,2.0605,2.0605,2.0605,2.0605,2.0605,2.0605,2.0605,2.0605,2.0605,2.0605,2.0605,2.082,2.121,2.1475,2.1816,2.2246,2.2666,2.2779,2.2808,2.3023,2.2828,2.2451,2.2021,2.1551,0.0,2.0967,2.0742,2.0605,0.0,2.0605,2.0566,0.0,0.0,0.0,2.0147,0.0,0.0,0.0,1.8369,1.7704,1.7298,1.7201,1.7025,1.6379,0.0,0.0,0.0,0.0,0.0,0.0,0.0,0.0,0.0,0.0,0.0,0.0,1.9701,1.9886,2.0359,1.9965,1.9565,1.9249,1.8314,1.7619,1.7326,1.6817,1.6298,1.5784,1.5683,1.5588,1.5493,1.5356,1.522,1.5083,1.4838,1.4688,1.4688,1.4442,1.4298,1.4298,1.4298,1.4298,1.4298,1.4298,1.4298,1.4298,1.4298,1.3613,1.2581,2.0605,2.0605,2.0605,2.0605,2.0605,2.0605,2.0605,2.0605,2.0605,2.0605,2.0605,2.0712,2.0947,2.0771,2.0712,2.0947,2.0771,2.0605,2.0605,2.0605,2.0605,2.0605,2.0605,2.0605,2.0605,2.0605,2.0605,2.0605,2.0605,2.0605,2.0605,2.0605,2.0605,2.0605,2.0605,2.0605,2.0605,2.0605,2.082,2.12,2.1288,2.1621,2.2051,2.2471,2.2637,2.2676,2.2974,2.2877,2.2617,2.2539,2.2002,2.1307,2.122,2.0928,0.0,0.0,0.0,0.0,0.0,0.0,0.0,0.0,0.0,2.0188,0.0,0.0,0.0,0.0,0.0,0.0,0.0,0.0,0.0,0.0,0.0,0.0,0.0,0.0,0.0,0.0,0.0,0.0,0.0,1.9538,1.9495,2.0437,1.9793,1.9497,1.9843,1.8886,1.8118,1.7502,1.7277,1.6753,1.5825,1.5784,1.5737,1.554,1.554,1.5452,1.5226,1.4933,1.479,1.4742,1.4448,1.4298,1.4298,1.4298,1.4298,1.4298,1.4298,1.4298,1.4298,1.4298,1.3757,1.2877,2.0605,2.0605,2.0605,2.0605,2.0605,2.0605,2.0605,2.0605,2.0605,2.0605,2.0605,2.1064,2.2239,2.13,2.1064,2.2288,2.129,2.0605,2.0605,2.0605,2.0605,2.0605,2.0605,2.0605,2.0605,2.0605,2.0605,2.0605,2.0605,2.0605,2.0605,2.0605,2.0605,2.0605,2.0605,2.0605,2.0605,2.0605,2.082,2.1229,2.165,2.207,0.0,2.2867,2.3023,2.3033,2.3081,2.3062,2.2974,0.0,2.2197,2.1748,0.0,2.0928,2.0605,2.0605,0.0,0.0,0.0,0.0,0.0,0.0,2.0566,0.0,0.0,0.0,1.8989,1.8867,0.0,0.0,0.0,0.0,0.0,0.0,0.0,0.0,0.0,0.0,0.0,0.0,0.0,0.0,0.0,0.0,1.9495,2.0437,2.0395,2.0371,2.0416,1.9513,1.8731,1.811,1.7251,1.6472,1.5825,1.5784,1.5778,1.5784,1.5784,1.5737,1.5689,1.5267,1.5035,1.5035,1.4544,1.4298,1.4298,1.4298,1.4298,1.4298,1.4298,1.4298,1.4298,1.4298,1.4202,1.3956,2.0789,2.0605,2.0605,2.0605,2.0605,2.0605,2.0605,2.1021,2.1461,2.1945,2.1983,2.2133,2.2457,2.2199,2.2248,2.2881,2.2613,2.2524,2.2846,2.2169,2.1874,2.2088,2.1144,2.0723,2.0947,2.0742,2.0605,2.0605,2.0605,2.0605,2.0605,2.0605,2.0605,2.0605,2.1088,2.1318,2.1318,2.1318,2.1543,2.1929,2.2453,2.2898,0.0,2.3142,2.3091,2.3091,2.3091,2.3091,2.3062,0.0,2.2598,0.0,0.0,0.0,0.0,2.0683,0.0,0.0,0.0,0.0,0.0,0.0,0.0,0.0,1.9707,0.0,1.9042,0.0,0.0,0.0,0.0,0.0,0.0,0.0,1.788,0.0,0.0,0.0,0.0,0.0,0.0,0.0,0.0,0.0,0.0,0.0,0.0,1.9916,2.0122,1.9758,1.9296,1.8723,1.8329,1.7512,1.6341,1.6302,1.6166,1.5784,1.5784,1.5784,1.5778,1.5499,1.5309,1.5309,1.4783,1.4544,1.4538,1.4346,1.4298,1.4298,1.4298,1.4298,1.4298,1.4298,1.4298,1.4148,2.1499,2.1088,2.0944,2.0944,2.0944,2.1011,2.1242,2.1756,2.236,2.292,2.2995,2.3085,2.3278,2.3248,2.3422,2.4041,2.3981,2.4084,2.4484,2.3484,2.3089,2.3554,2.222,2.1624,2.1878,2.1585,2.1391,2.128,2.128,2.128,2.128,2.128,2.128,2.127,2.1869,2.2134,2.2134,2.2134,2.2443,2.2993,2.3358,2.3841,2.4315,2.398,2.3854,2.3854,2.3854,2.3854,2.381,2.356,2.3186,0.0,2.2095,0.0,2.1103,0.0,0.0,0.0,2.0605,0.0,0.0,0.0,0.0,0.0,0.0,0.0,0.0,0.0,0.0,0.0,0.0,0.0,0.0,0.0,0.0,1.8034,0.0,0.0,0.0,0.0,0.0,0.0,0.0,0.0,0.0,0.0,0.0,0.0,1.9701,1.976,1.9483,1.8931,1.8948,1.8162,1.6606,1.6606,1.6278,1.5712,1.5712,1.5752,1.5778,1.5588,1.5493,1.5493,1.5022,1.479,1.4688,1.449,1.4394,1.4298,1.4298,1.4298,1.4298,1.4298,1.4298,1.4202,2.2909,2.2285,2.1766,2.1766,2.1766,2.2021,2.2809,2.2957,2.2957,2.2995,2.2995,2.3656,2.5417,2.4468,2.4404,2.6262,2.5206,2.4495,2.4517,2.3957,2.3903,2.4456,2.3957,2.3656,2.3602,2.3607,2.3394,2.292,2.292,2.292,2.292,2.292,2.292,2.292,2.2957,2.2957,2.2957,2.2957,2.3504,2.4349,2.4371,2.4927,2.5714,0.0,2.5694,2.5694,2.5694,0.0,0.0,2.4744,2.4146,0.0,0.0,0.0,0.0,0.0,0.0,0.0,0.0,0.0,0.0,2.0605,0.0,0.0,0.0,0.0,1.916,0.0,0.0,0.0,0.0,0.0,0.0,1.7691,0.0,0.0,0.0,0.0,0.0,0.0,0.0,0.0,0.0,0.0,0.0,0.0,0.0,0.0,1.932,1.932,1.9053,1.8429,1.8496,1.7831,1.6323,1.6323,1.5998,1.5411,1.5411,1.5558,1.5778,1.5588,1.5493,1.5493,1.522,1.4933,1.4688,1.4688,1.4544,1.4298,1.4298,1.4298,1.4298,1.4298,1.4298,1.4298,2.3829,2.3489,2.3158,2.2697,2.2585,2.2835,2.3599,2.372,2.4052,2.4922,2.5042,2.5454,2.6559,2.6484,2.6755,2.7865,2.7778,2.7661,2.7661,2.668,2.6143,2.6295,2.4981,2.4237,2.417,2.3859,2.3492,2.2995,2.2995,2.2995,2.2995,2.2995,2.2995,2.3021,2.35,2.372,2.3742,2.4107,2.4612,2.5261,0.0,2.6783,2.7458,0.0,0.0,2.5777,2.5777,2.5777,0.0,2.5453,2.5261,2.5005,2.4299,2.3974,2.3568,2.2302,2.1931,0.0,0.0,0.0,2.1385,2.1385,0.0,0.0,0.0,0.0,0.0,0.0,0.0,0.0,0.0,0.0,1.7862,1.7706,1.7604,0.0,0.0,0.0,0.0,0.0,0.0,0.0,0.0,0.0,0.0,0.0,0.0,0.0,0.0,1.9301,1.9197,1.9004,1.8478,1.7747,1.6834,1.6239,1.5779,1.5398,1.5398,1.5545,1.5784,1.573,1.5683,1.5689,1.5452,1.5309,1.5207,1.4831,1.464,1.4544,1.4394,1.4298,1.4298,1.4298,1.4298,1.4298,2.4636,2.4528,2.4301,2.3537,2.361,2.3975,2.4456,2.468,2.5107,2.5973,2.643,2.6912,2.7596,2.8048,2.8509,2.9129,2.9415,2.9581,2.9581,2.8615,0.0,2.7953,2.6645,2.5791,0.0,2.5111,2.46,2.4101,2.392,2.3841,2.3841,2.3841,2.3841,2.3841,2.4301,2.4528,2.4563,2.5113,2.5613,0.0,0.0,2.8018,0.0,0.0,2.6741,2.6741,0.0,2.6741,2.67,2.6412,2.6287,2.6168,2.5436,2.5212,2.4938,2.363,2.3133,2.2931,2.2613,2.2374,0.0,2.2209,2.2209,0.0,2.083,0.0,0.0,0.0,0.0,0.0,0.0,0.0,0.0,1.8148,1.791,0.0,0.0,1.7314,0.0,0.0,0.0,0.0,0.0,0.0,0.0,0.0,0.0,0.0,0.0,0.0,1.9301,1.9301,1.8767,1.7987,1.6982,1.6404,1.585,1.5244,1.5244,1.5444,1.5784,1.5784,1.5784,1.5778,1.5642,1.5588,1.5493,1.5118,1.4927,1.4838,1.4544,1.4442,1.4442,1.4346,1.4298,1.4298,2.5312,2.5312,2.5052,2.4301,2.4791,2.5312,2.5348,2.5769,2.6117,2.6166,2.7103,2.793,2.8522,2.9063,2.9593,3.0122,3.017,3.0158,3.0122,2.9653,0.0,0.0,2.8835,2.8306,2.7726,0.0,0.0,0.0,0.0,2.5264,2.5264,2.5264,2.5288,2.5312,2.5312,2.5312,2.5348,2.5901,2.6478,2.7066,2.8114,2.851,2.851,2.851,2.851,2.851,2.851,2.851,2.8391,2.7551,2.7267,2.7052,2.5754,2.5367,2.5268,2.4733,2.4249,2.3853,2.3869,2.349,2.3091,2.3069,0.0,0.0,0.0,0.0,2.1204,0.0,0.0,0.0,0.0,0.0,0.0,1.8854,1.8273,1.7681,0.0,0.0,0.0,0.0,0.0,0.0,0.0,0.0,0.0,0.0,0.0,0.0,0.0,0.0,1.9301,1.9301,1.9262,1.8407,1.6739,1.6657,1.609,1.5008,1.5008,1.5264,1.5784,1.5784,1.5784,1.5784,1.5784,1.5689,1.5493,1.5493,1.5356,1.5083,1.4838,1.4694,1.4688,1.4394,1.4298,1.4298,2.5312,2.5312,2.5229,2.5052,2.5158,2.5444,2.5829,0.0,2.6394,2.72,2.7897,2.8655,2.9581,3.0158,3.073,3.1259,3.1308,0.0,0.0,0.0,0.0,2.9905,2.9376,2.8847,2.8318,2.7366,2.6429,2.5516,0.0,2.4723,2.4723,2.4723,2.4927,2.5312,2.5312,2.5312,2.5372,2.6322,2.721,2.8086,2.8402,2.851,0.0,0.0,2.851,2.851,2.851,2.851,2.8471,2.8219,2.8179,2.8115,2.7773,2.7646,2.742,2.633,2.5882,2.5608,2.4846,2.4513,2.4331,2.392,2.3829,2.361,0.0,0.0,0.0,0.0,0.0,0.0,0.0,0.0,0.0,0.0,1.8066,0.0,0.0,0.0,0.0,1.7426,0.0,0.0,0.0,0.0,0.0,0.0,0.0,0.0,0.0,0.0,0.0,1.9301,1.8687,1.7796,1.6698,1.6049,1.5511,1.5008,1.5008,1.5264,1.5784,1.5784,1.5784,1.5784,1.5784,1.5784,1.573,1.554,1.5445,1.5356,1.5077,1.4885,1.4688,1.4394,1.4298,1.4298,2.5312,2.5492,2.5661,2.5661,2.5853,0.0,2.6093,2.6695,0.0,2.7981,2.8931,0.0,3.0362,3.0946,3.138,3.1681,3.1705,0.0,3.1284,0.0,0.0,3.0458,3.0146,2.9629,2.8871,2.8041,0.0,2.5985,0.0,2.4867,2.482,2.4592,2.4807,2.5312,2.5312,2.5312,2.5384,2.6429,2.7498,2.851,2.851,2.851,0.0,2.851,2.851,2.851,2.851,2.851,2.851,2.851,2.851,2.851,2.851,2.851,2.8371,2.7612,2.7207,2.6902,2.6291,2.5963,2.5632,2.5104,2.4976,2.4724,2.3692,2.3463,2.3422,0.0,0.0,0.0,0.0,0.0,0.0,0.0,0.0,0.0,0.0,0.0,0.0,0.0,1.7451,0.0,0.0,0.0,0.0,0.0,0.0,0.0,0.0,0.0,0.0,1.9301,1.8816,1.8158,1.7261,1.6412,1.5843,1.5575,1.5181,1.5264,1.5784,1.5784,1.5784,1.5784,1.5784,1.5784,1.5778,1.5683,1.5635,1.5594,1.5356,1.5029,1.4688,1.4544,1.4394,1.4298,2.5396,2.5841,2.6226,2.6298,2.6719,0.0,0.0,2.7657,0.0,2.8703,0.0,3.0922,3.0922,3.1392,3.1705,3.1705,0.0,3.1705,3.1705,3.1705,3.15,3.1043,3.0958,3.041,2.9424,2.8823,2.7993,0.0,0.0,2.5312,2.53,2.4771,2.4807,2.5312,2.5312,2.5384,2.5588,2.6561,2.757,2.851,2.851,2.851,2.851,2.855,2.851,2.851,2.855,2.851,2.851,2.851,2.851,2.851,2.851,2.851,2.851,2.851,2.8186,2.7774,2.7702,2.7342,2.6873,2.6346,2.6154,2.578,2.4618,2.4311,2.4264,2.4264,2.3406,2.3054,0.0,0.0,0.0,0.0,0.0,0.0,0.0,0.0,0.0,0.0,0.0,0.0,0.0,0.0,0.0,0.0,0.0,0.0,0.0,0.0,0.0,1.9301,1.9301,0.0,1.7997,0.0,1.6671,1.6308,1.5531,1.5401,1.5784,1.5784,1.5784,1.5784,1.5784,1.5784,1.5784,1.5784,1.5784,1.5784,1.5588,1.5213,1.4783,1.4736,1.4544,1.4346,2.5877,2.6406,2.6885,2.733,2.7486,2.7849,2.8619,2.8607,2.8823,2.9689,3.0434,3.0922,3.0922,3.1392,3.1705,3.1705,3.1705,0.0,0.0,0.0,0.0,3.1573,3.1151,3.0579,2.9965,2.9003,2.7993,0.0,0.0,0.0,2.53,2.4771,2.4807,2.5312,2.5312,2.5769,2.6645,2.7282,0.0,2.851,2.851,2.851,2.851,2.8685,2.8657,2.851,2.8685,2.8657,2.851,2.851,2.851,2.851,2.851,2.851,2.851,2.851,2.845,2.827,2.7798,2.7618,2.7414,2.6885,2.6442,2.6033,2.5791,2.5397,2.5087,2.5087,2.4933,2.4555,2.3816,0.0,0.0,0.0,0.0,0.0,0.0,0.0,0.0,0.0,0.0,1.8774,0.0,0.0,0.0,0.0,0.0,0.0,0.0,0.0,0.0,0.0,0.0,0.0,0.0,0.0,1.7298,1.6308,1.6139,1.598,1.5784,1.5784,1.5784,1.5784,1.5784,1.5784,1.5784,1.5784,1.5784,1.5784,1.5588,1.5445,1.5302,1.4879,1.4688,1.4592,2.6441,2.6934,2.739,2.763,0.0,0.0,0.0,2.9725,2.9917,3.0477,3.0995,3.1332,3.1332,3.156,3.1705,3.1705,3.1705,3.1705,3.1705,3.1705,3.1705,3.1705,3.1464,3.0946,3.011,2.9593,2.8679,2.7306,0.0,0.0,2.5709,2.518,2.5059,2.5324,2.5588,2.6178,0.0,0.0,0.0,2.8657,2.8657,2.8736,2.8816,2.8922,2.8895,2.8816,2.8803,2.8724,2.8657,2.855,2.851,2.851,2.851,2.851,2.851,2.851,2.851,2.845,2.821,2.8086,2.8005,2.7438,2.714,2.6791,2.6226,2.5901,2.5636,2.536,2.5312,2.4932,2.3723,2.281,0.0,0.0,0.0,0.0,0.0,0.0,2.0281,0.0,0.0,0.0,0.0,0.0,0.0,0.0,0.0,0.0,0.0,0.0,0.0,0.0,0.0,0.0,0.0,0.0,0.0,1.7755,1.6749,1.638,1.6581,1.6062,1.5784,1.5784,1.5784,1.5784,1.5784,1.5784,1.5784,1.5778,1.5689,1.5588,1.5493,1.5213,1.5022,1.4838,2.7378,2.7726,2.8089,0.0,2.8823,0.0,3.0158,3.0645,3.0958,3.1067,3.1452,3.1705,3.1705,3.1705,3.1705,3.1705,3.1705,3.1705,3.1705,3.1705,3.1705,3.1705,3.1705,3.1259,3.0278,3.0146,2.9412,0.0,0.0,0.0,0.0,2.5721,0.0,0.0,0.0,0.0,0.0,0.0,2.8309,2.8882,2.8882,2.8961,2.9091,2.917,2.9131,2.9091,2.8961,2.891,2.8843,2.8618,2.855,2.851,2.851,2.851,2.851,2.851,2.851,2.851,2.851,2.851,2.8414,2.7993,2.7762,2.7464,2.6502,2.6178,2.5949,2.542,2.5312,2.5003,2.405,2.3781,0.0,0.0,0.0,0.0,0.0,0.0,0.0,0.0,0.0,0.0,1.9858,0.0,0.0,0.0,0.0,0.0,0.0,0.0,0.0,0.0,0.0,1.9301,1.9301,0.0,1.8633,0.0,1.7695,1.7116,1.7279,1.6487,1.6015,1.5784,1.5784,1.5784,1.5784,1.5784,1.5784,1.5784,1.5784,1.5683,1.554,1.554,1.5356,1.5124,0.0,2.9124,0.0,0.0,0.0,0.0,3.0694,3.0886,3.1091,3.1573,3.1681,3.1705,3.1705,3.1705,3.1705,3.1705,3.1705,3.1705,3.1705,3.1705,3.1705,3.1705,3.1705,3.144,3.0862,3.0338,2.9785,0.0,0.0,2.7342,0.0,0.0,0.0,0.0,0.0,0.0,0.0,2.8668,2.9003,2.9052,2.9052,2.9091,2.9131,2.9314,2.9275,2.9131,2.9275,2.9236,2.9052,2.8843,2.8657,2.851,2.851,2.851,2.851,2.851,2.851,2.851,2.851,2.851,2.8498,2.845,2.8077,2.7534,2.6958,2.6466,2.5949,2.542,2.5312,2.5252,2.5134,2.4739,2.4357,0.0,0.0,0.0,0.0,0.0,2.2353,2.1861,0.0,0.0,0.0,1.9156,0.0,0.0,0.0,0.0,0.0,0.0,0.0,1.9301,0.0,1.9301,1.9301,1.9597,0.0,1.9119,1.9269,1.8648,1.7279,1.7185,1.6676,1.5784,1.5784,1.5784,1.5784,1.5784,1.5784,1.5784,1.5784,1.5778,1.5737,1.5588,1.5493,1.5404,0.0,0.0,0.0,0.0,0.0,0.0,0.0,3.1187,3.1476,3.1681,3.1705,3.1705,3.1705,3.1705,3.1705,3.1705,3.1705,3.1705,3.1705,3.1705,3.1705,3.1705,3.1705,3.1464,3.0922,3.035,2.9833,0.0,0.0,0.0,0.0,0.0,0.0,0.0,0.0,2.8166,2.8241,2.8819,2.917,2.9275,2.9275,2.9365,2.9546,2.9611,2.9573,2.9495,2.9431,2.9341,2.9236,2.904,2.8855,2.8657,2.855,2.851,2.851,2.851,2.851,2.851,2.851,2.851,2.851,2.851,2.8354,2.8053,2.7486,2.6958,2.6442,2.5901,2.5528,2.5312,2.5312,2.5131,2.4987,0.0,0.0,0.0,0.0,0.0,0.0,2.3089,0.0,2.3408,0.0,0.0,0.0,0.0,0.0,0.0,0.0,0.0,0.0,1.9301,0.0,1.9301,1.9301,1.9683,1.992,1.9929,1.9791,1.9175,1.8195,1.7606,1.6763,1.5784,1.5784,1.5784,1.5784,1.5784,1.5784,1.5784,1.5784,1.5784,1.5778,1.573,1.5683,1.5635,3.0446,0.0,3.0314,0.0,3.0627,3.0922,3.0922,3.1499,3.2013,3.2013,3.2189,3.2133,3.1749,3.1705,3.1705,3.1705,3.1705,3.1705,3.1705,3.1705,3.1705,3.1705,3.1705,0.0,3.1151,3.0591,3.0062,2.9532,2.9003,0.0,0.0,0.0,0.0,0.0,2.8269,2.863,2.8654,2.9088,2.9404,2.9509,2.9509,2.965,2.9792,2.9792,2.9792,2.9792,2.9611,2.9509,2.947,2.9275,2.9079,2.891,2.8657,2.855,2.851,2.851,2.851,2.851,2.851,2.851,2.851,2.851,2.851,2.8366,2.7798,2.739,2.6922,2.6238,2.5673,2.5312,2.5312,2.5312,2.5312,2.5312,0.0,0.0,0.0,0.0,0.0,0.0,2.4454,2.4484,2.3768,2.2972,0.0,0.0,0.0,0.0,0.0,0.0,0.0,0.0,0.0,0.0,0.0,1.9897,2.0301,2.0653,2.0403,1.9777,1.8742,1.7458,1.6487,1.5784,1.5784,1.5784,1.5784,1.5784,1.5784,1.5784,1.5784,1.5784,1.5784,1.5784,1.5784,1.5784,3.1585,3.1259,3.091,3.091,3.091,3.0922,3.0922,3.1933,3.2667,3.2667,3.3258,3.3159,3.1837,3.1705,3.1705,3.1705,3.1705,3.1705,3.1705,3.1705,3.1705,0.0,0.0,3.1705,3.1705,3.1175,3.0645,3.0074,0.0,0.0,2.8001,0.0,2.8281,2.8344,2.9054,2.9406,2.9406,2.9702,2.9792,2.9792,2.9792,2.9792,2.9792,2.9792,2.9792,2.9792,2.9792,2.9792,2.974,2.947,2.938,2.9341,2.891,2.8657,2.851,2.851,2.851,2.851,2.851,2.851,2.851,2.851,2.851,2.8366,2.7798,2.7678,2.7404,2.6322,2.5673,2.5312,2.5312,2.5312,2.5312,2.5312,0.0,0.0,0.0,0.0,0.0,2.4472,2.392,2.3686,2.4062,0.0,0.0,0.0,0.0,0.0,0.0,0.0,0.0,1.9301,1.9301,0.0,1.9875,2.0278,2.0714,2.1108,2.1485,2.0673,1.8742,1.6709,1.5832,1.5784,1.5784,1.5784,1.5784,1.5784,1.5784,1.5784,1.5784,1.5784,1.5784,1.5784,1.5784,1.5784,3.1609,3.1573,3.1452,3.1452,3.1452,3.1583,3.2062,3.2469,3.2884,3.3343,3.3556,3.3543,3.3116,3.3074,3.2871,0.0,3.2785,3.3074,0.0,3.2624,3.2363,3.2363,3.1925,3.1705,3.1705,3.1187,3.0838,3.0669,0.0,0.0,0.0,2.8977,2.9054,2.9054,2.9498,2.965,2.9702,2.9753,2.9792,2.9792,2.9792,2.9792,2.9792,2.9792,2.9792,2.9792,2.9792,2.9792,2.9792,2.9702,2.956,2.938,2.9263,2.9,2.8685,2.8685,2.8618,2.851,2.851,2.851,2.851,2.851,2.851,2.8462,2.8294,2.7942,2.7416,2.6322,2.5961,2.5733,2.5372,2.5312,2.5312,2.5312,2.5168,0.0,0.0,0.0,0.0,2.452,2.4622,2.4791,0.0,2.3621,0.0,0.0,0.0,0.0,0.0,0.0,0.0,0.0,1.9777,0.0,1.9893,2.0585,2.0979,2.1108,2.1495,2.0682,1.8742,1.7412,1.644,1.5784,1.5784,1.5784,1.5784,1.5784,1.5784,1.5784,1.5784,1.5784,1.5784,1.5784,1.5784,1.5811,3.1645,3.1705,3.1793,3.2013,3.2057,3.232,3.2957,3.33,3.3586,3.4008,3.4301,3.4343,3.4092,3.4301,0.0,3.3172,3.3471,3.3713,3.3713,3.33,3.3086,3.3086,3.245,3.2057,3.2057,0.0,0.0,3.0996,3.0448,3.0251,3.0419,3.0043,2.9891,2.9973,2.9844,2.9792,2.9792,2.9792,2.9792,2.9792,2.9792,2.9792,2.9792,2.9792,2.996,3.0203,3.0203,3.0394,3.0646,3.0646,3.0558,3.0418,3.0418,3.019,2.9768,2.9028,2.8724,2.8618,2.851,2.851,2.851,2.851,2.851,2.851,2.851,2.8102,2.7524,2.6851,2.6382,2.5997,2.5661,2.5444,2.5312,2.5312,2.5312,2.5192,2.4867,0.0,0.0,0.0,0.0,0.0,0.0,2.4168,0.0,0.0,0.0,0.0,0.0,0.0,0.0,1.9979,2.0111,0.0,2.049,2.0903,2.119,2.1302,2.1239,2.0538,1.9338,1.8334,1.7318,1.6339,1.6339,1.6157,1.5784,1.5784,1.5784,1.5784,1.5784,1.5784,1.5798,1.5952,1.5999,1.6039,3.1705,3.1749,0.0,0.0,3.2766,0.0,3.367,3.4301,3.4716,3.4758,3.5304,3.5467,3.484,3.5345,3.5209,3.3966,0.0,0.0,0.0,3.3797,3.3755,3.3755,3.3142,3.2754,3.2711,3.2288,3.1801,3.1315,3.1257,3.1765,3.2758,3.1396,3.0867,3.0975,3.0253,2.988,2.9854,2.9854,2.9829,2.9792,2.9792,2.9792,2.9792,2.9792,3.0241,3.082,3.0895,3.1378,3.2051,3.2074,3.211,3.211,3.211,3.1978,3.1452,2.9549,2.8988,2.8949,2.8764,2.8697,2.8697,2.8697,2.8657,2.859,2.851,2.8086,2.7726,2.769,2.6923,2.619,2.6105,2.5697,2.5348,2.5312,2.5312,2.5312,2.5312,0.0,0.0,0.0,0.0,0.0,0.0,2.4564,2.3804,0.0,0.0,0.0,0.0,0.0,2.0494,2.0645,2.0439,2.0689,2.1497,2.1265,2.1346,2.1687,2.0808,2.0339,2.0249,1.9338,1.838,1.7419,1.7419,1.681,1.592,1.592,1.5872,1.5784,1.5784,1.5791,1.5892,1.6166,1.6286,1.6346,0.0,0.0,3.2494,3.2667,3.3129,3.367,3.4343,3.4592,3.4881,3.5386,3.5588,3.5629,3.5467,3.5588,3.5548,3.525,3.5223,3.5223,3.5223,3.4758,3.4468,3.4468,3.3839,3.3215,3.2711,3.2581,3.2498,3.2431,3.2631,3.3026,3.3658,3.2659,3.2215,3.2228,3.1398,3.0783,3.0419,3.0419,3.0181,2.9792,2.9792,2.9792,2.9792,2.9792,2.9895,3.0139,3.0683,3.1007,3.1267,3.1892,3.211,3.211,3.211,3.2074,3.1905,3.1267,3.0994,3.0831,3.0794,3.0794,3.0794,3.0794,3.0203,2.9433,2.8657,2.8414,2.821,2.7762,2.7512,2.7079,2.625,2.5997,2.5781,2.5372,2.5312,2.5312,2.5312,2.5312,0.0,0.0,2.5312,2.5312,2.5312,2.4564,2.3915,0.0,0.0,0.0,0.0,2.1405,2.1448,2.137,2.1404,2.1447,2.1506,2.1561,2.1595,2.1696,2.1463,2.0988,2.0294,2.0068,1.9384,1.8427,1.8427,1.787,1.6951,1.6951,1.648,1.5784,1.5784,1.5972,1.6179,1.6246,1.6413,1.6647,3.2599,3.2914,3.3258,3.3556,3.3924,3.4384,3.5046,3.5182,3.5304,3.5629,3.571,3.571,3.571,3.571,3.571,3.571,3.571,3.571,3.571,3.5345,3.5182,3.5182,3.4509,3.4008,3.3628,3.3615,3.3968,3.4674,3.4419,3.4697,3.548,3.4233,3.3514,3.3235,3.2368,3.1627,3.0972,3.0972,3.0796,3.052,3.052,3.0757,3.1137,3.1137,3.1616,3.2288,3.2368,3.2627,3.2985,3.3114,3.3136,3.3136,3.3136,3.3136,3.3136,3.303,3.2362,3.1623,3.1536,3.1499,3.1499,3.1499,3.1093,3.043,2.9394,2.9172,2.8981,2.8216,2.7885,2.7464,2.6635,2.6274,2.5925,2.5396,2.5312,2.5312,2.5312,2.5312,0.0,2.5312,2.5528,2.5673,2.5673,2.5173,2.4759,2.4574,0.0,0.0,2.2392,2.2239,2.2038,2.1751,2.1915,2.2007,2.2091,2.1931,2.183,2.1696,2.1696,2.141,2.0952,2.0952,2.0393,1.9476,1.9476,1.8934,1.7971,1.7512,1.7091,1.6648,1.6224,1.6213,1.6486,1.667,1.6824,1.6947,3.3713,3.3797,3.405,3.4592,3.4799,3.5046,3.5588,3.571,3.571,3.571,3.571,3.571,3.571,3.571,3.571,3.571,3.571,3.571,3.571,3.571,3.571,3.571,3.5127,3.484,3.4786,3.48,3.5467,3.6858,3.6148,3.6384,3.7396,3.583,3.4845,3.4317,3.3488,3.2616,3.1716,3.1866,3.1693,3.1427,3.1549,3.2061,3.2686,3.2686,3.3686,3.4952,3.4506,3.4711,3.5166,3.4699,3.4486,3.4414,3.4414,3.4414,3.4414,3.4414,3.336,3.216,3.1974,3.1938,3.1901,3.1756,3.1719,3.1462,3.0468,3.0253,2.9948,2.8922,2.8373,2.7823,2.7152,2.6659,2.6142,2.5528,2.5432,2.5432,2.5432,0.0,2.5456,2.554,2.5949,2.6226,2.6226,2.6024,2.5858,2.5812,2.448,2.3727,0.0,2.3185,2.2539,2.1992,2.2181,2.2448,2.275,2.2318,2.2008,2.1785,2.1741,2.1696,2.1696,2.1696,2.1275,2.0529,2.0529,1.9965,1.906,1.8,1.7731,1.7792,1.6773,1.6513,1.68,1.7112,1.7233,1.73,3.3713,3.4176,3.4592,3.4675,3.5182,3.5588,3.5669,3.571,3.571,3.571,3.571,3.571,3.571,3.571,3.571,3.571,3.571,3.571,3.571,3.571,3.571,3.571,3.5588,3.544,3.5196,3.5224,3.5669,3.6663,3.6688,3.7165,3.802,3.7028,3.6532,3.6409,3.5516,3.4406,3.3203,3.398,3.3171,3.1468,3.2209,3.2567,3.2686,3.2686,3.3325,3.4255,3.4836,3.4778,3.4469,3.5068,3.4849,3.4414,3.4414,3.4414,3.4414,3.4414,3.4196,3.3977,3.3962,3.3928,3.3756,3.2897,3.267,3.242,3.1499,3.1278,3.0981,2.9986,2.9693,2.9211,2.7835,2.7524,2.714,2.6142,2.5973,2.5973,2.5973,0.0,2.6154,2.6585,2.6717,2.6765,2.6765,2.6725,2.6609,2.6318,2.6064,2.5286,2.3888,2.4051,2.3647,2.2432,2.2616,2.2648,2.2441,2.223,2.2097,2.2052,2.183,2.1696,2.1696,2.1696,2.1642,2.1454,2.1454,2.1147,2.0467,1.9374,1.8674,1.8211,1.7081,1.682,1.7139,1.7186,1.7353,1.7522,3.4799,3.5018,3.5263,3.5263,3.5507,3.571,3.571,3.571,3.571,3.571,3.571,3.571,3.571,3.571,3.571,3.571,3.571,3.571,3.571,3.571,3.571,3.571,3.571,3.5857,3.6229,3.6427,3.6858,3.7453,3.7567,3.781,3.8202,3.781,3.7376,3.6897,3.6478,3.5679,3.462,3.4606,3.4244,3.3616,3.3137,3.3723,3.4906,3.4459,3.5089,3.6264,3.6302,3.6127,3.5862,3.5875,3.5444,3.4922,3.4922,3.469,3.4414,3.4414,3.4414,3.4414,3.4414,3.4414,3.4298,3.3825,3.3707,3.3451,3.2492,3.2227,3.1878,3.0443,3.0075,2.9554,2.8137,2.7755,2.7368,2.6274,2.6346,0.0,0.0,2.6358,2.6609,2.6861,2.715,2.7318,2.7318,2.7582,2.7678,2.7549,2.6627,2.5749,2.4911,2.4161,2.3471,2.2852,2.2906,2.2838,2.2618,2.253,2.2407,2.2264,2.2052,2.1919,2.1919,2.1785,2.1696,2.1705,2.1916,2.188,2.16,2.0754,2.0039,1.9323,1.8232,1.7677,1.7434,1.7434,1.7468,1.7582,3.571,3.571,3.571,3.571,3.571,3.571,3.571,3.571,3.571,3.571,3.571,3.571,3.571,3.571,3.571,3.571,3.571,3.571,3.571,3.571,3.571,3.571,3.5871,3.631,3.6978,3.7495,3.7877,3.8202,3.8202,3.8202,3.8202,3.8202,3.7848,3.7208,3.7208,3.6596,3.5588,3.5372,3.5291,3.5237,3.4358,3.5169,3.6819,3.6162,3.6869,3.8144,3.768,3.7433,3.723,3.6722,3.6112,3.5625,3.5625,3.5256,3.4849,3.4849,3.4849,3.4791,3.4486,3.4414,3.4414,3.4414,3.4414,3.4196,3.3416,3.3262,3.2755,3.102,3.0481,2.9897,2.8437,2.8014,2.7596,2.6635,0.0,0.0,0.0,2.6813,2.7126,2.7246,2.7618,2.7909,2.7909,2.827,2.851,2.851,2.7203,2.6235,2.583,2.4478,2.3517,2.3091,2.3091,2.3013,2.2882,2.2838,2.2706,2.2485,2.2264,2.2141,2.2106,2.1966,2.1923,2.1851,2.2245,2.2474,2.2537,2.1882,2.1292,2.0714,1.9666,1.8759,1.7996,1.7996,1.7786,1.7582,3.571,3.571,3.571,3.571,3.571,3.571,3.571,3.571,3.571,3.571,3.571,3.571,3.571,3.571,3.571,3.571,3.571,3.571,3.571,3.571,3.571,3.571,3.6468,3.694,3.6978,3.7749,3.8165,3.8202,3.8202,3.8202,3.8202,3.8202,3.8165,3.8089,3.8089,3.7155,3.5695,3.7271,3.657,3.4592,3.6056,3.6727,3.6897,3.6819,3.7414,3.8188,3.8159,3.7781,3.7302,3.7244,3.678,3.6228,3.6228,3.6214,3.617,3.617,3.617,3.5909,3.4733,3.4414,3.4414,3.4414,3.4414,3.438,3.4312,3.4298,3.3791,3.2051,3.1513,3.0856,2.9084,2.8597,2.827,2.7693,0.0,0.0,2.7609,2.7633,2.7849,2.833,2.8426,2.845,2.845,2.8486,2.851,2.851,2.8379,2.758,2.5902,2.5652,2.4819,2.3135,2.3091,2.3091,2.3091,2.2882,2.2794,2.2759,2.2485,2.2264,2.2106,2.2488,2.251,2.2254,2.2675,2.3068,2.3311,2.2292,2.2083,2.2223,2.1151,2.0033,1.9072,1.9072,1.8461,1.7582,3.571,3.571,3.571,3.571,3.571,3.571,3.571,3.571,3.571,3.571,3.571,3.571,3.571,3.571,3.5548,3.5141,3.5087,3.5087,3.5087,3.4675,3.4964,3.6098,3.6915,3.738,3.738,3.7901,3.8202,3.8202,3.8202,3.8202,3.8202,3.8202,3.8202,3.8202,3.8202,3.7515,3.6439,3.713,3.6858,3.595,3.6042,3.6752,3.7644,3.7092,3.7453,3.8202,3.8202,3.8057,3.7868,3.7868,3.7447,3.6925,3.6925,3.6635,3.6301,3.6301,3.6301,3.6199,3.572,3.5299,3.5009,3.5009,3.4704,3.4414,3.4414,3.4414,3.3942,3.234,3.1733,3.0981,2.9302,2.8697,2.833,2.7774,0.0,2.8089,2.7726,2.8005,2.8282,2.8486,2.851,2.851,2.851,2.851,2.851,2.851,2.8018,2.7389,2.6712,2.5579,2.4402,2.3135,2.3398,2.3408,2.3091,2.3013,2.3149,2.3411,2.3134,2.3133,2.3309,2.3139,2.3019,2.2945,2.3182,2.3352,2.3517,2.3363,2.2997,2.2476,2.2064,2.1242,2.0261,2.0261,1.9539,1.861,3.571,3.571,3.571,3.571,3.571,3.571,3.571,3.571,3.571,3.571,3.571,3.571,3.571,3.5507,3.5209,3.4758,3.4509,3.4426,3.4522,3.4259,3.4703,3.5991,3.6783,3.7327,3.7586,3.7976,3.8202,3.8202,3.8202,3.8037,3.781,3.781,3.7644,3.74,3.74,3.7039,3.6517,3.6766,3.6897,3.6883,3.6557,3.7116,3.8127,3.7529,3.7682,3.8202,3.8202,3.8202,3.8202,3.8202,3.7926,3.7593,3.7593,3.7273,3.6896,3.6896,3.6896,3.6896,3.6896,3.6446,3.5959,3.5755,3.5328,3.4951,3.4762,3.4704,3.4289,3.2761,3.2096,3.1328,2.9755,2.9079,2.8615,2.8029,2.827,2.8378,2.7978,2.8282,2.851,2.851,2.851,2.851,2.851,2.851,2.851,2.851,2.7966,2.7348,2.6794,2.5423,2.4283,2.334,2.376,2.3838,2.35,2.35,2.3691,2.3984,2.3803,2.3866,2.411,2.3767,2.3589,2.3522,2.3653,2.3739,2.3749,2.4082,2.3746,2.3038,2.3038,2.2367,2.1395,2.1395,2.0672,1.9694,3.571,3.571,3.571,3.571,3.571,3.5723,3.5723,3.571,3.5669,3.571,3.5669,3.5669,3.5669,3.5087,3.4675,3.4675,3.4092,3.381,3.4076,3.4634,3.5101,3.5264,3.5923,3.6716,3.7586,3.7976,3.8202,3.8202,3.8202,3.7758,3.6897,3.6897,3.6439,3.5615,3.5615,3.5615,3.5669,3.6517,3.6897,3.6975,3.7848,3.8202,3.8202,3.8202,3.8202,3.8202,3.8202,3.8202,3.8202,3.8202,3.8202,3.8202,3.8202,3.8202,3.8202,3.8202,3.8202,3.8202,3.8202,3.7767,3.7157,3.6489,3.6301,3.6141,3.5552,3.5407,3.4995,3.3508,3.2791,3.1965,3.057,2.9832,2.9223,2.8618,2.851,2.851,2.851,2.851,2.851,2.851,2.851,2.851,2.851,2.851,2.851,2.851,2.851,2.7713,2.5913,2.5389,2.474,2.3834,2.4209,2.4414,2.4424,2.4414,2.4414,2.4424,2.4424,2.4285,2.4129,2.4231,2.4182,2.3912,2.4125,2.4202,2.4202,2.4202,2.4202,2.4202,2.4202,2.3497,2.2526,2.2526,2.181,2.0731,3.6547,3.6626,3.6626,3.6626,3.6363,3.6192,3.6192,3.5507,3.5182,3.5642,3.4881,3.4468,3.4964,3.4384,3.3797,3.3343,3.3245,3.3129,3.2896,3.3641,3.4191,3.4402,3.5869,3.6858,3.7106,3.781,3.7886,3.7285,3.7886,3.7758,3.6897,3.6897,3.6439,3.5615,3.5615,3.5278,3.4855,3.6294,3.657,3.6108,3.7591,3.8202,3.8202,3.8202,3.8202,3.8202,3.8202,3.8202,3.8202,3.8202,3.8202,3.8202,3.8202,3.8202,3.8202,3.8202,3.8202,3.8202,3.8202,3.8072,3.7781,3.7172,3.6649,3.6257,3.6069,3.6025,3.5624,3.4207,3.3659,3.3001,3.1606,3.0519,2.9768,2.9575,2.8949,2.851,2.851,2.851,2.851,2.851,2.851,2.851,2.851,2.851,2.851,2.851,2.8859,2.855,2.741,2.7577,2.6955,2.5333,2.5727,2.5601,2.492,2.457,2.457,2.4873,2.4873,2.4992,2.5208,2.4889,2.4703,2.4615,2.4295,2.4202,2.4202,2.4202,2.4202,2.4202,2.4202,2.4003,2.3696,2.3696,2.2979,2.1962,3.6954,3.6978,3.69,3.6547,3.6561,3.6536,3.6178,3.5453,3.5101,3.5481,3.4454,3.3839,3.4259,3.3713,3.3172,3.284,3.2871,3.2797,3.2519,3.3099,3.367,3.4137,3.5291,3.6056,3.6399,3.6908,3.6908,3.6399,3.6908,3.6727,3.591,3.591,3.5454,3.4622,3.4622,3.4524,3.4481,3.5467,3.5976,3.6201,3.7246,3.7886,3.8202,3.8202,3.8202,3.8202,3.8202,3.8202,3.8202,3.8202,3.8202,3.8202,3.8202,3.8202,3.8202,3.8202,3.8202,3.8202,3.8202,3.8202,3.8115,3.7752,3.736,3.6997,3.6751,3.6707,3.636,3.5268,3.4838,3.4228,3.2864,3.1896,3.103,3.0126,2.9471,2.8949,2.855,2.851,2.851,2.851,2.851,2.851,2.851,2.8703,2.8907,2.9124,2.9436,2.9219,2.8303,2.8743,2.8341,2.6828,2.6825,2.6562,2.5912,2.5248,2.5068,2.5332,2.5332,2.5478,2.5693,2.5235,2.4981,2.4883,2.4489,2.4251,2.4202,2.4202,2.4202,2.4202,2.4202,2.4202,2.4202,2.4202,2.3746,2.3138,3.7095,3.7095,3.6861,3.6071,3.6547,3.6783,3.5991,3.5494,3.5264,3.5305,3.4262,3.3586,3.3628,3.3043,3.2711,3.2914,3.2797,3.2711,3.2711,3.2939,3.3441,3.423,3.4272,3.462,3.5346,3.5534,3.5574,3.5507,3.5574,3.5196,3.4397,3.4397,3.3937,3.3124,3.3124,3.3569,3.4397,3.4481,3.5426,3.6897,3.6975,3.7491,3.8202,3.8202,3.8202,3.8202,3.8202,3.8202,3.8202,3.8202,3.8202,3.8202,3.8202,3.8202,3.8202,3.8202,3.8202,3.8202,3.8202,3.8202,3.8202,3.8202,3.8202,3.8057,3.752,3.7389,3.7201,3.6533,3.6165,3.5552,3.4351,3.3702,3.2698,3.0624,3.0177,2.9764,2.8762,2.8655,2.8655,2.8655,2.8655,2.8655,2.8655,2.9088,2.9569,3.005,3.0134,2.9796,2.8939,2.9337,2.9215,2.8318,2.7675,2.7284,2.7189,2.6187,2.5693,2.5693,2.5693,2.5693,2.5684,2.544,2.5186,2.4932,2.4637,2.439,2.4251,2.4202,2.4202,2.4202,2.4202,2.4202,2.4202,2.4202,2.4202,2.4053,3.7863,3.7938,3.7901,3.7696,3.7558,3.7419,3.7226,3.5856,3.4938,3.5264,3.359,3.2581,3.3074,3.2537,3.2245,3.2519,3.2636,3.281,3.2995,3.3068,3.3197,3.3368,3.3368,3.3441,3.3641,3.4951,3.5264,3.4662,3.5264,3.5196,3.4397,3.4397,3.3937,3.3124,3.3124,3.3569,3.4439,3.5087,3.5963,3.6975,3.7644,3.8037,3.8202,3.8202,3.8202,3.8202,3.8202,3.8202,3.8202,3.8202,3.8202,3.8202,3.8202,3.8202,3.8202,3.8202,3.8202,3.8202,3.8202,3.8202,3.8202,3.8202,3.8202,3.8173,3.8028,3.8014,3.7839,3.7215,3.7026,3.6736,3.5913,3.4797,3.3683,3.2694,3.1559,3.0604,2.9861,2.9749,2.9749,2.9749,2.9749,2.9749,2.9749,2.9845,2.9965,3.0074,3.047,3.0656,3.0429,3.093,3.0749,2.9783,2.8857,2.7981,2.7237,2.6187,2.5693,2.5693,2.5693,2.5693,2.5684,2.544,2.5284,2.5186,2.4686,2.4489,2.444,2.4251,2.4202,2.4202,2.4202,2.4202,2.4202,2.4202,2.4202,2.4152,3.7529,3.7924,3.8089,3.7644,3.7749,3.7763,3.7313,3.6334,3.5682,3.5883,3.4124,3.2932,3.3318,3.2667,3.23,3.2506,3.2766,3.2939,3.3081,3.3124,3.3124,3.3124,3.3124,3.3124,3.3124,3.3953,3.4204,3.3781,3.4204,3.4204,3.3781,3.3781,3.3539,3.3124,3.3124,3.3368,3.3823,3.4246,3.4924,3.579,3.6635,3.7193,3.7644,3.8037,3.8202,3.8202,3.8202,3.8202,3.8202,3.8202,3.8202,3.8202,3.8202,3.8202,3.8202,3.8202,3.8202,3.8202,3.8202,3.8202,3.8202,3.8202,3.8202,3.8202,3.8202,3.8202,3.8115,3.7796,3.7738,3.7535,3.6896,3.5741,3.4509,3.3403,3.2157,3.1034,3.0199,3.0086,3.0086,3.0086,3.0086,3.0194,3.0446,3.0458,3.0567,3.0819,3.1139,3.1296,3.1296,3.156,3.1472,3.0913,2.9932,2.8958,2.7934,2.6924,2.6187,2.5693,2.5693,2.5693,2.5693,2.5538,2.544,2.5284,2.4981,2.4784,2.4677,2.444,2.4341,2.4341,2.4251,2.4202,2.4202,2.4202,2.4202,2.4202,3.6936,3.7606,3.7962,3.7246,3.772,3.7962,3.7208,3.6858,3.6663,3.661,3.5061,3.3914,3.3788,3.3,3.2605,3.2754,3.2982,3.3124,3.3124,3.3124,3.3124,3.3124,3.3124,3.3124,3.3124,3.3124,3.3124,3.3124,3.3124,3.3124,3.3124,3.3124,3.3124,3.3124,3.3124,3.3197,3.3326,3.3326,3.381,3.4662,3.5467,3.6241,3.7014,3.7886,3.8202,3.8202,3.8202,3.8202,3.8202,3.8202,3.8202,3.8202,3.8202,3.8202,3.8202,3.8202,3.8202,3.8202,3.8202,3.8202,3.8202,3.8202,3.8202,3.8202,3.8202,3.8202,3.8202,3.8202,3.8202,3.8043,3.7549,3.6571,3.5341,3.3737,3.2655,3.1583,3.0507,3.035,3.035,3.035,3.035,3.053,3.1007,3.1055,3.1235,3.1681,3.1705,3.1705,3.1705,3.1705,3.1705,3.1705,3.0722,2.9795,2.8958,2.7793,2.6781,2.5965,2.5781,2.5693,2.5693,2.5693,2.5586,2.5391,2.5333,2.5186,2.4941,2.4686,2.4529,2.448,2.4341,2.4251,2.4202,2.4202,2.4202,2.4202,3.7053,3.7606,3.8165,3.8037,3.8127,3.8165,3.8037,3.7376,3.6819,3.6624,3.5709,3.4815,3.4027,3.3373,3.3038,3.3025,3.3081,3.3124,3.3124,3.3124,3.3124,3.3124,3.3124,3.3124,3.3124,3.3124,3.3124,3.3124,3.3124,3.3124,3.3124,3.3124,3.3124,3.3124,3.3124,3.3526,3.423,3.423,3.469,3.5507,3.636,3.6805,3.7014,3.7886,3.8202,3.8202,3.8202,3.8202,3.8202,3.8202,3.8202,3.8202,3.8202,3.8202,3.8202,3.8202,3.8202,3.8202,3.8202,3.8202,3.8202,3.8202,3.8202,3.8202,3.8202,3.8202,3.8202,3.8202,3.8202,3.8188,3.8101,3.7391,3.6367,3.4969,3.3986,3.2975,3.1663,3.1488,3.1488,3.1488,3.1488,3.1524,3.1597,3.1597,3.1633,3.1705,3.1705,3.1705,3.1705,3.1705,3.1705,3.1705,3.0722,3.0113,2.9977,2.8121,2.7142,2.701,2.61,2.5693,2.5693,2.5693,2.5684,2.5635,2.5391,2.5284,2.5235,2.4981,2.4686,2.448,2.4489,2.4341,2.4202,2.4202,2.4202,2.4202,3.6975,3.7606,3.8202,3.8202,3.8202,3.8202,3.8202,3.7886,3.7606,3.7529,3.6727,3.6042,3.5655,3.4566,3.3611,3.3154,3.3124,3.3124,3.3124,3.3124,3.3124,3.3124,3.3124,3.3124,3.3124,3.3124,3.3124,3.3124,3.3124,3.3124,3.3124,3.3124,3.3124,3.3124,3.3124,3.3326,3.3654,3.3654,3.3894,3.4304,3.5628,3.6148,3.632,3.7682,3.8202,3.8202,3.8202,3.8202,3.8202,3.8202,3.8202,3.8202,3.8202,3.8202,3.8202,3.8202,3.8202,3.8202,3.8202,3.8202,3.8202,3.8202,3.8202,3.8202,3.8202,3.8202,3.8202,3.8202,3.8202,3.8127,3.7915,3.7067,3.6149,3.5305,3.4024,3.2914,3.2363,3.1925,3.1705,3.1705,3.1705,3.1705,3.1705,3.1705,3.1705,3.1705,3.1705,3.1705,3.1705,3.1705,3.1705,3.1705,3.1294,3.0779,3.0215,2.9326,2.8308,2.7179,2.6733,2.6235,2.5693,2.5693,2.5693,2.5684,2.5586,2.5538,2.5489,2.5235,2.503,2.4932,2.4784,2.4587,2.4341,2.4251,2.4202,2.4202]}]]